<?xml version="1.0" encoding="UTF-8" standalone="no" ?>
<gpx xmlns="http://www.topografix.com/GPX/1/1" xmlns:xsi="http://www.w3.org/2001/XMLSchema-instance" xsi:schemaLocation="http://www.topografix.com/GPX/1/1 http://www.topografix.com/GPX/1/1/gpx.xsd" version="1.1" creator="VisuGPX - https://www.visugpx.com">
  <metadata>
    <name>De Bouaye à Les Sables-d'Olonne par St Gilles</name>
  </metadata>
  <trk>
    <name><![CDATA[De Bouaye à Les Sables-d'Olonne par St Gilles]]></name>
    <extensions>
      <line xmlns="http://www.topografix.com/GPX/gpx_style/0/2">
        <color>0000FF</color>
        <width>4</width>
      </line>
    </extensions>
    <trkseg>
      <trkpt lat="47.14251" lon="-1.69148">
        <ele>16.585359</ele>
        <time>2022-05-08T18:03:45.723Z</time>
      </trkpt>
      <trkpt lat="47.14235" lon="-1.69183">
        <ele>16.585359</ele>
        <time>2022-05-08T18:03:52.094Z</time>
      </trkpt>
      <trkpt lat="47.14235" lon="-1.69202">
        <ele>16.585359</ele>
        <time>2022-05-08T18:03:54.879Z</time>
      </trkpt>
      <trkpt lat="47.14258" lon="-1.69297">
        <ele>16.481318</ele>
        <time>2022-05-08T18:04:08.828Z</time>
      </trkpt>
      <trkpt lat="47.14257" lon="-1.69315">
        <ele>16.417341</ele>
        <time>2022-05-08T18:04:11.542Z</time>
      </trkpt>
      <trkpt lat="47.14227" lon="-1.6935">
        <ele>16.217352</ele>
        <time>2022-05-08T18:04:18.574Z</time>
      </trkpt>
      <trkpt lat="47.14209" lon="-1.69393">
        <ele>16.036456</ele>
        <time>2022-05-08T18:04:24.674Z</time>
      </trkpt>
      <trkpt lat="47.14203" lon="-1.69422">
        <ele>15.928185</ele>
        <time>2022-05-08T18:04:28.069Z</time>
      </trkpt>
      <trkpt lat="47.14183" lon="-1.69622">
        <ele>14.641352</ele>
        <time>2022-05-08T18:04:50.075Z</time>
      </trkpt>
      <trkpt lat="47.14181" lon="-1.69716">
        <ele>13.858983</ele>
        <time>2022-05-08T18:05:00.706Z</time>
      </trkpt>
      <trkpt lat="47.14103" lon="-1.69728">
        <ele>12.898983</ele>
        <time>2022-05-08T18:05:13.206Z</time>
      </trkpt>
      <trkpt lat="47.14036" lon="-1.69727">
        <ele>12.07807</ele>
        <time>2022-05-08T18:05:23.633Z</time>
      </trkpt>
      <trkpt lat="47.14007" lon="-1.69725">
        <ele>11.721216</ele>
        <time>2022-05-08T18:05:28.272Z</time>
      </trkpt>
      <trkpt lat="47.13905" lon="-1.69718">
        <ele>10.103009</ele>
        <time>2022-05-08T18:05:43.743Z</time>
      </trkpt>
      <trkpt lat="47.13889" lon="-1.69719">
        <ele>9.816142</ele>
        <time>2022-05-08T18:05:46.091Z</time>
      </trkpt>
      <trkpt lat="47.13886" lon="-1.6972">
        <ele>9.760647</ele>
        <time>2022-05-08T18:05:46.530Z</time>
      </trkpt>
      <trkpt lat="47.13844" lon="-1.69726">
        <ele>9.024924</ele>
        <time>2022-05-08T18:05:52.509Z</time>
      </trkpt>
      <trkpt lat="47.13771" lon="-1.69725">
        <ele>7.882404</ele>
        <time>2022-05-08T18:06:03.553Z</time>
      </trkpt>
      <trkpt lat="47.13726" lon="-1.69732">
        <ele>7.479331</ele>
        <time>2022-05-08T18:06:10.559Z</time>
      </trkpt>
      <trkpt lat="47.13568" lon="-1.69738">
        <ele>6.176782</ele>
        <time>2022-05-08T18:06:36.756Z</time>
      </trkpt>
      <trkpt lat="47.13505" lon="-1.69739">
        <ele>5.76965</ele>
        <time>2022-05-08T18:06:47.368Z</time>
      </trkpt>
      <trkpt lat="47.13457" lon="-1.69748">
        <ele>5.462634</ele>
        <time>2022-05-08T18:06:55.256Z</time>
      </trkpt>
      <trkpt lat="47.13268" lon="-1.69844">
        <ele>3.686884</ele>
        <time>2022-05-08T18:07:27.138Z</time>
      </trkpt>
      <trkpt lat="47.13237" lon="-1.69861">
        <ele>3.60132</ele>
        <time>2022-05-08T18:07:32.481Z</time>
      </trkpt>
      <trkpt lat="47.13219" lon="-1.6987">
        <ele>3.580746</ele>
        <time>2022-05-08T18:07:35.635Z</time>
      </trkpt>
      <trkpt lat="47.12484" lon="-1.70254">
        <ele>2.813796</ele>
        <time>2022-05-08T18:09:53.382Z</time>
      </trkpt>
      <trkpt lat="47.12453" lon="-1.70277">
        <ele>2.800342</ele>
        <time>2022-05-08T18:09:59.640Z</time>
      </trkpt>
      <trkpt lat="47.12436" lon="-1.70296">
        <ele>2.792347</ele>
        <time>2022-05-08T18:10:03.364Z</time>
      </trkpt>
      <trkpt lat="47.1242" lon="-1.70332">
        <ele>2.781764</ele>
        <time>2022-05-08T18:10:08.600Z</time>
      </trkpt>
      <trkpt lat="47.12381" lon="-1.7049">
        <ele>2.744414</ele>
        <time>2022-05-08T18:10:28.866Z</time>
      </trkpt>
      <trkpt lat="47.1236" lon="-1.70543">
        <ele>2.730847</ele>
        <time>2022-05-08T18:10:36.244Z</time>
      </trkpt>
      <trkpt lat="47.12277" lon="-1.70671">
        <ele>2.928468</ele>
        <time>2022-05-08T18:10:58.098Z</time>
      </trkpt>
      <trkpt lat="47.1224" lon="-1.70719">
        <ele>3.020667</ele>
        <time>2022-05-08T18:11:07.406Z</time>
      </trkpt>
      <trkpt lat="47.12205" lon="-1.70753">
        <ele>3.144757</ele>
        <time>2022-05-08T18:11:15.379Z</time>
      </trkpt>
      <trkpt lat="47.11916" lon="-1.70946">
        <ele>4.447781</ele>
        <time>2022-05-08T18:12:17.335Z</time>
      </trkpt>
      <trkpt lat="47.11815" lon="-1.71011">
        <ele>4.576629</ele>
        <time>2022-05-08T18:12:38.041Z</time>
      </trkpt>
      <trkpt lat="47.11741" lon="-1.7106">
        <ele>4.610777</ele>
        <time>2022-05-08T18:12:52.298Z</time>
      </trkpt>
      <trkpt lat="47.11736" lon="-1.71062">
        <ele>4.61328</ele>
        <time>2022-05-08T18:12:53.335Z</time>
      </trkpt>
      <trkpt lat="47.1165" lon="-1.7112">
        <ele>4.105141</ele>
        <time>2022-05-08T18:13:09.264Z</time>
      </trkpt>
      <trkpt lat="47.11617" lon="-1.7115">
        <ele>3.88668</ele>
        <time>2022-05-08T18:13:15.544Z</time>
      </trkpt>
      <trkpt lat="47.11583" lon="-1.71189">
        <ele>3.640604</ele>
        <time>2022-05-08T18:13:22.547Z</time>
      </trkpt>
      <trkpt lat="47.1153" lon="-1.71271">
        <ele>3.296721</ele>
        <time>2022-05-08T18:13:35.195Z</time>
      </trkpt>
      <trkpt lat="47.1148" lon="-1.71369">
        <ele>2.940184</ele>
        <time>2022-05-08T18:13:49.199Z</time>
      </trkpt>
      <trkpt lat="47.11343" lon="-1.71638">
        <ele>3.369384</ele>
        <time>2022-05-08T18:14:31.589Z</time>
      </trkpt>
      <trkpt lat="47.11328" lon="-1.71649">
        <ele>3.528563</ele>
        <time>2022-05-08T18:14:35.142Z</time>
      </trkpt>
      <trkpt lat="47.11281" lon="-1.71676">
        <ele>4.009109</ele>
        <time>2022-05-08T18:14:46.267Z</time>
      </trkpt>
      <trkpt lat="47.11252" lon="-1.71673">
        <ele>4.282965</ele>
        <time>2022-05-08T18:14:52.855Z</time>
      </trkpt>
      <trkpt lat="47.11234" lon="-1.71682">
        <ele>4.460346</ele>
        <time>2022-05-08T18:14:57.216Z</time>
      </trkpt>
      <trkpt lat="47.11085" lon="-1.71812">
        <ele>6.246271</ele>
        <time>2022-05-08T18:15:38.655Z</time>
      </trkpt>
      <trkpt lat="47.11031" lon="-1.71878">
        <ele>6.709323</ele>
        <time>2022-05-08T18:15:53.599Z</time>
      </trkpt>
      <trkpt lat="47.10957" lon="-1.7199">
        <ele>6.280615</ele>
        <time>2022-05-08T18:16:12.476Z</time>
      </trkpt>
      <trkpt lat="47.10869" lon="-1.72119">
        <ele>5.409947</ele>
        <time>2022-05-08T18:16:32.928Z</time>
      </trkpt>
      <trkpt lat="47.10856" lon="-1.72134">
        <ele>5.263305</ele>
        <time>2022-05-08T18:16:35.536Z</time>
      </trkpt>
      <trkpt lat="47.10825" lon="-1.72151">
        <ele>4.950104</ele>
        <time>2022-05-08T18:16:41.143Z</time>
      </trkpt>
      <trkpt lat="47.10801" lon="-1.72118">
        <ele>4.640403</ele>
        <time>2022-05-08T18:16:46.772Z</time>
      </trkpt>
      <trkpt lat="47.1078" lon="-1.72106">
        <ele>4.437033</ele>
        <time>2022-05-08T18:16:50.499Z</time>
      </trkpt>
      <trkpt lat="47.10741" lon="-1.72098">
        <ele>4.372233</ele>
        <time>2022-05-08T18:16:57.311Z</time>
      </trkpt>
      <trkpt lat="47.10621" lon="-1.72137">
        <ele>4.303971</ele>
        <time>2022-05-08T18:17:20.030Z</time>
      </trkpt>
      <trkpt lat="47.10589" lon="-1.72166">
        <ele>4.417531</ele>
        <time>2022-05-08T18:17:27.806Z</time>
      </trkpt>
      <trkpt lat="47.10546" lon="-1.72233">
        <ele>4.95314</ele>
        <time>2022-05-08T18:17:41.597Z</time>
      </trkpt>
      <trkpt lat="47.10525" lon="-1.72263">
        <ele>5.204752</ele>
        <time>2022-05-08T18:17:48.263Z</time>
      </trkpt>
      <trkpt lat="47.10505" lon="-1.72282">
        <ele>5.407125</ele>
        <time>2022-05-08T18:17:53.670Z</time>
      </trkpt>
      <trkpt lat="47.10417" lon="-1.72332">
        <ele>6.261205</ele>
        <time>2022-05-08T18:18:14.867Z</time>
      </trkpt>
      <trkpt lat="47.10367" lon="-1.72358">
        <ele>6.770711</ele>
        <time>2022-05-08T18:18:26.765Z</time>
      </trkpt>
      <trkpt lat="47.10352" lon="-1.72366">
        <ele>6.931214</ele>
        <time>2022-05-08T18:18:30.416Z</time>
      </trkpt>
      <trkpt lat="47.10279" lon="-1.72404">
        <ele>7.634631</ele>
        <time>2022-05-08T18:18:47.649Z</time>
      </trkpt>
      <trkpt lat="47.1025" lon="-1.72433">
        <ele>7.828922</ele>
        <time>2022-05-08T18:18:55.422Z</time>
      </trkpt>
      <trkpt lat="47.10185" lon="-1.7254">
        <ele>8.377281</ele>
        <time>2022-05-08T18:19:15.614Z</time>
      </trkpt>
      <trkpt lat="47.10146" lon="-1.72593">
        <ele>8.527397</ele>
        <time>2022-05-08T18:19:26.060Z</time>
      </trkpt>
      <trkpt lat="47.10062" lon="-1.72677">
        <ele>8.25769</ele>
        <time>2022-05-08T18:19:44.504Z</time>
      </trkpt>
      <trkpt lat="47.09968" lon="-1.72752">
        <ele>7.801653</ele>
        <time>2022-05-08T18:20:02.865Z</time>
      </trkpt>
      <trkpt lat="47.09814" lon="-1.72832">
        <ele>6.729759</ele>
        <time>2022-05-08T18:20:30.935Z</time>
      </trkpt>
      <trkpt lat="47.09786" lon="-1.72858">
        <ele>6.469757</ele>
        <time>2022-05-08T18:20:36.650Z</time>
      </trkpt>
      <trkpt lat="47.09771" lon="-1.72886">
        <ele>6.27779</ele>
        <time>2022-05-08T18:20:40.887Z</time>
      </trkpt>
      <trkpt lat="47.09756" lon="-1.72865">
        <ele>6.121702</ele>
        <time>2022-05-08T18:20:44.221Z</time>
      </trkpt>
      <trkpt lat="47.09702" lon="-1.72747">
        <ele>5.332921</ele>
        <time>2022-05-08T18:21:00.472Z</time>
      </trkpt>
      <trkpt lat="47.09675" lon="-1.7273">
        <ele>5.06517</ele>
        <time>2022-05-08T18:21:05.365Z</time>
      </trkpt>
      <trkpt lat="47.09645" lon="-1.72724">
        <ele>4.790428</ele>
        <time>2022-05-08T18:21:10.382Z</time>
      </trkpt>
      <trkpt lat="47.09575" lon="-1.72691">
        <ele>4.123768</ele>
        <time>2022-05-08T18:21:22.883Z</time>
      </trkpt>
      <trkpt lat="47.09542" lon="-1.7268">
        <ele>3.864454</ele>
        <time>2022-05-08T18:21:28.648Z</time>
      </trkpt>
      <trkpt lat="47.09529" lon="-1.72687">
        <ele>3.797981</ele>
        <time>2022-05-08T18:21:30.955Z</time>
      </trkpt>
      <trkpt lat="47.09516" lon="-1.72709">
        <ele>3.696555</ele>
        <time>2022-05-08T18:21:34.283Z</time>
      </trkpt>
      <trkpt lat="47.09428" lon="-1.72891">
        <ele>3.027071</ele>
        <time>2022-05-08T18:22:01.144Z</time>
      </trkpt>
      <trkpt lat="47.09396" lon="-1.72961">
        <ele>3.023911</ele>
        <time>2022-05-08T18:22:11.640Z</time>
      </trkpt>
      <trkpt lat="47.09387" lon="-1.73027">
        <ele>3.021424</ele>
        <time>2022-05-08T18:22:20.096Z</time>
      </trkpt>
      <trkpt lat="47.09378" lon="-1.73078">
        <ele>3.019465</ele>
        <time>2022-05-08T18:22:26.937Z</time>
      </trkpt>
      <trkpt lat="47.09359" lon="-1.73107">
        <ele>3.029259</ele>
        <time>2022-05-08T18:22:32.174Z</time>
      </trkpt>
      <trkpt lat="47.09072" lon="-1.73337">
        <ele>3.928376</ele>
        <time>2022-05-08T18:23:36.924Z</time>
      </trkpt>
      <trkpt lat="47.09042" lon="-1.7336">
        <ele>4.002666</ele>
        <time>2022-05-08T18:23:43.280Z</time>
      </trkpt>
      <trkpt lat="47.09" lon="-1.734">
        <ele>4.021004</ele>
        <time>2022-05-08T18:23:52.655Z</time>
      </trkpt>
      <trkpt lat="47.08962" lon="-1.73452">
        <ele>4.039998</ele>
        <time>2022-05-08T18:24:02.406Z</time>
      </trkpt>
      <trkpt lat="47.08939" lon="-1.73523">
        <ele>4.059747</ele>
        <time>2022-05-08T18:24:12.288Z</time>
      </trkpt>
      <trkpt lat="47.08912" lon="-1.73659">
        <ele>4.09986</ele>
        <time>2022-05-08T18:24:30.131Z</time>
      </trkpt>
      <trkpt lat="47.08856" lon="-1.73772">
        <ele>4.140108</ele>
        <time>2022-05-08T18:24:47.744Z</time>
      </trkpt>
      <trkpt lat="47.08792" lon="-1.73856">
        <ele>4.518285</ele>
        <time>2022-05-08T18:25:04.476Z</time>
      </trkpt>
      <trkpt lat="47.08719" lon="-1.73996">
        <ele>5.10358</ele>
        <time>2022-05-08T18:25:30.036Z</time>
      </trkpt>
      <trkpt lat="47.08656" lon="-1.74142">
        <ele>5.748701</ele>
        <time>2022-05-08T18:25:55.725Z</time>
      </trkpt>
      <trkpt lat="47.08643" lon="-1.74165">
        <ele>5.85916</ele>
        <time>2022-05-08T18:25:59.837Z</time>
      </trkpt>
      <trkpt lat="47.08554" lon="-1.74273">
        <ele>5.462226</ele>
        <time>2022-05-08T18:26:20.705Z</time>
      </trkpt>
      <trkpt lat="47.08543" lon="-1.74311">
        <ele>5.298983</ele>
        <time>2022-05-08T18:26:25.526Z</time>
      </trkpt>
      <trkpt lat="47.0853" lon="-1.74363">
        <ele>5.084726</ele>
        <time>2022-05-08T18:26:31.663Z</time>
      </trkpt>
      <trkpt lat="47.08373" lon="-1.7455">
        <ele>3.036835</ele>
        <time>2022-05-08T18:27:04.774Z</time>
      </trkpt>
      <trkpt lat="47.08308" lon="-1.74591">
        <ele>2.917471</ele>
        <time>2022-05-08T18:27:17.180Z</time>
      </trkpt>
      <trkpt lat="47.08266" lon="-1.74645">
        <ele>2.824002</ele>
        <time>2022-05-08T18:27:27.409Z</time>
      </trkpt>
      <trkpt lat="47.08227" lon="-1.74706">
        <ele>2.764605</ele>
        <time>2022-05-08T18:27:38.803Z</time>
      </trkpt>
      <trkpt lat="47.0821" lon="-1.74752">
        <ele>3.016169</ele>
        <time>2022-05-08T18:27:45.967Z</time>
      </trkpt>
      <trkpt lat="47.08198" lon="-1.74816">
        <ele>3.340399</ele>
        <time>2022-05-08T18:27:55.554Z</time>
      </trkpt>
      <trkpt lat="47.08187" lon="-1.74832">
        <ele>3.446046</ele>
        <time>2022-05-08T18:27:58.827Z</time>
      </trkpt>
      <trkpt lat="47.0816" lon="-1.74856">
        <ele>3.671995</ele>
        <time>2022-05-08T18:28:06.026Z</time>
      </trkpt>
      <trkpt lat="47.08084" lon="-1.74889">
        <ele>4.237278</ele>
        <time>2022-05-08T18:28:23.763Z</time>
      </trkpt>
      <trkpt lat="47.08046" lon="-1.74929">
        <ele>4.564263</ele>
        <time>2022-05-08T18:28:33.996Z</time>
      </trkpt>
      <trkpt lat="47.07905" lon="-1.74834">
        <ele>5.279035</ele>
        <time>2022-05-08T18:29:23.487Z</time>
      </trkpt>
      <trkpt lat="47.07898" lon="-1.7482">
        <ele>5.279206</ele>
        <time>2022-05-08T18:29:25.779Z</time>
      </trkpt>
      <trkpt lat="47.07886" lon="-1.74761">
        <ele>5.279831</ele>
        <time>2022-05-08T18:29:33.264Z</time>
      </trkpt>
      <trkpt lat="47.07868" lon="-1.74743">
        <ele>5.280148</ele>
        <time>2022-05-08T18:29:36.954Z</time>
      </trkpt>
      <trkpt lat="47.07843" lon="-1.74736">
        <ele>5.280526</ele>
        <time>2022-05-08T18:29:41.526Z</time>
      </trkpt>
      <trkpt lat="47.07818" lon="-1.74739">
        <ele>5.280907</ele>
        <time>2022-05-08T18:29:46.325Z</time>
      </trkpt>
      <trkpt lat="47.0778" lon="-1.74754">
        <ele>5.234557</ele>
        <time>2022-05-08T18:29:53.426Z</time>
      </trkpt>
      <trkpt lat="47.07771" lon="-1.74763">
        <ele>5.222161</ele>
        <time>2022-05-08T18:29:55.112Z</time>
      </trkpt>
      <trkpt lat="47.07752" lon="-1.74793">
        <ele>5.188536</ele>
        <time>2022-05-08T18:30:00.259Z</time>
      </trkpt>
      <trkpt lat="47.07736" lon="-1.7483">
        <ele>5.152959</ele>
        <time>2022-05-08T18:30:05.623Z</time>
      </trkpt>
      <trkpt lat="47.07714" lon="-1.74825">
        <ele>5.126574</ele>
        <time>2022-05-08T18:30:11.977Z</time>
      </trkpt>
      <trkpt lat="47.07698" lon="-1.74839">
        <ele>5.104415</ele>
        <time>2022-05-08T18:30:17.659Z</time>
      </trkpt>
      <trkpt lat="47.0762" lon="-1.74847">
        <ele>5.200689</ele>
        <time>2022-05-08T18:30:41.461Z</time>
      </trkpt>
      <trkpt lat="47.07546" lon="-1.74835">
        <ele>5.41825</ele>
        <time>2022-05-08T18:31:05.092Z</time>
      </trkpt>
      <trkpt lat="47.07436" lon="-1.74863">
        <ele>5.522229</ele>
        <time>2022-05-08T18:31:38.987Z</time>
      </trkpt>
      <trkpt lat="47.07417" lon="-1.74867">
        <ele>5.496946</ele>
        <time>2022-05-08T18:31:44.837Z</time>
      </trkpt>
      <trkpt lat="47.0741" lon="-1.74866">
        <ele>5.487899</ele>
        <time>2022-05-08T18:31:46.924Z</time>
      </trkpt>
      <trkpt lat="47.0737" lon="-1.74857">
        <ele>5.436299</ele>
        <time>2022-05-08T18:31:58.787Z</time>
      </trkpt>
      <trkpt lat="47.07274" lon="-1.74851">
        <ele>5.174708</ele>
        <time>2022-05-08T18:32:26.306Z</time>
      </trkpt>
      <trkpt lat="47.07203" lon="-1.74864">
        <ele>4.811081</ele>
        <time>2022-05-08T18:32:46.342Z</time>
      </trkpt>
      <trkpt lat="47.07098" lon="-1.74837">
        <ele>4.380498</ele>
        <time>2022-05-08T18:33:17.057Z</time>
      </trkpt>
      <trkpt lat="47.07029" lon="-1.74835">
        <ele>4.26619</ele>
        <time>2022-05-08T18:33:37.087Z</time>
      </trkpt>
      <trkpt lat="47.0697" lon="-1.74863">
        <ele>4.162792</ele>
        <time>2022-05-08T18:33:55.522Z</time>
      </trkpt>
      <trkpt lat="47.06803" lon="-1.74851">
        <ele>4.264293</ele>
        <time>2022-05-08T18:34:45.951Z</time>
      </trkpt>
      <trkpt lat="47.06734" lon="-1.74786">
        <ele>4.296052</ele>
        <time>2022-05-08T18:35:10.129Z</time>
      </trkpt>
      <trkpt lat="47.06715" lon="-1.74775">
        <ele>4.299542</ele>
        <time>2022-05-08T18:35:16.330Z</time>
      </trkpt>
      <trkpt lat="47.06686" lon="-1.74779">
        <ele>4.304325</ele>
        <time>2022-05-08T18:35:24.800Z</time>
      </trkpt>
      <trkpt lat="47.06587" lon="-1.74825">
        <ele>4.354841</ele>
        <time>2022-05-08T18:35:55.682Z</time>
      </trkpt>
      <trkpt lat="47.06527" lon="-1.74798">
        <ele>4.441114</ele>
        <time>2022-05-08T18:36:14.961Z</time>
      </trkpt>
      <trkpt lat="47.06512" lon="-1.74784">
        <ele>4.464862</ele>
        <time>2022-05-08T18:36:20.322Z</time>
      </trkpt>
      <trkpt lat="47.06437" lon="-1.74796">
        <ele>4.560906</ele>
        <time>2022-05-08T18:36:42.773Z</time>
      </trkpt>
      <trkpt lat="47.06368" lon="-1.74779">
        <ele>4.531737</ele>
        <time>2022-05-08T18:37:03.710Z</time>
      </trkpt>
      <trkpt lat="47.06306" lon="-1.74789">
        <ele>4.506029</ele>
        <time>2022-05-08T18:37:22.044Z</time>
      </trkpt>
      <trkpt lat="47.06264" lon="-1.74802">
        <ele>4.488005</ele>
        <time>2022-05-08T18:37:34.870Z</time>
      </trkpt>
      <trkpt lat="47.06224" lon="-1.74826">
        <ele>4.523313</ele>
        <time>2022-05-08T18:37:47.368Z</time>
      </trkpt>
      <trkpt lat="47.06207" lon="-1.74826">
        <ele>4.537582</ele>
        <time>2022-05-08T18:37:52.301Z</time>
      </trkpt>
      <trkpt lat="47.06184" lon="-1.74823">
        <ele>4.557513</ele>
        <time>2022-05-08T18:37:59.250Z</time>
      </trkpt>
      <trkpt lat="47.06135" lon="-1.74784">
        <ele>4.604558</ele>
        <time>2022-05-08T18:38:16.107Z</time>
      </trkpt>
      <trkpt lat="47.06112" lon="-1.74778">
        <ele>4.623825</ele>
        <time>2022-05-08T18:38:23.145Z</time>
      </trkpt>
      <trkpt lat="47.06058" lon="-1.74771">
        <ele>4.759162</ele>
        <time>2022-05-08T18:38:40.090Z</time>
      </trkpt>
      <trkpt lat="47.05996" lon="-1.74776">
        <ele>4.963072</ele>
        <time>2022-05-08T18:38:59.214Z</time>
      </trkpt>
      <trkpt lat="47.05888" lon="-1.7483">
        <ele>5.372363</ele>
        <time>2022-05-08T18:39:34.684Z</time>
      </trkpt>
      <trkpt lat="47.05849" lon="-1.74844">
        <ele>5.54146</ele>
        <time>2022-05-08T18:39:47.011Z</time>
      </trkpt>
      <trkpt lat="47.05819" lon="-1.74845">
        <ele>5.67032</ele>
        <time>2022-05-08T18:39:56.494Z</time>
      </trkpt>
      <trkpt lat="47.05784" lon="-1.74855">
        <ele>5.818913</ele>
        <time>2022-05-08T18:40:07.628Z</time>
      </trkpt>
      <trkpt lat="47.05719" lon="-1.74887">
        <ele>6.275507</ele>
        <time>2022-05-08T18:40:29.332Z</time>
      </trkpt>
      <trkpt lat="47.05684" lon="-1.74881">
        <ele>6.652984</ele>
        <time>2022-05-08T18:40:40.734Z</time>
      </trkpt>
      <trkpt lat="47.0566" lon="-1.74883">
        <ele>6.910368</ele>
        <time>2022-05-08T18:40:48.763Z</time>
      </trkpt>
      <trkpt lat="47.05646" lon="-1.74877">
        <ele>7.062504</ele>
        <time>2022-05-08T18:40:53.526Z</time>
      </trkpt>
      <trkpt lat="47.05603" lon="-1.74855">
        <ele>7.549597</ele>
        <time>2022-05-08T18:41:10.429Z</time>
      </trkpt>
      <trkpt lat="47.05595" lon="-1.74865">
        <ele>7.661285</ele>
        <time>2022-05-08T18:41:13.934Z</time>
      </trkpt>
      <trkpt lat="47.05583" lon="-1.74929">
        <ele>8.192737</ele>
        <time>2022-05-08T18:41:29.628Z</time>
      </trkpt>
      <trkpt lat="47.05579" lon="-1.74936">
        <ele>8.282554</ele>
        <time>2022-05-08T18:41:31.926Z</time>
      </trkpt>
      <trkpt lat="47.05543" lon="-1.74925">
        <ele>8.767607</ele>
        <time>2022-05-08T18:41:44.761Z</time>
      </trkpt>
      <trkpt lat="47.05537" lon="-1.74933">
        <ele>8.875763</ele>
        <time>2022-05-08T18:41:48.215Z</time>
      </trkpt>
      <trkpt lat="47.05361" lon="-1.74776">
        <ele>11.611155</ele>
        <time>2022-05-08T18:42:34.823Z</time>
      </trkpt>
      <trkpt lat="47.05336" lon="-1.74739">
        <ele>12.081162</ele>
        <time>2022-05-08T18:42:42.820Z</time>
      </trkpt>
      <trkpt lat="47.05285" lon="-1.74632">
        <ele>13.349501</ele>
        <time>2022-05-08T18:43:04.104Z</time>
      </trkpt>
      <trkpt lat="47.05204" lon="-1.74688">
        <ele>14.705655</ele>
        <time>2022-05-08T18:43:27.092Z</time>
      </trkpt>
      <trkpt lat="47.05168" lon="-1.74762">
        <ele>15.549766</ele>
        <time>2022-05-08T18:43:41.832Z</time>
      </trkpt>
      <trkpt lat="47.05148" lon="-1.74792">
        <ele>15.788413</ele>
        <time>2022-05-08T18:43:48.281Z</time>
      </trkpt>
      <trkpt lat="47.05048" lon="-1.74923">
        <ele>16.915268</ele>
        <time>2022-05-08T18:44:16.713Z</time>
      </trkpt>
      <trkpt lat="47.04949" lon="-1.74974">
        <ele>17.952811</ele>
        <time>2022-05-08T18:44:39.281Z</time>
      </trkpt>
      <trkpt lat="47.04922" lon="-1.74995">
        <ele>18.249152</ele>
        <time>2022-05-08T18:44:46.358Z</time>
      </trkpt>
      <trkpt lat="47.04743" lon="-1.75168">
        <ele>20.520676</ele>
        <time>2022-05-08T18:45:37.507Z</time>
      </trkpt>
      <trkpt lat="47.04607" lon="-1.75323">
        <ele>20.501529</ele>
        <time>2022-05-08T18:46:08.841Z</time>
      </trkpt>
      <trkpt lat="47.04579" lon="-1.75345">
        <ele>20.443733</ele>
        <time>2022-05-08T18:46:14.310Z</time>
      </trkpt>
      <trkpt lat="47.04588" lon="-1.75376">
        <ele>20.366185</ele>
        <time>2022-05-08T18:46:18.396Z</time>
      </trkpt>
      <trkpt lat="47.04583" lon="-1.75408">
        <ele>20.292934</ele>
        <time>2022-05-08T18:46:22.252Z</time>
      </trkpt>
      <trkpt lat="47.04552" lon="-1.75436">
        <ele>20.174191</ele>
        <time>2022-05-08T18:46:28.568Z</time>
      </trkpt>
      <trkpt lat="47.04455" lon="-1.75476">
        <ele>19.927001</ele>
        <time>2022-05-08T18:46:46.755Z</time>
      </trkpt>
      <trkpt lat="47.04403" lon="-1.75478">
        <ele>20.04123</ele>
        <time>2022-05-08T18:46:56.836Z</time>
      </trkpt>
      <trkpt lat="47.04346" lon="-1.75463">
        <ele>20.167249</ele>
        <time>2022-05-08T18:47:08.303Z</time>
      </trkpt>
      <trkpt lat="47.04336" lon="-1.75484">
        <ele>20.206334</ele>
        <time>2022-05-08T18:47:11.652Z</time>
      </trkpt>
      <trkpt lat="47.04081" lon="-1.75987">
        <ele>22.082879</ele>
        <time>2022-05-08T18:48:35.194Z</time>
      </trkpt>
      <trkpt lat="47.04051" lon="-1.76041">
        <ele>22.39009</ele>
        <time>2022-05-08T18:48:44.608Z</time>
      </trkpt>
      <trkpt lat="47.03999" lon="-1.76114">
        <ele>22.86581</ele>
        <time>2022-05-08T18:48:59.659Z</time>
      </trkpt>
      <trkpt lat="47.03872" lon="-1.76352">
        <ele>24.290699</ele>
        <time>2022-05-08T18:49:43.174Z</time>
      </trkpt>
      <trkpt lat="47.03821" lon="-1.76413">
        <ele>24.165192</ele>
        <time>2022-05-08T18:49:55.001Z</time>
      </trkpt>
      <trkpt lat="47.0369" lon="-1.76541">
        <ele>23.514219</ele>
        <time>2022-05-08T18:50:21.206Z</time>
      </trkpt>
      <trkpt lat="47.03617" lon="-1.7661">
        <ele>22.725857</ele>
        <time>2022-05-08T18:50:35.148Z</time>
      </trkpt>
      <trkpt lat="47.03578" lon="-1.7666">
        <ele>22.257243</ele>
        <time>2022-05-08T18:50:43.263Z</time>
      </trkpt>
      <trkpt lat="47.03558" lon="-1.76698">
        <ele>21.817966</ele>
        <time>2022-05-08T18:50:48.309Z</time>
      </trkpt>
      <trkpt lat="47.03512" lon="-1.76796">
        <ele>20.696064</ele>
        <time>2022-05-08T18:51:00.740Z</time>
      </trkpt>
      <trkpt lat="47.03501" lon="-1.76838">
        <ele>20.269831</ele>
        <time>2022-05-08T18:51:05.365Z</time>
      </trkpt>
      <trkpt lat="47.03482" lon="-1.7684">
        <ele>20.018336</ele>
        <time>2022-05-08T18:51:08.284Z</time>
      </trkpt>
      <trkpt lat="47.03311" lon="-1.76954">
        <ele>17.546413</ele>
        <time>2022-05-08T18:51:38.526Z</time>
      </trkpt>
      <trkpt lat="47.03205" lon="-1.76987">
        <ele>16.746951</ele>
        <time>2022-05-08T18:51:56.741Z</time>
      </trkpt>
      <trkpt lat="47.0305" lon="-1.76986">
        <ele>16.176556</ele>
        <time>2022-05-08T18:52:24.383Z</time>
      </trkpt>
      <trkpt lat="47.02889" lon="-1.76929">
        <ele>16.293397</ele>
        <time>2022-05-08T18:52:56.387Z</time>
      </trkpt>
      <trkpt lat="47.02829" lon="-1.76906">
        <ele>16.433953</ele>
        <time>2022-05-08T18:53:15.456Z</time>
      </trkpt>
      <trkpt lat="47.02718" lon="-1.76925">
        <ele>16.359538</ele>
        <time>2022-05-08T18:53:49.423Z</time>
      </trkpt>
      <trkpt lat="47.0254" lon="-1.76908">
        <ele>15.704942</ele>
        <time>2022-05-08T18:54:39.987Z</time>
      </trkpt>
      <trkpt lat="47.02493" lon="-1.76922">
        <ele>15.573954</ele>
        <time>2022-05-08T18:54:53.469Z</time>
      </trkpt>
      <trkpt lat="47.024" lon="-1.76975">
        <ele>15.598129</ele>
        <time>2022-05-08T18:55:23.013Z</time>
      </trkpt>
      <trkpt lat="47.02327" lon="-1.77037">
        <ele>16.689503</ele>
        <time>2022-05-08T18:55:51.684Z</time>
      </trkpt>
      <trkpt lat="47.0228" lon="-1.77052">
        <ele>17.320579</ele>
        <time>2022-05-08T18:56:09.932Z</time>
      </trkpt>
      <trkpt lat="47.02233" lon="-1.77059">
        <ele>17.838666</ele>
        <time>2022-05-08T18:56:28.526Z</time>
      </trkpt>
      <trkpt lat="47.022" lon="-1.77055">
        <ele>18.088172</ele>
        <time>2022-05-08T18:56:40.491Z</time>
      </trkpt>
      <trkpt lat="47.02164" lon="-1.77044">
        <ele>18.366188</ele>
        <time>2022-05-08T18:56:53.013Z</time>
      </trkpt>
      <trkpt lat="47.02117" lon="-1.77029">
        <ele>18.73004</ele>
        <time>2022-05-08T18:57:08.483Z</time>
      </trkpt>
      <trkpt lat="47.02074" lon="-1.77214">
        <ele>17.847469</ele>
        <time>2022-05-08T18:57:45.636Z</time>
      </trkpt>
      <trkpt lat="47.02048" lon="-1.7728">
        <ele>17.149771</ele>
        <time>2022-05-08T18:57:59.209Z</time>
      </trkpt>
      <trkpt lat="47.02038" lon="-1.77326">
        <ele>16.712898</ele>
        <time>2022-05-08T18:58:07.709Z</time>
      </trkpt>
      <trkpt lat="47.02035" lon="-1.77379">
        <ele>16.163957</ele>
        <time>2022-05-08T18:58:17.252Z</time>
      </trkpt>
      <trkpt lat="47.02042" lon="-1.77434">
        <ele>15.580507</ele>
        <time>2022-05-08T18:58:27.243Z</time>
      </trkpt>
      <trkpt lat="47.02106" lon="-1.77667">
        <ele>13.323119</ele>
        <time>2022-05-08T18:59:13.693Z</time>
      </trkpt>
      <trkpt lat="47.02112" lon="-1.77708">
        <ele>13.062138</ele>
        <time>2022-05-08T18:59:21.510Z</time>
      </trkpt>
      <trkpt lat="47.0211" lon="-1.77811">
        <ele>12.409054</ele>
        <time>2022-05-08T18:59:41.312Z</time>
      </trkpt>
      <trkpt lat="47.02113" lon="-1.77832">
        <ele>12.276297</ele>
        <time>2022-05-08T18:59:45.399Z</time>
      </trkpt>
      <trkpt lat="47.0211" lon="-1.77858">
        <ele>12.166114</ele>
        <time>2022-05-08T18:59:48.588Z</time>
      </trkpt>
      <trkpt lat="47.02112" lon="-1.77899">
        <ele>12.042083</ele>
        <time>2022-05-08T18:59:53.486Z</time>
      </trkpt>
      <trkpt lat="47.02125" lon="-1.7805">
        <ele>11.579604</ele>
        <time>2022-05-08T19:00:11.724Z</time>
      </trkpt>
      <trkpt lat="47.02144" lon="-1.78207">
        <ele>11.349156</ele>
        <time>2022-05-08T19:00:31.240Z</time>
      </trkpt>
      <trkpt lat="47.02199" lon="-1.78554">
        <ele>10.983511</ele>
        <time>2022-05-08T19:01:16.484Z</time>
      </trkpt>
      <trkpt lat="47.02259" lon="-1.78755">
        <ele>9.653273</ele>
        <time>2022-05-08T19:01:41.947Z</time>
      </trkpt>
      <trkpt lat="47.02271" lon="-1.78796">
        <ele>9.302497</ele>
        <time>2022-05-08T19:01:46.661Z</time>
      </trkpt>
      <trkpt lat="47.02293" lon="-1.7892">
        <ele>7.904071</ele>
        <time>2022-05-08T19:02:00.198Z</time>
      </trkpt>
      <trkpt lat="47.02237" lon="-1.78969">
        <ele>6.583376</ele>
        <time>2022-05-08T19:02:09.625Z</time>
      </trkpt>
      <trkpt lat="47.02196" lon="-1.79034">
        <ele>5.368376</ele>
        <time>2022-05-08T19:02:18.346Z</time>
      </trkpt>
      <trkpt lat="47.02189" lon="-1.7905">
        <ele>5.137378</ele>
        <time>2022-05-08T19:02:20.287Z</time>
      </trkpt>
      <trkpt lat="47.02171" lon="-1.79105">
        <ele>4.939221</ele>
        <time>2022-05-08T19:02:26.512Z</time>
      </trkpt>
      <trkpt lat="47.02147" lon="-1.79191">
        <ele>4.639549</ele>
        <time>2022-05-08T19:02:37.001Z</time>
      </trkpt>
      <trkpt lat="47.02139" lon="-1.79222">
        <ele>4.534989</ele>
        <time>2022-05-08T19:02:41.118Z</time>
      </trkpt>
      <trkpt lat="47.0212" lon="-1.79295">
        <ele>4.356479</ele>
        <time>2022-05-08T19:02:51.508Z</time>
      </trkpt>
      <trkpt lat="47.02115" lon="-1.79316">
        <ele>4.605559</ele>
        <time>2022-05-08T19:02:54.825Z</time>
      </trkpt>
      <trkpt lat="47.02102" lon="-1.79372">
        <ele>5.293677</ele>
        <time>2022-05-08T19:03:04.065Z</time>
      </trkpt>
      <trkpt lat="47.02095" lon="-1.79397">
        <ele>5.603513</ele>
        <time>2022-05-08T19:03:08.346Z</time>
      </trkpt>
      <trkpt lat="47.02085" lon="-1.79406">
        <ele>5.808128</ele>
        <time>2022-05-08T19:03:11.583Z</time>
      </trkpt>
      <trkpt lat="47.02057" lon="-1.794">
        <ele>6.288837</ele>
        <time>2022-05-08T19:03:18.836Z</time>
      </trkpt>
      <trkpt lat="47.02025" lon="-1.79403">
        <ele>6.820702</ele>
        <time>2022-05-08T19:03:27.254Z</time>
      </trkpt>
      <trkpt lat="47.02011" lon="-1.79406">
        <ele>7.068556</ele>
        <time>2022-05-08T19:03:31.507Z</time>
      </trkpt>
      <trkpt lat="47.01995" lon="-1.79412">
        <ele>7.353662</ele>
        <time>2022-05-08T19:03:36.063Z</time>
      </trkpt>
      <trkpt lat="47.01987" lon="-1.79415">
        <ele>7.539107</ele>
        <time>2022-05-08T19:03:38.366Z</time>
      </trkpt>
      <trkpt lat="47.01948" lon="-1.79429">
        <ele>8.41156</ele>
        <time>2022-05-08T19:03:48.823Z</time>
      </trkpt>
      <trkpt lat="47.01943" lon="-1.79431">
        <ele>8.528448</ele>
        <time>2022-05-08T19:03:50.216Z</time>
      </trkpt>
      <trkpt lat="47.019" lon="-1.7946">
        <ele>9.579563</ele>
        <time>2022-05-08T19:04:02.705Z</time>
      </trkpt>
      <trkpt lat="47.01864" lon="-1.79488">
        <ele>10.466852</ele>
        <time>2022-05-08T19:04:13.673Z</time>
      </trkpt>
      <trkpt lat="47.01833" lon="-1.79512">
        <ele>11.237855</ele>
        <time>2022-05-08T19:04:23.011Z</time>
      </trkpt>
      <trkpt lat="47.01819" lon="-1.79523">
        <ele>11.541466</ele>
        <time>2022-05-08T19:04:27.253Z</time>
      </trkpt>
      <trkpt lat="47.01814" lon="-1.79527">
        <ele>11.646327</ele>
        <time>2022-05-08T19:04:28.752Z</time>
      </trkpt>
      <trkpt lat="47.01811" lon="-1.7953">
        <ele>11.71714</ele>
        <time>2022-05-08T19:04:29.777Z</time>
      </trkpt>
      <trkpt lat="47.01733" lon="-1.79588">
        <ele>13.302149</ele>
        <time>2022-05-08T19:04:52.400Z</time>
      </trkpt>
      <trkpt lat="47.01665" lon="-1.79615">
        <ele>14.557195</ele>
        <time>2022-05-08T19:05:09.168Z</time>
      </trkpt>
      <trkpt lat="47.01579" lon="-1.79662">
        <ele>15.259078</ele>
        <time>2022-05-08T19:05:29.314Z</time>
      </trkpt>
      <trkpt lat="47.0155" lon="-1.79691">
        <ele>15.529315</ele>
        <time>2022-05-08T19:05:36.526Z</time>
      </trkpt>
      <trkpt lat="47.01528" lon="-1.79728">
        <ele>15.783426</ele>
        <time>2022-05-08T19:05:43.006Z</time>
      </trkpt>
      <trkpt lat="47.01487" lon="-1.79823">
        <ele>15.693161</ele>
        <time>2022-05-08T19:05:56.499Z</time>
      </trkpt>
      <trkpt lat="47.01483" lon="-1.79833">
        <ele>15.658728</ele>
        <time>2022-05-08T19:05:57.919Z</time>
      </trkpt>
      <trkpt lat="47.01457" lon="-1.79888">
        <ele>15.468442</ele>
        <time>2022-05-08T19:06:05.573Z</time>
      </trkpt>
      <trkpt lat="47.01344" lon="-1.80094">
        <ele>14.164135</ele>
        <time>2022-05-08T19:06:34.542Z</time>
      </trkpt>
      <trkpt lat="47.01261" lon="-1.80251">
        <ele>12.656629</ele>
        <time>2022-05-08T19:06:56.243Z</time>
      </trkpt>
      <trkpt lat="47.01237" lon="-1.80317">
        <ele>11.985799</ele>
        <time>2022-05-08T19:07:04.182Z</time>
      </trkpt>
      <trkpt lat="47.0118" lon="-1.80334">
        <ele>11.220709</ele>
        <time>2022-05-08T19:07:13.435Z</time>
      </trkpt>
      <trkpt lat="47.01015" lon="-1.80447">
        <ele>8.038075</ele>
        <time>2022-05-08T19:07:41.681Z</time>
      </trkpt>
      <trkpt lat="47.01" lon="-1.80442">
        <ele>7.841227</ele>
        <time>2022-05-08T19:07:44.002Z</time>
      </trkpt>
      <trkpt lat="47.00984" lon="-1.80411">
        <ele>7.511573</ele>
        <time>2022-05-08T19:07:48.297Z</time>
      </trkpt>
      <trkpt lat="47.00974" lon="-1.80368">
        <ele>7.132156</ele>
        <time>2022-05-08T19:07:53.255Z</time>
      </trkpt>
      <trkpt lat="47.00968" lon="-1.80311">
        <ele>6.647568</ele>
        <time>2022-05-08T19:07:59.758Z</time>
      </trkpt>
      <trkpt lat="47.00958" lon="-1.80302">
        <ele>6.495605</ele>
        <time>2022-05-08T19:08:01.718Z</time>
      </trkpt>
      <trkpt lat="47.00947" lon="-1.80306">
        <ele>6.358752</ele>
        <time>2022-05-08T19:08:03.645Z</time>
      </trkpt>
      <trkpt lat="47.00883" lon="-1.80358">
        <ele>5.593475</ele>
        <time>2022-05-08T19:08:16.120Z</time>
      </trkpt>
      <trkpt lat="47.00783" lon="-1.80414">
        <ele>4.803442</ele>
        <time>2022-05-08T19:08:34.107Z</time>
      </trkpt>
      <trkpt lat="47.00699" lon="-1.80428">
        <ele>4.343911</ele>
        <time>2022-05-08T19:08:48.855Z</time>
      </trkpt>
      <trkpt lat="47.00605" lon="-1.80425">
        <ele>4.058001</ele>
        <time>2022-05-08T19:09:05.554Z</time>
      </trkpt>
      <trkpt lat="47.00389" lon="-1.80447">
        <ele>3.923159</ele>
        <time>2022-05-08T19:09:45.667Z</time>
      </trkpt>
      <trkpt lat="47.00365" lon="-1.80459">
        <ele>3.928501</ele>
        <time>2022-05-08T19:09:50.385Z</time>
      </trkpt>
      <trkpt lat="47.00306" lon="-1.80502">
        <ele>3.951003</ele>
        <time>2022-05-08T19:10:03.059Z</time>
      </trkpt>
      <trkpt lat="47.00169" lon="-1.80522">
        <ele>3.916838</ele>
        <time>2022-05-08T19:10:28.576Z</time>
      </trkpt>
      <trkpt lat="47.00028" lon="-1.80568">
        <ele>3.666026</ele>
        <time>2022-05-08T19:10:54.549Z</time>
      </trkpt>
      <trkpt lat="47.00013" lon="-1.80568">
        <ele>3.653153</ele>
        <time>2022-05-08T19:10:57.235Z</time>
      </trkpt>
      <trkpt lat="47.00003" lon="-1.80558">
        <ele>3.642939</ele>
        <time>2022-05-08T19:10:59.360Z</time>
      </trkpt>
      <trkpt lat="46.99998" lon="-1.8054">
        <ele>3.631667</ele>
        <time>2022-05-08T19:11:01.804Z</time>
      </trkpt>
      <trkpt lat="46.99997" lon="-1.80428">
        <ele>3.56703</ele>
        <time>2022-05-08T19:11:15.706Z</time>
      </trkpt>
      <trkpt lat="46.99987" lon="-1.80368">
        <ele>3.53132</ele>
        <time>2022-05-08T19:11:23.627Z</time>
      </trkpt>
      <trkpt lat="46.99876" lon="-1.80207">
        <ele>3.703215</ele>
        <time>2022-05-08T19:11:53.576Z</time>
      </trkpt>
      <trkpt lat="46.99868" lon="-1.80197">
        <ele>3.71771</ele>
        <time>2022-05-08T19:11:55.660Z</time>
      </trkpt>
      <trkpt lat="46.99864" lon="-1.80195">
        <ele>3.72278</ele>
        <time>2022-05-08T19:11:56.383Z</time>
      </trkpt>
      <trkpt lat="46.99824" lon="-1.8026">
        <ele>3.760391</ele>
        <time>2022-05-08T19:12:07.667Z</time>
      </trkpt>
      <trkpt lat="46.99522" lon="-1.80649">
        <ele>3.878737</ele>
        <time>2022-05-08T19:13:22.066Z</time>
      </trkpt>
      <trkpt lat="46.99507" lon="-1.80679">
        <ele>3.931538</ele>
        <time>2022-05-08T19:13:27.131Z</time>
      </trkpt>
      <trkpt lat="46.99507" lon="-1.80682">
        <ele>3.936235</ele>
        <time>2022-05-08T19:13:27.554Z</time>
      </trkpt>
      <trkpt lat="46.99505" lon="-1.80692">
        <ele>3.950112</ele>
        <time>2022-05-08T19:13:28.818Z</time>
      </trkpt>
      <trkpt lat="46.99492" lon="-1.80702">
        <ele>3.97992</ele>
        <time>2022-05-08T19:13:31.594Z</time>
      </trkpt>
      <trkpt lat="46.99488" lon="-1.80701">
        <ele>3.990057</ele>
        <time>2022-05-08T19:13:32.569Z</time>
      </trkpt>
      <trkpt lat="46.99471" lon="-1.80701">
        <ele>4.025327</ele>
        <time>2022-05-08T19:13:35.935Z</time>
      </trkpt>
      <trkpt lat="46.99421" lon="-1.80735">
        <ele>4.114489</ele>
        <time>2022-05-08T19:13:46.848Z</time>
      </trkpt>
      <trkpt lat="46.99385" lon="-1.80756">
        <ele>4.148031</ele>
        <time>2022-05-08T19:13:54.402Z</time>
      </trkpt>
      <trkpt lat="46.99377" lon="-1.80761">
        <ele>4.155449</ele>
        <time>2022-05-08T19:13:56.074Z</time>
      </trkpt>
      <trkpt lat="46.99345" lon="-1.80781">
        <ele>4.185501</ele>
        <time>2022-05-08T19:14:02.700Z</time>
      </trkpt>
      <trkpt lat="46.99263" lon="-1.80834">
        <ele>4.208082</ele>
        <time>2022-05-08T19:14:19.299Z</time>
      </trkpt>
      <trkpt lat="46.99205" lon="-1.80871">
        <ele>3.993596</ele>
        <time>2022-05-08T19:14:30.327Z</time>
      </trkpt>
      <trkpt lat="46.99163" lon="-1.80899">
        <ele>3.834851</ele>
        <time>2022-05-08T19:14:38.458Z</time>
      </trkpt>
      <trkpt lat="46.99153" lon="-1.80833">
        <ele>3.677699</ele>
        <time>2022-05-08T19:14:46.326Z</time>
      </trkpt>
      <trkpt lat="46.99138" lon="-1.80826">
        <ele>3.642106</ele>
        <time>2022-05-08T19:14:49.030Z</time>
      </trkpt>
      <trkpt lat="46.99108" lon="-1.80782">
        <ele>3.673708</ele>
        <time>2022-05-08T19:14:56.457Z</time>
      </trkpt>
      <trkpt lat="46.99053" lon="-1.80836">
        <ele>3.722631</ele>
        <time>2022-05-08T19:15:08.824Z</time>
      </trkpt>
      <trkpt lat="46.98988" lon="-1.80889">
        <ele>3.793251</ele>
        <time>2022-05-08T19:15:23.593Z</time>
      </trkpt>
      <trkpt lat="46.98889" lon="-1.80931">
        <ele>4.075383</ele>
        <time>2022-05-08T19:15:44.242Z</time>
      </trkpt>
      <trkpt lat="46.98874" lon="-1.80937">
        <ele>4.117501</ele>
        <time>2022-05-08T19:15:47.318Z</time>
      </trkpt>
      <trkpt lat="46.98838" lon="-1.80953">
        <ele>4.220606</ele>
        <time>2022-05-08T19:15:54.654Z</time>
      </trkpt>
      <trkpt lat="46.98828" lon="-1.80958">
        <ele>4.251207</ele>
        <time>2022-05-08T19:15:56.753Z</time>
      </trkpt>
      <trkpt lat="46.98743" lon="-1.80993">
        <ele>4.265068</ele>
        <time>2022-05-08T19:16:13.236Z</time>
      </trkpt>
      <trkpt lat="46.98699" lon="-1.81011">
        <ele>4.265243</ele>
        <time>2022-05-08T19:16:21.433Z</time>
      </trkpt>
      <trkpt lat="46.98677" lon="-1.8103">
        <ele>4.265343</ele>
        <time>2022-05-08T19:16:26.108Z</time>
      </trkpt>
      <trkpt lat="46.98587" lon="-1.81103">
        <ele>4.422315</ele>
        <time>2022-05-08T19:16:45.433Z</time>
      </trkpt>
      <trkpt lat="46.98525" lon="-1.81207">
        <ele>4.612529</ele>
        <time>2022-05-08T19:17:04.237Z</time>
      </trkpt>
      <trkpt lat="46.9851" lon="-1.81206">
        <ele>4.641506</ele>
        <time>2022-05-08T19:17:07.089Z</time>
      </trkpt>
      <trkpt lat="46.98483" lon="-1.81185">
        <ele>4.701216</ele>
        <time>2022-05-08T19:17:12.911Z</time>
      </trkpt>
      <trkpt lat="46.98408" lon="-1.81129">
        <ele>4.864141</ele>
        <time>2022-05-08T19:17:28.094Z</time>
      </trkpt>
      <trkpt lat="46.9837" lon="-1.81101">
        <ele>4.945952</ele>
        <time>2022-05-08T19:17:35.958Z</time>
      </trkpt>
      <trkpt lat="46.98292" lon="-1.81042">
        <ele>5.302214</ele>
        <time>2022-05-08T19:17:52.653Z</time>
      </trkpt>
      <trkpt lat="46.98262" lon="-1.8102">
        <ele>5.452807</ele>
        <time>2022-05-08T19:17:59.038Z</time>
      </trkpt>
      <trkpt lat="46.98215" lon="-1.80984">
        <ele>5.694434</ele>
        <time>2022-05-08T19:18:09.588Z</time>
      </trkpt>
      <trkpt lat="46.9821" lon="-1.80962">
        <ele>5.766379</ele>
        <time>2022-05-08T19:18:12.869Z</time>
      </trkpt>
      <trkpt lat="46.98206" lon="-1.80959">
        <ele>5.787406</ele>
        <time>2022-05-08T19:18:14.038Z</time>
      </trkpt>
      <trkpt lat="46.98199" lon="-1.80979">
        <ele>5.910965</ele>
        <time>2022-05-08T19:18:17.148Z</time>
      </trkpt>
      <trkpt lat="46.9817" lon="-1.80958">
        <ele>6.181763</ele>
        <time>2022-05-08T19:18:24.349Z</time>
      </trkpt>
      <trkpt lat="46.98055" lon="-1.80893">
        <ele>7.20316</ele>
        <time>2022-05-08T19:18:50.489Z</time>
      </trkpt>
      <trkpt lat="46.9806" lon="-1.80845">
        <ele>7.399766</ele>
        <time>2022-05-08T19:18:57.187Z</time>
      </trkpt>
      <trkpt lat="46.98057" lon="-1.80779">
        <ele>7.614341</ele>
        <time>2022-05-08T19:19:05.936Z</time>
      </trkpt>
      <trkpt lat="46.98016" lon="-1.80656">
        <ele>8.059745</ele>
        <time>2022-05-08T19:19:24.124Z</time>
      </trkpt>
      <trkpt lat="46.98013" lon="-1.80648">
        <ele>8.089676</ele>
        <time>2022-05-08T19:19:25.378Z</time>
      </trkpt>
      <trkpt lat="46.97992" lon="-1.80593">
        <ele>8.233459</ele>
        <time>2022-05-08T19:19:33.782Z</time>
      </trkpt>
      <trkpt lat="46.97944" lon="-1.80466">
        <ele>8.506359</ele>
        <time>2022-05-08T19:19:52.381Z</time>
      </trkpt>
      <trkpt lat="46.97935" lon="-1.80445">
        <ele>8.552572</ele>
        <time>2022-05-08T19:19:55.625Z</time>
      </trkpt>
      <trkpt lat="46.97913" lon="-1.8042">
        <ele>8.629778</ele>
        <time>2022-05-08T19:20:00.836Z</time>
      </trkpt>
      <trkpt lat="46.97902" lon="-1.80416">
        <ele>8.642603</ele>
        <time>2022-05-08T19:20:02.948Z</time>
      </trkpt>
      <trkpt lat="46.97894" lon="-1.80393">
        <ele>8.634869</ele>
        <time>2022-05-08T19:20:06.128Z</time>
      </trkpt>
      <trkpt lat="46.97897" lon="-1.80382">
        <ele>8.631308</ele>
        <time>2022-05-08T19:20:07.667Z</time>
      </trkpt>
      <trkpt lat="46.97884" lon="-1.80349">
        <ele>8.619883</ele>
        <time>2022-05-08T19:20:12.372Z</time>
      </trkpt>
      <trkpt lat="46.97791" lon="-1.80176">
        <ele>8.534393</ele>
        <time>2022-05-08T19:20:38.574Z</time>
      </trkpt>
      <trkpt lat="46.97646" lon="-1.79976">
        <ele>8.460594</ele>
        <time>2022-05-08T19:21:13.517Z</time>
      </trkpt>
      <trkpt lat="46.97645" lon="-1.79975">
        <ele>8.463084</ele>
        <time>2022-05-08T19:21:13.745Z</time>
      </trkpt>
      <trkpt lat="46.97636" lon="-1.79981">
        <ele>8.484169</ele>
        <time>2022-05-08T19:21:15.529Z</time>
      </trkpt>
      <trkpt lat="46.97626" lon="-1.79974">
        <ele>8.507524</ele>
        <time>2022-05-08T19:21:17.523Z</time>
      </trkpt>
      <trkpt lat="46.97623" lon="-1.79963">
        <ele>8.525019</ele>
        <time>2022-05-08T19:21:19.088Z</time>
      </trkpt>
      <trkpt lat="46.97627" lon="-1.7995">
        <ele>8.544179</ele>
        <time>2022-05-08T19:21:20.787Z</time>
      </trkpt>
      <trkpt lat="46.97537" lon="-1.79848">
        <ele>8.825951</ele>
        <time>2022-05-08T19:21:42.679Z</time>
      </trkpt>
      <trkpt lat="46.97359" lon="-1.79644">
        <ele>9.676536</ele>
        <time>2022-05-08T19:22:26.928Z</time>
      </trkpt>
      <trkpt lat="46.9726" lon="-1.79548">
        <ele>9.978599</ele>
        <time>2022-05-08T19:22:48.785Z</time>
      </trkpt>
      <trkpt lat="46.96934" lon="-1.79279">
        <ele>10.28788</ele>
        <time>2022-05-08T19:23:56.372Z</time>
      </trkpt>
      <trkpt lat="46.96901" lon="-1.79261">
        <ele>10.298992</ele>
        <time>2022-05-08T19:24:02.985Z</time>
      </trkpt>
      <trkpt lat="46.9686" lon="-1.79249">
        <ele>10.312219</ele>
        <time>2022-05-08T19:24:10.666Z</time>
      </trkpt>
      <trkpt lat="46.96773" lon="-1.79245">
        <ele>10.330982</ele>
        <time>2022-05-08T19:24:26.171Z</time>
      </trkpt>
      <trkpt lat="46.96636" lon="-1.79239">
        <ele>10.004706</ele>
        <time>2022-05-08T19:24:49.576Z</time>
      </trkpt>
      <trkpt lat="46.96591" lon="-1.79228">
        <ele>9.908781</ele>
        <time>2022-05-08T19:24:57.465Z</time>
      </trkpt>
      <trkpt lat="46.96354" lon="-1.79149">
        <ele>10.252517</ele>
        <time>2022-05-08T19:25:41.032Z</time>
      </trkpt>
      <trkpt lat="46.96186" lon="-1.79069">
        <ele>11.543903</ele>
        <time>2022-05-08T19:26:18.305Z</time>
      </trkpt>
      <trkpt lat="46.96137" lon="-1.79051">
        <ele>12.082715</ele>
        <time>2022-05-08T19:26:29.719Z</time>
      </trkpt>
      <trkpt lat="46.96088" lon="-1.79047">
        <ele>12.600142</ele>
        <time>2022-05-08T19:26:40.672Z</time>
      </trkpt>
      <trkpt lat="46.96052" lon="-1.79052">
        <ele>13.014144</ele>
        <time>2022-05-08T19:26:48.939Z</time>
      </trkpt>
      <trkpt lat="46.9565" lon="-1.79142">
        <ele>18.074542</ele>
        <time>2022-05-08T19:28:20.940Z</time>
      </trkpt>
      <trkpt lat="46.95576" lon="-1.79156">
        <ele>19.163862</ele>
        <time>2022-05-08T19:28:39.040Z</time>
      </trkpt>
      <trkpt lat="46.95466" lon="-1.79167">
        <ele>20.586156</ele>
        <time>2022-05-08T19:29:05.638Z</time>
      </trkpt>
      <trkpt lat="46.95048" lon="-1.79204">
        <ele>25.32375</ele>
        <time>2022-05-08T19:30:38.662Z</time>
      </trkpt>
      <trkpt lat="46.94999" lon="-1.79209">
        <ele>25.796699</ele>
        <time>2022-05-08T19:30:48.685Z</time>
      </trkpt>
      <trkpt lat="46.94912" lon="-1.79216">
        <ele>26.515558</ele>
        <time>2022-05-08T19:31:06.278Z</time>
      </trkpt>
      <trkpt lat="46.94744" lon="-1.79215">
        <ele>27.906579</ele>
        <time>2022-05-08T19:31:42.547Z</time>
      </trkpt>
      <trkpt lat="46.94696" lon="-1.79214">
        <ele>28.309121</ele>
        <time>2022-05-08T19:31:53.047Z</time>
      </trkpt>
      <trkpt lat="46.9466" lon="-1.79214">
        <ele>28.612489</ele>
        <time>2022-05-08T19:32:00.475Z</time>
      </trkpt>
      <trkpt lat="46.94553" lon="-1.79212">
        <ele>29.372906</ele>
        <time>2022-05-08T19:32:22.015Z</time>
      </trkpt>
      <trkpt lat="46.94519" lon="-1.79193">
        <ele>29.618011</ele>
        <time>2022-05-08T19:32:29.272Z</time>
      </trkpt>
      <trkpt lat="46.94501" lon="-1.79174">
        <ele>29.773726</ele>
        <time>2022-05-08T19:32:33.645Z</time>
      </trkpt>
      <trkpt lat="46.94424" lon="-1.79083">
        <ele>31.112895</ele>
        <time>2022-05-08T19:32:55.209Z</time>
      </trkpt>
      <trkpt lat="46.9437" lon="-1.7902">
        <ele>32.280312</ele>
        <time>2022-05-08T19:33:12.909Z</time>
      </trkpt>
      <trkpt lat="46.94289" lon="-1.78923">
        <ele>34.348412</ele>
        <time>2022-05-08T19:33:40.997Z</time>
      </trkpt>
      <trkpt lat="46.9428" lon="-1.78923">
        <ele>34.555766</ele>
        <time>2022-05-08T19:33:43.618Z</time>
      </trkpt>
      <trkpt lat="46.94273" lon="-1.78916">
        <ele>34.740497</ele>
        <time>2022-05-08T19:33:45.911Z</time>
      </trkpt>
      <trkpt lat="46.9424" lon="-1.78926">
        <ele>35.468946</ele>
        <time>2022-05-08T19:33:54.917Z</time>
      </trkpt>
      <trkpt lat="46.94241" lon="-1.7895">
        <ele>35.83222</ele>
        <time>2022-05-08T19:33:59.286Z</time>
      </trkpt>
      <trkpt lat="46.94092" lon="-1.79244">
        <ele>40.806766</ele>
        <time>2022-05-08T19:35:04.019Z</time>
      </trkpt>
      <trkpt lat="46.94046" lon="-1.79331">
        <ele>41.87106</ele>
        <time>2022-05-08T19:35:21.839Z</time>
      </trkpt>
      <trkpt lat="46.93964" lon="-1.79495">
        <ele>43.702028</ele>
        <time>2022-05-08T19:35:52.750Z</time>
      </trkpt>
      <trkpt lat="46.93948" lon="-1.79501">
        <ele>43.893463</ele>
        <time>2022-05-08T19:35:56.529Z</time>
      </trkpt>
      <trkpt lat="46.93862" lon="-1.79602">
        <ele>45.169025</ele>
        <time>2022-05-08T19:36:21.998Z</time>
      </trkpt>
      <trkpt lat="46.9374" lon="-1.79714">
        <ele>46.926376</ele>
        <time>2022-05-08T19:36:56.771Z</time>
      </trkpt>
      <trkpt lat="46.93715" lon="-1.79755">
        <ele>47.385525</ele>
        <time>2022-05-08T19:37:05.378Z</time>
      </trkpt>
      <trkpt lat="46.93697" lon="-1.79791">
        <ele>47.507442</ele>
        <time>2022-05-08T19:37:12.091Z</time>
      </trkpt>
      <trkpt lat="46.93617" lon="-1.79908">
        <ele>47.945476</ele>
        <time>2022-05-08T19:37:34.377Z</time>
      </trkpt>
      <trkpt lat="46.93576" lon="-1.7998">
        <ele>48.110103</ele>
        <time>2022-05-08T19:37:46.040Z</time>
      </trkpt>
      <trkpt lat="46.93498" lon="-1.80141">
        <ele>48.223605</ele>
        <time>2022-05-08T19:38:11.387Z</time>
      </trkpt>
      <trkpt lat="46.93411" lon="-1.80284">
        <ele>48.468365</ele>
        <time>2022-05-08T19:38:36.691Z</time>
      </trkpt>
      <trkpt lat="46.93374" lon="-1.80344">
        <ele>48.581215</ele>
        <time>2022-05-08T19:38:47.581Z</time>
      </trkpt>
      <trkpt lat="46.93274" lon="-1.80478">
        <ele>48.768311</ele>
        <time>2022-05-08T19:39:13.860Z</time>
      </trkpt>
      <trkpt lat="46.93225" lon="-1.80534">
        <ele>48.806226</ele>
        <time>2022-05-08T19:39:25.526Z</time>
      </trkpt>
      <trkpt lat="46.93181" lon="-1.80573">
        <ele>48.541683</ele>
        <time>2022-05-08T19:39:34.637Z</time>
      </trkpt>
      <trkpt lat="46.93153" lon="-1.8059">
        <ele>48.379114</ele>
        <time>2022-05-08T19:39:40.098Z</time>
      </trkpt>
      <trkpt lat="46.93111" lon="-1.8061">
        <ele>48.151066</ele>
        <time>2022-05-08T19:39:47.599Z</time>
      </trkpt>
      <trkpt lat="46.92969" lon="-1.80723">
        <ele>46.509144</ele>
        <time>2022-05-08T19:40:14.573Z</time>
      </trkpt>
      <trkpt lat="46.92965" lon="-1.80726">
        <ele>46.454249</ele>
        <time>2022-05-08T19:40:15.318Z</time>
      </trkpt>
      <trkpt lat="46.92777" lon="-1.80866">
        <ele>43.16309</ele>
        <time>2022-05-08T19:40:48.603Z</time>
      </trkpt>
      <trkpt lat="46.92702" lon="-1.80921">
        <ele>41.750716</ele>
        <time>2022-05-08T19:41:01.492Z</time>
      </trkpt>
      <trkpt lat="46.92694" lon="-1.80931">
        <ele>41.575565</ele>
        <time>2022-05-08T19:41:03.089Z</time>
      </trkpt>
      <trkpt lat="46.92664" lon="-1.80968">
        <ele>40.913761</ele>
        <time>2022-05-08T19:41:09.158Z</time>
      </trkpt>
      <trkpt lat="46.92616" lon="-1.81053">
        <ele>39.640895</ele>
        <time>2022-05-08T19:41:20.945Z</time>
      </trkpt>
      <trkpt lat="46.92546" lon="-1.8117">
        <ele>39.402763</ele>
        <time>2022-05-08T19:41:39.749Z</time>
      </trkpt>
      <trkpt lat="46.92516" lon="-1.81191">
        <ele>39.335917</ele>
        <time>2022-05-08T19:41:46.202Z</time>
      </trkpt>
      <trkpt lat="46.92355" lon="-1.81238">
        <ele>39.664978</ele>
        <time>2022-05-08T19:42:20.068Z</time>
      </trkpt>
      <trkpt lat="46.92314" lon="-1.81243">
        <ele>39.806161</ele>
        <time>2022-05-08T19:42:28.152Z</time>
      </trkpt>
      <trkpt lat="46.92179" lon="-1.81251">
        <ele>39.598165</ele>
        <time>2022-05-08T19:42:52.349Z</time>
      </trkpt>
      <trkpt lat="46.92085" lon="-1.81266">
        <ele>39.551961</ele>
        <time>2022-05-08T19:43:09.047Z</time>
      </trkpt>
      <trkpt lat="46.92025" lon="-1.8129">
        <ele>39.72251</ele>
        <time>2022-05-08T19:43:21.327Z</time>
      </trkpt>
      <trkpt lat="46.91805" lon="-1.81437">
        <ele>40.475317</ele>
        <time>2022-05-08T19:44:11.792Z</time>
      </trkpt>
      <trkpt lat="46.91623" lon="-1.81517">
        <ele>39.847854</ele>
        <time>2022-05-08T19:44:44.736Z</time>
      </trkpt>
      <trkpt lat="46.91569" lon="-1.81543">
        <ele>39.874346</ele>
        <time>2022-05-08T19:44:54.816Z</time>
      </trkpt>
      <trkpt lat="46.91516" lon="-1.81578">
        <ele>39.973433</ele>
        <time>2022-05-08T19:45:05.424Z</time>
      </trkpt>
      <trkpt lat="46.9102" lon="-1.81934">
        <ele>43.641445</ele>
        <time>2022-05-08T19:47:04.892Z</time>
      </trkpt>
      <trkpt lat="46.90956" lon="-1.81967">
        <ele>44.044461</ele>
        <time>2022-05-08T19:47:19.168Z</time>
      </trkpt>
      <trkpt lat="46.90845" lon="-1.82016">
        <ele>43.809228</ele>
        <time>2022-05-08T19:47:40.650Z</time>
      </trkpt>
      <trkpt lat="46.90774" lon="-1.82067">
        <ele>43.500097</ele>
        <time>2022-05-08T19:47:54.074Z</time>
      </trkpt>
      <trkpt lat="46.90694" lon="-1.82147">
        <ele>42.549126</ele>
        <time>2022-05-08T19:48:10.102Z</time>
      </trkpt>
      <trkpt lat="46.90603" lon="-1.82283">
        <ele>41.497064</ele>
        <time>2022-05-08T19:48:31.735Z</time>
      </trkpt>
      <trkpt lat="46.9059" lon="-1.82308">
        <ele>41.361049</ele>
        <time>2022-05-08T19:48:35.351Z</time>
      </trkpt>
      <trkpt lat="46.90498" lon="-1.82411">
        <ele>40.777201</ele>
        <time>2022-05-08T19:48:55.759Z</time>
      </trkpt>
      <trkpt lat="46.90357" lon="-1.82483">
        <ele>40.821299</ele>
        <time>2022-05-08T19:49:24.157Z</time>
      </trkpt>
      <trkpt lat="46.90166" lon="-1.82621">
        <ele>41.086177</ele>
        <time>2022-05-08T19:50:05.228Z</time>
      </trkpt>
      <trkpt lat="46.9004" lon="-1.82701">
        <ele>40.944919</ele>
        <time>2022-05-08T19:50:30.152Z</time>
      </trkpt>
      <trkpt lat="46.90024" lon="-1.82708">
        <ele>40.927321</ele>
        <time>2022-05-08T19:50:33.224Z</time>
      </trkpt>
      <trkpt lat="46.90013" lon="-1.82703">
        <ele>40.911593</ele>
        <time>2022-05-08T19:50:35.259Z</time>
      </trkpt>
      <trkpt lat="46.8998" lon="-1.82725">
        <ele>40.862295</ele>
        <time>2022-05-08T19:50:41.451Z</time>
      </trkpt>
      <trkpt lat="46.899" lon="-1.82757">
        <ele>40.748095</ele>
        <time>2022-05-08T19:50:56.063Z</time>
      </trkpt>
      <trkpt lat="46.89883" lon="-1.8276">
        <ele>40.724321</ele>
        <time>2022-05-08T19:50:59.135Z</time>
      </trkpt>
      <trkpt lat="46.89721" lon="-1.82793">
        <ele>40.357939</ele>
        <time>2022-05-08T19:51:27.820Z</time>
      </trkpt>
      <trkpt lat="46.89654" lon="-1.82807">
        <ele>39.958569</ele>
        <time>2022-05-08T19:51:39.198Z</time>
      </trkpt>
      <trkpt lat="46.89626" lon="-1.82816">
        <ele>39.549873</ele>
        <time>2022-05-08T19:51:43.718Z</time>
      </trkpt>
      <trkpt lat="46.89576" lon="-1.82856">
        <ele>38.726943</ele>
        <time>2022-05-08T19:51:52.465Z</time>
      </trkpt>
      <trkpt lat="46.89529" lon="-1.8292">
        <ele>37.793013</ele>
        <time>2022-05-08T19:52:02.096Z</time>
      </trkpt>
      <trkpt lat="46.89528" lon="-1.82934">
        <ele>37.658891</ele>
        <time>2022-05-08T19:52:03.442Z</time>
      </trkpt>
      <trkpt lat="46.89516" lon="-1.82937">
        <ele>37.370176</ele>
        <time>2022-05-08T19:52:05.155Z</time>
      </trkpt>
      <trkpt lat="46.89507" lon="-1.82965">
        <ele>36.836779</ele>
        <time>2022-05-08T19:52:08.184Z</time>
      </trkpt>
      <trkpt lat="46.89492" lon="-1.82986">
        <ele>36.318412</ele>
        <time>2022-05-08T19:52:11.137Z</time>
      </trkpt>
      <trkpt lat="46.89447" lon="-1.83024">
        <ele>35.010269</ele>
        <time>2022-05-08T19:52:18.413Z</time>
      </trkpt>
      <trkpt lat="46.89412" lon="-1.83037">
        <ele>34.090512</ele>
        <time>2022-05-08T19:52:23.520Z</time>
      </trkpt>
      <trkpt lat="46.89347" lon="-1.83042">
        <ele>32.749689</ele>
        <time>2022-05-08T19:52:32.691Z</time>
      </trkpt>
      <trkpt lat="46.89296" lon="-1.83047">
        <ele>31.998672</ele>
        <time>2022-05-08T19:52:40.220Z</time>
      </trkpt>
      <trkpt lat="46.89249" lon="-1.83059">
        <ele>31.302265</ele>
        <time>2022-05-08T19:52:47.574Z</time>
      </trkpt>
      <trkpt lat="46.89189" lon="-1.83095">
        <ele>30.42624</ele>
        <time>2022-05-08T19:52:58.413Z</time>
      </trkpt>
      <trkpt lat="46.89141" lon="-1.83101">
        <ele>30.106862</ele>
        <time>2022-05-08T19:53:06.590Z</time>
      </trkpt>
      <trkpt lat="46.89132" lon="-1.83102">
        <ele>30.04552</ele>
        <time>2022-05-08T19:53:08.192Z</time>
      </trkpt>
      <trkpt lat="46.89131" lon="-1.83153">
        <ele>29.816955</ele>
        <time>2022-05-08T19:53:14.134Z</time>
      </trkpt>
      <trkpt lat="46.89128" lon="-1.83153">
        <ele>29.796986</ele>
        <time>2022-05-08T19:53:14.640Z</time>
      </trkpt>
      <trkpt lat="46.8912" lon="-1.83156">
        <ele>29.741079</ele>
        <time>2022-05-08T19:53:16.101Z</time>
      </trkpt>
      <trkpt lat="46.88991" lon="-1.83297">
        <ele>27.640674</ele>
        <time>2022-05-08T19:53:41.367Z</time>
      </trkpt>
      <trkpt lat="46.88942" lon="-1.83351">
        <ele>26.557233</ele>
        <time>2022-05-08T19:53:50.058Z</time>
      </trkpt>
      <trkpt lat="46.88938" lon="-1.8337">
        <ele>26.316047</ele>
        <time>2022-05-08T19:53:52.059Z</time>
      </trkpt>
      <trkpt lat="46.88939" lon="-1.83386">
        <ele>26.134708</ele>
        <time>2022-05-08T19:53:53.533Z</time>
      </trkpt>
      <trkpt lat="46.88929" lon="-1.83392">
        <ele>25.987637</ele>
        <time>2022-05-08T19:53:55.074Z</time>
      </trkpt>
      <trkpt lat="46.88924" lon="-1.83386">
        <ele>25.898636</ele>
        <time>2022-05-08T19:53:56.077Z</time>
      </trkpt>
      <trkpt lat="46.88905" lon="-1.83396">
        <ele>25.623217</ele>
        <time>2022-05-08T19:53:58.999Z</time>
      </trkpt>
      <trkpt lat="46.88884" lon="-1.83419">
        <ele>25.277203</ele>
        <time>2022-05-08T19:54:02.835Z</time>
      </trkpt>
      <trkpt lat="46.88847" lon="-1.83461">
        <ele>24.633464</ele>
        <time>2022-05-08T19:54:09.993Z</time>
      </trkpt>
      <trkpt lat="46.88802" lon="-1.83504">
        <ele>23.904145</ele>
        <time>2022-05-08T19:54:18.692Z</time>
      </trkpt>
      <trkpt lat="46.88794" lon="-1.83512">
        <ele>23.774005</ele>
        <time>2022-05-08T19:54:20.308Z</time>
      </trkpt>
      <trkpt lat="46.88763" lon="-1.83545">
        <ele>23.71347</ele>
        <time>2022-05-08T19:54:26.969Z</time>
      </trkpt>
      <trkpt lat="46.88751" lon="-1.8356">
        <ele>23.720464</ele>
        <time>2022-05-08T19:54:30.074Z</time>
      </trkpt>
      <trkpt lat="46.88641" lon="-1.8368">
        <ele>23.764132</ele>
        <time>2022-05-08T19:54:55.889Z</time>
      </trkpt>
      <trkpt lat="46.88631" lon="-1.8369">
        <ele>23.742286</ele>
        <time>2022-05-08T19:54:58.028Z</time>
      </trkpt>
      <trkpt lat="46.88582" lon="-1.83744">
        <ele>23.623038</ele>
        <time>2022-05-08T19:55:08.410Z</time>
      </trkpt>
      <trkpt lat="46.8857" lon="-1.83761">
        <ele>23.590303</ele>
        <time>2022-05-08T19:55:11.220Z</time>
      </trkpt>
      <trkpt lat="46.88569" lon="-1.83778">
        <ele>23.567311</ele>
        <time>2022-05-08T19:55:13.138Z</time>
      </trkpt>
      <trkpt lat="46.88558" lon="-1.83775">
        <ele>23.546199</ele>
        <time>2022-05-08T19:55:15.048Z</time>
      </trkpt>
      <trkpt lat="46.88556" lon="-1.83767">
        <ele>23.535327</ele>
        <time>2022-05-08T19:55:16.138Z</time>
      </trkpt>
      <trkpt lat="46.88552" lon="-1.83765">
        <ele>23.526426</ele>
        <time>2022-05-08T19:55:16.804Z</time>
      </trkpt>
      <trkpt lat="46.88294" lon="-1.84051">
        <ele>23.63525</ele>
        <time>2022-05-08T19:56:14.456Z</time>
      </trkpt>
      <trkpt lat="46.88248" lon="-1.84102">
        <ele>23.782785</ele>
        <time>2022-05-08T19:56:26.364Z</time>
      </trkpt>
      <trkpt lat="46.87951" lon="-1.84427">
        <ele>24.708528</ele>
        <time>2022-05-08T19:57:37.105Z</time>
      </trkpt>
      <trkpt lat="46.8794" lon="-1.84422">
        <ele>24.724333</ele>
        <time>2022-05-08T19:57:39.014Z</time>
      </trkpt>
      <trkpt lat="46.87934" lon="-1.84426">
        <ele>24.733347</ele>
        <time>2022-05-08T19:57:40.152Z</time>
      </trkpt>
      <trkpt lat="46.87921" lon="-1.84459">
        <ele>24.49001</ele>
        <time>2022-05-08T19:57:44.503Z</time>
      </trkpt>
      <trkpt lat="46.87595" lon="-1.84815">
        <ele>20.190158</ele>
        <time>2022-05-08T19:58:48.160Z</time>
      </trkpt>
      <trkpt lat="46.87545" lon="-1.84869">
        <ele>19.541536</ele>
        <time>2022-05-08T19:58:58.226Z</time>
      </trkpt>
      <trkpt lat="46.874" lon="-1.85027">
        <ele>18.039443</ele>
        <time>2022-05-08T19:59:27.172Z</time>
      </trkpt>
      <trkpt lat="46.87269" lon="-1.85169">
        <ele>17.983228</ele>
        <time>2022-05-08T19:59:54.999Z</time>
      </trkpt>
      <trkpt lat="46.86956" lon="-1.85513">
        <ele>21.97291</ele>
        <time>2022-05-08T20:01:25.029Z</time>
      </trkpt>
      <trkpt lat="46.86497" lon="-1.86014">
        <ele>22.091577</ele>
        <time>2022-05-08T20:03:07.123Z</time>
      </trkpt>
      <trkpt lat="46.86447" lon="-1.86064">
        <ele>21.494572</ele>
        <time>2022-05-08T20:03:16.397Z</time>
      </trkpt>
      <trkpt lat="46.86423" lon="-1.86087">
        <ele>21.209087</ele>
        <time>2022-05-08T20:03:20.929Z</time>
      </trkpt>
      <trkpt lat="46.86407" lon="-1.86116">
        <ele>20.956451</ele>
        <time>2022-05-08T20:03:24.988Z</time>
      </trkpt>
      <trkpt lat="46.86396" lon="-1.86138">
        <ele>20.773456</ele>
        <time>2022-05-08T20:03:28.221Z</time>
      </trkpt>
      <trkpt lat="46.86362" lon="-1.86155">
        <ele>20.412822</ele>
        <time>2022-05-08T20:03:34.670Z</time>
      </trkpt>
      <trkpt lat="46.8632" lon="-1.86178">
        <ele>20.045641</ele>
        <time>2022-05-08T20:03:42.620Z</time>
      </trkpt>
      <trkpt lat="46.86315" lon="-1.86185">
        <ele>19.991363</ele>
        <time>2022-05-08T20:03:43.914Z</time>
      </trkpt>
      <trkpt lat="46.86317" lon="-1.8622">
        <ele>19.797004</ele>
        <time>2022-05-08T20:03:48.268Z</time>
      </trkpt>
      <trkpt lat="46.86284" lon="-1.86256">
        <ele>19.467899</ele>
        <time>2022-05-08T20:03:55.993Z</time>
      </trkpt>
      <trkpt lat="46.86131" lon="-1.86419">
        <ele>17.927957</ele>
        <time>2022-05-08T20:04:30.594Z</time>
      </trkpt>
      <trkpt lat="46.86134" lon="-1.86426">
        <ele>17.883368</ele>
        <time>2022-05-08T20:04:31.591Z</time>
      </trkpt>
      <trkpt lat="46.86144" lon="-1.86433">
        <ele>17.790169</ele>
        <time>2022-05-08T20:04:33.496Z</time>
      </trkpt>
      <trkpt lat="46.86172" lon="-1.86415">
        <ele>17.53688</ele>
        <time>2022-05-08T20:04:38.940Z</time>
      </trkpt>
      <trkpt lat="46.86193" lon="-1.86414">
        <ele>17.362918</ele>
        <time>2022-05-08T20:04:42.589Z</time>
      </trkpt>
      <trkpt lat="46.86249" lon="-1.86479">
        <ele>16.756091</ele>
        <time>2022-05-08T20:04:55.290Z</time>
      </trkpt>
      <trkpt lat="46.86294" lon="-1.86504">
        <ele>16.347727</ele>
        <time>2022-05-08T20:05:03.940Z</time>
      </trkpt>
      <trkpt lat="46.86306" lon="-1.86521">
        <ele>16.205098</ele>
        <time>2022-05-08T20:05:06.967Z</time>
      </trkpt>
      <trkpt lat="46.86323" lon="-1.86607">
        <ele>15.929646</ele>
        <time>2022-05-08T20:05:18.551Z</time>
      </trkpt>
      <trkpt lat="46.86327" lon="-1.86672">
        <ele>15.956168</ele>
        <time>2022-05-08T20:05:27.591Z</time>
      </trkpt>
      <trkpt lat="46.8632" lon="-1.86714">
        <ele>15.973831</ele>
        <time>2022-05-08T20:05:33.404Z</time>
      </trkpt>
      <trkpt lat="46.86293" lon="-1.86734">
        <ele>15.991896</ele>
        <time>2022-05-08T20:05:39.436Z</time>
      </trkpt>
      <trkpt lat="46.86289" lon="-1.86747">
        <ele>15.997649</ele>
        <time>2022-05-08T20:05:42.042Z</time>
      </trkpt>
      <trkpt lat="46.86291" lon="-1.8676">
        <ele>16.003229</ele>
        <time>2022-05-08T20:05:43.947Z</time>
      </trkpt>
      <trkpt lat="46.86312" lon="-1.86767">
        <ele>16.015762</ele>
        <time>2022-05-08T20:05:48.101Z</time>
      </trkpt>
      <trkpt lat="46.86312" lon="-1.86785">
        <ele>16.033354</ele>
        <time>2022-05-08T20:05:50.976Z</time>
      </trkpt>
      <trkpt lat="46.86295" lon="-1.86867">
        <ele>16.232429</ele>
        <time>2022-05-08T20:06:03.093Z</time>
      </trkpt>
      <trkpt lat="46.86263" lon="-1.86923">
        <ele>16.400438</ele>
        <time>2022-05-08T20:06:14.204Z</time>
      </trkpt>
      <trkpt lat="46.86259" lon="-1.86944">
        <ele>16.448842</ele>
        <time>2022-05-08T20:06:17.013Z</time>
      </trkpt>
      <trkpt lat="46.86225" lon="-1.87119">
        <ele>16.746753</ele>
        <time>2022-05-08T20:06:42.916Z</time>
      </trkpt>
      <trkpt lat="46.86215" lon="-1.87193">
        <ele>16.831847</ele>
        <time>2022-05-08T20:06:53.422Z</time>
      </trkpt>
      <trkpt lat="46.86199" lon="-1.87266">
        <ele>16.91884</ele>
        <time>2022-05-08T20:07:03.923Z</time>
      </trkpt>
      <trkpt lat="46.86191" lon="-1.8734">
        <ele>16.795066</ele>
        <time>2022-05-08T20:07:14.508Z</time>
      </trkpt>
      <trkpt lat="46.86167" lon="-1.87457">
        <ele>16.560692</ele>
        <time>2022-05-08T20:07:30.716Z</time>
      </trkpt>
      <trkpt lat="46.86165" lon="-1.87463">
        <ele>16.548573</ele>
        <time>2022-05-08T20:07:31.544Z</time>
      </trkpt>
      <trkpt lat="46.86134" lon="-1.87493">
        <ele>16.444914</ele>
        <time>2022-05-08T20:07:38.431Z</time>
      </trkpt>
      <trkpt lat="46.86122" lon="-1.87526">
        <ele>16.190615</ele>
        <time>2022-05-08T20:07:43.063Z</time>
      </trkpt>
      <trkpt lat="46.86048" lon="-1.87677">
        <ele>14.52897</ele>
        <time>2022-05-08T20:08:05.169Z</time>
      </trkpt>
      <trkpt lat="46.86023" lon="-1.87709">
        <ele>14.08966</ele>
        <time>2022-05-08T20:08:10.804Z</time>
      </trkpt>
      <trkpt lat="46.85982" lon="-1.87742">
        <ele>13.207615</ele>
        <time>2022-05-08T20:08:18.428Z</time>
      </trkpt>
      <trkpt lat="46.8598" lon="-1.87745">
        <ele>13.146844</ele>
        <time>2022-05-08T20:08:18.961Z</time>
      </trkpt>
      <trkpt lat="46.85956" lon="-1.87817">
        <ele>12.091149</ele>
        <time>2022-05-08T20:08:27.898Z</time>
      </trkpt>
      <trkpt lat="46.85835" lon="-1.87968">
        <ele>9.558477</ele>
        <time>2022-05-08T20:08:54.604Z</time>
      </trkpt>
      <trkpt lat="46.85773" lon="-1.88011">
        <ele>8.693808</ele>
        <time>2022-05-08T20:09:06.911Z</time>
      </trkpt>
      <trkpt lat="46.85757" lon="-1.88036">
        <ele>8.40087</ele>
        <time>2022-05-08T20:09:11.110Z</time>
      </trkpt>
      <trkpt lat="46.85747" lon="-1.88036">
        <ele>8.304652</ele>
        <time>2022-05-08T20:09:12.922Z</time>
      </trkpt>
      <trkpt lat="46.8572" lon="-1.88008">
        <ele>8.126812</ele>
        <time>2022-05-08T20:09:19.102Z</time>
      </trkpt>
      <trkpt lat="46.85715" lon="-1.88007">
        <ele>8.101522</ele>
        <time>2022-05-08T20:09:19.901Z</time>
      </trkpt>
      <trkpt lat="46.85706" lon="-1.88008">
        <ele>8.049389</ele>
        <time>2022-05-08T20:09:21.544Z</time>
      </trkpt>
      <trkpt lat="46.85685" lon="-1.88007">
        <ele>7.936682</ele>
        <time>2022-05-08T20:09:25.109Z</time>
      </trkpt>
      <trkpt lat="46.85678" lon="-1.88003">
        <ele>7.898345</ele>
        <time>2022-05-08T20:09:26.361Z</time>
      </trkpt>
      <trkpt lat="46.85651" lon="-1.88087">
        <ele>7.559669</ele>
        <time>2022-05-08T20:09:37.012Z</time>
      </trkpt>
      <trkpt lat="46.85649" lon="-1.88096">
        <ele>7.524404</ele>
        <time>2022-05-08T20:09:38.122Z</time>
      </trkpt>
      <trkpt lat="46.8565" lon="-1.88102">
        <ele>7.501743</ele>
        <time>2022-05-08T20:09:38.840Z</time>
      </trkpt>
      <trkpt lat="46.85677" lon="-1.88112">
        <ele>7.353257</ele>
        <time>2022-05-08T20:09:43.341Z</time>
      </trkpt>
      <trkpt lat="46.85687" lon="-1.88137">
        <ele>7.168923</ele>
        <time>2022-05-08T20:09:46.615Z</time>
      </trkpt>
      <trkpt lat="46.85695" lon="-1.88152">
        <ele>7.048828</ele>
        <time>2022-05-08T20:09:48.689Z</time>
      </trkpt>
      <trkpt lat="46.85716" lon="-1.88172">
        <ele>6.812237</ele>
        <time>2022-05-08T20:09:52.770Z</time>
      </trkpt>
      <trkpt lat="46.8571" lon="-1.88217">
        <ele>6.51839</ele>
        <time>2022-05-08T20:09:57.740Z</time>
      </trkpt>
      <trkpt lat="46.8568" lon="-1.8841">
        <ele>5.319216</ele>
        <time>2022-05-08T20:10:21.777Z</time>
      </trkpt>
      <trkpt lat="46.85661" lon="-1.88452">
        <ele>5.046712</ele>
        <time>2022-05-08T20:10:27.950Z</time>
      </trkpt>
      <trkpt lat="46.8564" lon="-1.88491">
        <ele>4.777804</ele>
        <time>2022-05-08T20:10:34.076Z</time>
      </trkpt>
      <trkpt lat="46.8563" lon="-1.88523">
        <ele>4.586082</ele>
        <time>2022-05-08T20:10:38.496Z</time>
      </trkpt>
      <trkpt lat="46.85634" lon="-1.88553">
        <ele>4.420395</ele>
        <time>2022-05-08T20:10:42.428Z</time>
      </trkpt>
      <trkpt lat="46.85621" lon="-1.88584">
        <ele>4.248374</ele>
        <time>2022-05-08T20:10:47.140Z</time>
      </trkpt>
      <trkpt lat="46.85618" lon="-1.88602">
        <ele>4.225666</ele>
        <time>2022-05-08T20:10:49.421Z</time>
      </trkpt>
      <trkpt lat="46.85632" lon="-1.88643">
        <ele>4.166372</ele>
        <time>2022-05-08T20:10:55.454Z</time>
      </trkpt>
      <trkpt lat="46.85627" lon="-1.88667">
        <ele>4.134082</ele>
        <time>2022-05-08T20:10:58.714Z</time>
      </trkpt>
      <trkpt lat="46.85622" lon="-1.88676">
        <ele>4.119477</ele>
        <time>2022-05-08T20:11:00.331Z</time>
      </trkpt>
      <trkpt lat="46.8563" lon="-1.88709">
        <ele>4.074486</ele>
        <time>2022-05-08T20:11:04.964Z</time>
      </trkpt>
      <trkpt lat="46.85622" lon="-1.88732">
        <ele>4.04062</ele>
        <time>2022-05-08T20:11:08.548Z</time>
      </trkpt>
      <trkpt lat="46.85616" lon="-1.88764">
        <ele>3.998698</ele>
        <time>2022-05-08T20:11:12.797Z</time>
      </trkpt>
      <trkpt lat="46.85603" lon="-1.88797">
        <ele>3.948956</ele>
        <time>2022-05-08T20:11:17.972Z</time>
      </trkpt>
      <trkpt lat="46.85601" lon="-1.88835">
        <ele>3.910095</ele>
        <time>2022-05-08T20:11:23.032Z</time>
      </trkpt>
      <trkpt lat="46.85584" lon="-1.88903">
        <ele>3.868465</ele>
        <time>2022-05-08T20:11:32.733Z</time>
      </trkpt>
      <trkpt lat="46.85575" lon="-1.88924">
        <ele>3.854351</ele>
        <time>2022-05-08T20:11:36.053Z</time>
      </trkpt>
      <trkpt lat="46.85554" lon="-1.88954">
        <ele>3.829063</ele>
        <time>2022-05-08T20:11:41.932Z</time>
      </trkpt>
      <trkpt lat="46.85562" lon="-1.8897">
        <ele>3.817293</ele>
        <time>2022-05-08T20:11:44.653Z</time>
      </trkpt>
      <trkpt lat="46.85579" lon="-1.8898">
        <ele>3.801884</ele>
        <time>2022-05-08T20:11:48.233Z</time>
      </trkpt>
      <trkpt lat="46.85582" lon="-1.89002">
        <ele>3.788967</ele>
        <time>2022-05-08T20:11:51.211Z</time>
      </trkpt>
      <trkpt lat="46.85581" lon="-1.89014">
        <ele>3.781598</ele>
        <time>2022-05-08T20:11:52.927Z</time>
      </trkpt>
      <trkpt lat="46.85574" lon="-1.89112">
        <ele>3.791191</ele>
        <time>2022-05-08T20:12:05.969Z</time>
      </trkpt>
      <trkpt lat="46.85537" lon="-1.89352">
        <ele>3.923227</ele>
        <time>2022-05-08T20:12:40.072Z</time>
      </trkpt>
      <trkpt lat="46.85534" lon="-1.89367">
        <ele>3.941319</ele>
        <time>2022-05-08T20:12:42.278Z</time>
      </trkpt>
      <trkpt lat="46.85491" lon="-1.89619">
        <ele>3.988334</ele>
        <time>2022-05-08T20:13:18.957Z</time>
      </trkpt>
      <trkpt lat="46.85491" lon="-1.89623">
        <ele>3.976892</ele>
        <time>2022-05-08T20:13:19.546Z</time>
      </trkpt>
      <trkpt lat="46.85491" lon="-1.89633">
        <ele>3.950184</ele>
        <time>2022-05-08T20:13:20.835Z</time>
      </trkpt>
      <trkpt lat="46.85488" lon="-1.89641">
        <ele>3.923868</ele>
        <time>2022-05-08T20:13:21.961Z</time>
      </trkpt>
      <trkpt lat="46.85496" lon="-1.89648">
        <ele>3.883912</ele>
        <time>2022-05-08T20:13:23.627Z</time>
      </trkpt>
      <trkpt lat="46.85496" lon="-1.89674">
        <ele>3.815245</ele>
        <time>2022-05-08T20:13:26.762Z</time>
      </trkpt>
      <trkpt lat="46.85501" lon="-1.89676">
        <ele>3.795052</ele>
        <time>2022-05-08T20:13:27.564Z</time>
      </trkpt>
      <trkpt lat="46.85545" lon="-1.89691">
        <ele>3.615465</ele>
        <time>2022-05-08T20:13:35.024Z</time>
      </trkpt>
      <trkpt lat="46.85549" lon="-1.89694">
        <ele>3.596797</ele>
        <time>2022-05-08T20:13:35.778Z</time>
      </trkpt>
      <trkpt lat="46.85528" lon="-1.89847">
        <ele>2.838773</ele>
        <time>2022-05-08T20:13:52.535Z</time>
      </trkpt>
      <trkpt lat="46.85489" lon="-1.90007">
        <ele>1.862515</ele>
        <time>2022-05-08T20:14:11.378Z</time>
      </trkpt>
      <trkpt lat="46.85455" lon="-1.90121">
        <ele>1.53073</ele>
        <time>2022-05-08T20:14:25.428Z</time>
      </trkpt>
      <trkpt lat="46.85387" lon="-1.90306">
        <ele>1.204529</ele>
        <time>2022-05-08T20:14:50.505Z</time>
      </trkpt>
      <trkpt lat="46.85297" lon="-1.90498">
        <ele>1.256029</ele>
        <time>2022-05-08T20:15:19.670Z</time>
      </trkpt>
      <trkpt lat="46.85151" lon="-1.90755">
        <ele>1.183927</ele>
        <time>2022-05-08T20:16:00.639Z</time>
      </trkpt>
      <trkpt lat="46.85157" lon="-1.90785">
        <ele>1.154588</ele>
        <time>2022-05-08T20:16:04.346Z</time>
      </trkpt>
      <trkpt lat="46.85129" lon="-1.90818">
        <ele>1.103957</ele>
        <time>2022-05-08T20:16:10.674Z</time>
      </trkpt>
      <trkpt lat="46.85072" lon="-1.90912">
        <ele>0.84216</ele>
        <time>2022-05-08T20:16:25.206Z</time>
      </trkpt>
      <trkpt lat="46.85014" lon="-1.91022">
        <ele>0.430705</ele>
        <time>2022-05-08T20:16:41.041Z</time>
      </trkpt>
      <trkpt lat="46.85003" lon="-1.9103">
        <ele>0.377662</ele>
        <time>2022-05-08T20:16:43.063Z</time>
      </trkpt>
      <trkpt lat="46.85" lon="-1.91031">
        <ele>0.363716</ele>
        <time>2022-05-08T20:16:43.619Z</time>
      </trkpt>
      <trkpt lat="46.84972" lon="-1.91047">
        <ele>0.256446</ele>
        <time>2022-05-08T20:16:48.730Z</time>
      </trkpt>
      <trkpt lat="46.84917" lon="-1.91114">
        <ele>0.14957</ele>
        <time>2022-05-08T20:17:01.018Z</time>
      </trkpt>
      <trkpt lat="46.84811" lon="-1.91229">
        <ele>-0.015283</ele>
        <time>2022-05-08T20:17:24.497Z</time>
      </trkpt>
      <trkpt lat="46.84713" lon="-1.91312">
        <ele>-0.06953</ele>
        <time>2022-05-08T20:17:44.697Z</time>
      </trkpt>
      <trkpt lat="46.84006" lon="-1.91874">
        <ele>-1.458314</ele>
        <time>2022-05-08T20:20:04.330Z</time>
      </trkpt>
      <trkpt lat="46.83886" lon="-1.91958">
        <ele>-1.382975</ele>
        <time>2022-05-08T20:20:28.377Z</time>
      </trkpt>
      <trkpt lat="46.838" lon="-1.92007">
        <ele>-1.155848</ele>
        <time>2022-05-08T20:20:45.728Z</time>
      </trkpt>
      <trkpt lat="46.83766" lon="-1.92026">
        <ele>-1.065898</ele>
        <time>2022-05-08T20:20:52.680Z</time>
      </trkpt>
      <trkpt lat="46.83752" lon="-1.92032">
        <ele>-1.02998</ele>
        <time>2022-05-08T20:20:55.512Z</time>
      </trkpt>
      <trkpt lat="46.83679" lon="-1.92058">
        <ele>-0.793857</ele>
        <time>2022-05-08T20:21:10.588Z</time>
      </trkpt>
      <trkpt lat="46.8354" lon="-1.92097">
        <ele>-0.276721</ele>
        <time>2022-05-08T20:21:38.922Z</time>
      </trkpt>
      <trkpt lat="46.83512" lon="-1.92074">
        <ele>-0.183979</ele>
        <time>2022-05-08T20:21:44.986Z</time>
      </trkpt>
      <trkpt lat="46.8335" lon="-1.9208">
        <ele>0.264386</ele>
        <time>2022-05-08T20:22:15.821Z</time>
      </trkpt>
      <trkpt lat="46.83344" lon="-1.9208">
        <ele>0.271809</ele>
        <time>2022-05-08T20:22:16.856Z</time>
      </trkpt>
      <trkpt lat="46.83285" lon="-1.92075">
        <ele>0.350165</ele>
        <time>2022-05-08T20:22:27.441Z</time>
      </trkpt>
      <trkpt lat="46.83275" lon="-1.92058">
        <ele>0.371169</ele>
        <time>2022-05-08T20:22:30.315Z</time>
      </trkpt>
      <trkpt lat="46.83265" lon="-1.92057">
        <ele>0.38403</ele>
        <time>2022-05-08T20:22:32.048Z</time>
      </trkpt>
      <trkpt lat="46.83259" lon="-1.92088">
        <ele>0.413246</ele>
        <time>2022-05-08T20:22:36.061Z</time>
      </trkpt>
      <trkpt lat="46.83235" lon="-1.92222">
        <ele>0.656983</ele>
        <time>2022-05-08T20:22:58.910Z</time>
      </trkpt>
      <trkpt lat="46.83166" lon="-1.92613">
        <ele>1.755206</ele>
        <time>2022-05-08T20:23:53.633Z</time>
      </trkpt>
      <trkpt lat="46.83114" lon="-1.92888">
        <ele>2.040232</ele>
        <time>2022-05-08T20:24:29.102Z</time>
      </trkpt>
      <trkpt lat="46.83047" lon="-1.93246">
        <ele>1.812188</ele>
        <time>2022-05-08T20:25:13.741Z</time>
      </trkpt>
      <trkpt lat="46.83027" lon="-1.93353">
        <ele>1.64176</ele>
        <time>2022-05-08T20:25:26.730Z</time>
      </trkpt>
      <trkpt lat="46.82829" lon="-1.944">
        <ele>0.470357</ele>
        <time>2022-05-08T20:27:35.931Z</time>
      </trkpt>
      <trkpt lat="46.82421" lon="-1.96587">
        <ele>1.044188</ele>
        <time>2022-05-08T20:32:15.033Z</time>
      </trkpt>
      <trkpt lat="46.82285" lon="-1.9732">
        <ele>0.477572</ele>
        <time>2022-05-08T20:33:45.464Z</time>
      </trkpt>
      <trkpt lat="46.82052" lon="-1.9856">
        <ele>2.255822</ele>
        <time>2022-05-08T20:36:31.504Z</time>
      </trkpt>
      <trkpt lat="46.81986" lon="-1.98912">
        <ele>1.298075</ele>
        <time>2022-05-08T20:37:12.669Z</time>
      </trkpt>
      <trkpt lat="46.81983" lon="-1.98967">
        <ele>1.154748</ele>
        <time>2022-05-08T20:37:19.232Z</time>
      </trkpt>
      <trkpt lat="46.81978" lon="-1.98967">
        <ele>1.135769</ele>
        <time>2022-05-08T20:37:20.109Z</time>
      </trkpt>
      <trkpt lat="46.81971" lon="-1.98965">
        <ele>1.108411</ele>
        <time>2022-05-08T20:37:21.359Z</time>
      </trkpt>
      <trkpt lat="46.81968" lon="-1.98983">
        <ele>1.059481</ele>
        <time>2022-05-08T20:37:23.701Z</time>
      </trkpt>
      <trkpt lat="46.81952" lon="-1.99071">
        <ele>1.240597</ele>
        <time>2022-05-08T20:37:35.218Z</time>
      </trkpt>
      <trkpt lat="46.81918" lon="-1.99253">
        <ele>1.649214</ele>
        <time>2022-05-08T20:38:00.690Z</time>
      </trkpt>
      <trkpt lat="46.81913" lon="-1.99288">
        <ele>1.68626</ele>
        <time>2022-05-08T20:38:05.333Z</time>
      </trkpt>
      <trkpt lat="46.81914" lon="-1.99291">
        <ele>1.689797</ele>
        <time>2022-05-08T20:38:05.783Z</time>
      </trkpt>
      <trkpt lat="46.8191" lon="-1.99307">
        <ele>1.707685</ele>
        <time>2022-05-08T20:38:08.010Z</time>
      </trkpt>
      <trkpt lat="46.81906" lon="-1.9931">
        <ele>1.715191</ele>
        <time>2022-05-08T20:38:08.926Z</time>
      </trkpt>
      <trkpt lat="46.81897" lon="-1.99324">
        <ele>1.735986</ele>
        <time>2022-05-08T20:38:11.481Z</time>
      </trkpt>
      <trkpt lat="46.81879" lon="-1.99368">
        <ele>1.789252</ele>
        <time>2022-05-08T20:38:18.149Z</time>
      </trkpt>
      <trkpt lat="46.81822" lon="-1.99504">
        <ele>1.842214</ele>
        <time>2022-05-08T20:38:37.361Z</time>
      </trkpt>
      <trkpt lat="46.81796" lon="-1.99566">
        <ele>1.72515</ele>
        <time>2022-05-08T20:38:46.252Z</time>
      </trkpt>
      <trkpt lat="46.81806" lon="-1.99577">
        <ele>1.694867</ele>
        <time>2022-05-08T20:38:48.442Z</time>
      </trkpt>
      <trkpt lat="46.81817" lon="-1.99618">
        <ele>1.623681</ele>
        <time>2022-05-08T20:38:53.815Z</time>
      </trkpt>
      <trkpt lat="46.81702" lon="-1.99933">
        <ele>1.144827</ele>
        <time>2022-05-08T20:39:37.995Z</time>
      </trkpt>
      <trkpt lat="46.81687" lon="-1.99945">
        <ele>1.125487</ele>
        <time>2022-05-08T20:39:41.129Z</time>
      </trkpt>
      <trkpt lat="46.81679" lon="-1.99967">
        <ele>1.105827</ele>
        <time>2022-05-08T20:39:44.386Z</time>
      </trkpt>
      <trkpt lat="46.81645" lon="-1.99945">
        <ele>1.063898</ele>
        <time>2022-05-08T20:39:51.235Z</time>
      </trkpt>
      <trkpt lat="46.81502" lon="-2.00279">
        <ele>0.773556</ele>
        <time>2022-05-08T20:40:40.197Z</time>
      </trkpt>
      <trkpt lat="46.80846" lon="-2.01844">
        <ele>2.203793</ele>
        <time>2022-05-08T20:44:38.808Z</time>
      </trkpt>
      <trkpt lat="46.80842" lon="-2.01867">
        <ele>2.223278</ele>
        <time>2022-05-08T20:44:41.970Z</time>
      </trkpt>
      <trkpt lat="46.80843" lon="-2.01896">
        <ele>2.201703</ele>
        <time>2022-05-08T20:44:45.851Z</time>
      </trkpt>
      <trkpt lat="46.80841" lon="-2.019">
        <ele>2.197263</ele>
        <time>2022-05-08T20:44:46.600Z</time>
      </trkpt>
      <trkpt lat="46.80824" lon="-2.01907">
        <ele>2.177428</ele>
        <time>2022-05-08T20:44:49.898Z</time>
      </trkpt>
      <trkpt lat="46.80809" lon="-2.01932">
        <ele>2.151647</ele>
        <time>2022-05-08T20:44:54.125Z</time>
      </trkpt>
      <trkpt lat="46.80776" lon="-2.02019">
        <ele>2.07365</ele>
        <time>2022-05-08T20:45:05.989Z</time>
      </trkpt>
      <trkpt lat="46.8076" lon="-2.0204">
        <ele>2.048489</ele>
        <time>2022-05-08T20:45:09.741Z</time>
      </trkpt>
      <trkpt lat="46.80686" lon="-2.02214">
        <ele>1.661949</ele>
        <time>2022-05-08T20:45:33.256Z</time>
      </trkpt>
      <trkpt lat="46.80491" lon="-2.02679">
        <ele>1.356881</ele>
        <time>2022-05-08T20:46:39.104Z</time>
      </trkpt>
      <trkpt lat="46.80451" lon="-2.02776">
        <ele>1.389584</ele>
        <time>2022-05-08T20:46:53.827Z</time>
      </trkpt>
      <trkpt lat="46.79878" lon="-2.04133">
        <ele>1.78667</ele>
        <time>2022-05-08T20:50:09.177Z</time>
      </trkpt>
      <trkpt lat="46.79855" lon="-2.04188">
        <ele>1.805595</ele>
        <time>2022-05-08T20:50:16.897Z</time>
      </trkpt>
      <trkpt lat="46.79811" lon="-2.0429">
        <ele>1.840795</ele>
        <time>2022-05-08T20:50:31.619Z</time>
      </trkpt>
      <trkpt lat="46.79711" lon="-2.04529">
        <ele>2.551733</ele>
        <time>2022-05-08T20:51:09.101Z</time>
      </trkpt>
      <trkpt lat="46.79709" lon="-2.04551">
        <ele>2.586003</ele>
        <time>2022-05-08T20:51:12.384Z</time>
      </trkpt>
      <trkpt lat="46.797" lon="-2.04577">
        <ele>2.616237</ele>
        <time>2022-05-08T20:51:16.571Z</time>
      </trkpt>
      <trkpt lat="46.79713" lon="-2.04659">
        <ele>2.70162</ele>
        <time>2022-05-08T20:51:28.513Z</time>
      </trkpt>
      <trkpt lat="46.79711" lon="-2.04686">
        <ele>2.729109</ele>
        <time>2022-05-08T20:51:32.300Z</time>
      </trkpt>
      <trkpt lat="46.79704" lon="-2.04694">
        <ele>2.743218</ele>
        <time>2022-05-08T20:51:34.237Z</time>
      </trkpt>
      <trkpt lat="46.79698" lon="-2.04701">
        <ele>2.754452</ele>
        <time>2022-05-08T20:51:35.716Z</time>
      </trkpt>
      <trkpt lat="46.79694" lon="-2.04706">
        <ele>2.762316</ele>
        <time>2022-05-08T20:51:36.747Z</time>
      </trkpt>
      <trkpt lat="46.79669" lon="-2.04713">
        <ele>2.799822</ele>
        <time>2022-05-08T20:51:41.782Z</time>
      </trkpt>
      <trkpt lat="46.79643" lon="-2.04731">
        <ele>2.837386</ele>
        <time>2022-05-08T20:51:47.362Z</time>
      </trkpt>
      <trkpt lat="46.79608" lon="-2.04818">
        <ele>2.82915</ele>
        <time>2022-05-08T20:52:00.780Z</time>
      </trkpt>
      <trkpt lat="46.79601" lon="-2.04838">
        <ele>2.827328</ele>
        <time>2022-05-08T20:52:03.506Z</time>
      </trkpt>
      <trkpt lat="46.79595" lon="-2.04853">
        <ele>2.82591</ele>
        <time>2022-05-08T20:52:07.071Z</time>
      </trkpt>
      <trkpt lat="46.7959" lon="-2.04875">
        <ele>2.824015</ele>
        <time>2022-05-08T20:52:09.991Z</time>
      </trkpt>
      <trkpt lat="46.79588" lon="-2.0488">
        <ele>2.823525</ele>
        <time>2022-05-08T20:52:10.742Z</time>
      </trkpt>
      <trkpt lat="46.79586" lon="-2.04884">
        <ele>2.823153</ele>
        <time>2022-05-08T20:52:11.321Z</time>
      </trkpt>
      <trkpt lat="46.79572" lon="-2.04888">
        <ele>2.82149</ele>
        <time>2022-05-08T20:52:14.076Z</time>
      </trkpt>
      <trkpt lat="46.79568" lon="-2.04895">
        <ele>2.820762</ele>
        <time>2022-05-08T20:52:15.228Z</time>
      </trkpt>
      <trkpt lat="46.79525" lon="-2.04999">
        <ele>3.005341</ele>
        <time>2022-05-08T20:52:31.538Z</time>
      </trkpt>
      <trkpt lat="46.79522" lon="-2.05023">
        <ele>3.074681</ele>
        <time>2022-05-08T20:52:35.024Z</time>
      </trkpt>
      <trkpt lat="46.79516" lon="-2.05041">
        <ele>3.131242</ele>
        <time>2022-05-08T20:52:37.774Z</time>
      </trkpt>
      <trkpt lat="46.795" lon="-2.05051">
        <ele>3.198585</ele>
        <time>2022-05-08T20:52:41.199Z</time>
      </trkpt>
      <trkpt lat="46.79444" lon="-2.05181">
        <ele>3.607023</ele>
        <time>2022-05-08T20:53:02.690Z</time>
      </trkpt>
      <trkpt lat="46.79445" lon="-2.05196">
        <ele>3.640406</ele>
        <time>2022-05-08T20:53:04.877Z</time>
      </trkpt>
      <trkpt lat="46.79461" lon="-2.05212">
        <ele>3.701527</ele>
        <time>2022-05-08T20:53:08.963Z</time>
      </trkpt>
      <trkpt lat="46.79459" lon="-2.05219">
        <ele>3.717472</ele>
        <time>2022-05-08T20:53:10.099Z</time>
      </trkpt>
      <trkpt lat="46.7944" lon="-2.05221">
        <ele>3.778138</ele>
        <time>2022-05-08T20:53:13.873Z</time>
      </trkpt>
      <trkpt lat="46.79418" lon="-2.05233">
        <ele>3.855397</ele>
        <time>2022-05-08T20:53:18.634Z</time>
      </trkpt>
      <trkpt lat="46.7941" lon="-2.05255">
        <ele>3.909629</ele>
        <time>2022-05-08T20:53:21.871Z</time>
      </trkpt>
      <trkpt lat="46.794" lon="-2.05263">
        <ele>3.943121</ele>
        <time>2022-05-08T20:53:23.909Z</time>
      </trkpt>
      <trkpt lat="46.79394" lon="-2.05279">
        <ele>3.984048</ele>
        <time>2022-05-08T20:53:26.209Z</time>
      </trkpt>
      <trkpt lat="46.7939" lon="-2.05277">
        <ele>3.99842</ele>
        <time>2022-05-08T20:53:27.128Z</time>
      </trkpt>
      <trkpt lat="46.79362" lon="-2.05348">
        <ele>4.055775</ele>
        <time>2022-05-08T20:53:37.446Z</time>
      </trkpt>
      <trkpt lat="46.79269" lon="-2.05567">
        <ele>3.628735</ele>
        <time>2022-05-08T20:54:08.491Z</time>
      </trkpt>
      <trkpt lat="46.79254" lon="-2.05617">
        <ele>3.942015</ele>
        <time>2022-05-08T20:54:15.196Z</time>
      </trkpt>
      <trkpt lat="46.79252" lon="-2.05631">
        <ele>4.025169</ele>
        <time>2022-05-08T20:54:16.961Z</time>
      </trkpt>
      <trkpt lat="46.79247" lon="-2.05631">
        <ele>4.062557</ele>
        <time>2022-05-08T20:54:17.749Z</time>
      </trkpt>
      <trkpt lat="46.79244" lon="-2.05623">
        <ele>4.118466</ele>
        <time>2022-05-08T20:54:18.937Z</time>
      </trkpt>
      <trkpt lat="46.79233" lon="-2.05592">
        <ele>4.315111</ele>
        <time>2022-05-08T20:54:23.193Z</time>
      </trkpt>
      <trkpt lat="46.79228" lon="-2.05576">
        <ele>4.410991</ele>
        <time>2022-05-08T20:54:25.469Z</time>
      </trkpt>
      <trkpt lat="46.79135" lon="-2.05614">
        <ele>5.659257</ele>
        <time>2022-05-08T20:54:50.928Z</time>
      </trkpt>
      <trkpt lat="46.79121" lon="-2.05618">
        <ele>6.035266</ele>
        <time>2022-05-08T20:54:55.779Z</time>
      </trkpt>
      <trkpt lat="46.79107" lon="-2.05613">
        <ele>6.413854</ele>
        <time>2022-05-08T20:55:00.684Z</time>
      </trkpt>
      <trkpt lat="46.79099" lon="-2.05613">
        <ele>6.618355</ele>
        <time>2022-05-08T20:55:03.310Z</time>
      </trkpt>
      <trkpt lat="46.79097" lon="-2.05611">
        <ele>6.681952</ele>
        <time>2022-05-08T20:55:04.141Z</time>
      </trkpt>
      <trkpt lat="46.79073" lon="-2.0567">
        <ele>7.892594</ele>
        <time>2022-05-08T20:55:18.475Z</time>
      </trkpt>
      <trkpt lat="46.79047" lon="-2.05768">
        <ele>9.684963</ele>
        <time>2022-05-08T20:55:37.204Z</time>
      </trkpt>
      <trkpt lat="46.7904" lon="-2.05807">
        <ele>9.933022</ele>
        <time>2022-05-08T20:55:44.373Z</time>
      </trkpt>
      <trkpt lat="46.79039" lon="-2.05818">
        <ele>9.999998</ele>
        <time>2022-05-08T20:55:46.355Z</time>
      </trkpt>
      <trkpt lat="46.79038" lon="-2.05911">
        <ele>10.567436</ele>
        <time>2022-05-08T20:56:01.631Z</time>
      </trkpt>
      <trkpt lat="46.79038" lon="-2.05949">
        <ele>10.801097</ele>
        <time>2022-05-08T20:56:06.866Z</time>
      </trkpt>
      <trkpt lat="46.79038" lon="-2.05964">
        <ele>10.894438</ele>
        <time>2022-05-08T20:56:08.911Z</time>
      </trkpt>
      <trkpt lat="46.79039" lon="-2.05999">
        <ele>11.109202</ele>
        <time>2022-05-08T20:56:13.014Z</time>
      </trkpt>
      <trkpt lat="46.79039" lon="-2.06055">
        <ele>11.214169</ele>
        <time>2022-05-08T20:56:19.027Z</time>
      </trkpt>
      <trkpt lat="46.7904" lon="-2.06068">
        <ele>11.196614</ele>
        <time>2022-05-08T20:56:20.362Z</time>
      </trkpt>
      <trkpt lat="46.7904" lon="-2.06093">
        <ele>11.162743</ele>
        <time>2022-05-08T20:56:23.141Z</time>
      </trkpt>
      <trkpt lat="46.79038" lon="-2.06133">
        <ele>11.107279</ele>
        <time>2022-05-08T20:56:27.840Z</time>
      </trkpt>
      <trkpt lat="46.79037" lon="-2.06193">
        <ele>11.025395</ele>
        <time>2022-05-08T20:56:35.606Z</time>
      </trkpt>
      <trkpt lat="46.79042" lon="-2.06218">
        <ele>10.989477</ele>
        <time>2022-05-08T20:56:39.264Z</time>
      </trkpt>
      <trkpt lat="46.79052" lon="-2.06229">
        <ele>10.965779</ele>
        <time>2022-05-08T20:56:41.293Z</time>
      </trkpt>
      <trkpt lat="46.79056" lon="-2.06244">
        <ele>10.943009</ele>
        <time>2022-05-08T20:56:43.457Z</time>
      </trkpt>
      <trkpt lat="46.79053" lon="-2.06261">
        <ele>10.92019</ele>
        <time>2022-05-08T20:56:45.567Z</time>
      </trkpt>
      <trkpt lat="46.79049" lon="-2.06269">
        <ele>10.90535</ele>
        <time>2022-05-08T20:56:46.799Z</time>
      </trkpt>
      <trkpt lat="46.79046" lon="-2.06272">
        <ele>10.899123</ele>
        <time>2022-05-08T20:56:47.311Z</time>
      </trkpt>
      <trkpt lat="46.79034" lon="-2.06277">
        <ele>10.816884</ele>
        <time>2022-05-08T20:56:49.453Z</time>
      </trkpt>
      <trkpt lat="46.79028" lon="-2.06275">
        <ele>10.773452</ele>
        <time>2022-05-08T20:56:50.560Z</time>
      </trkpt>
      <trkpt lat="46.79026" lon="-2.06274">
        <ele>10.753681</ele>
        <time>2022-05-08T20:56:51.052Z</time>
      </trkpt>
      <trkpt lat="46.79023" lon="-2.06272">
        <ele>10.734075</ele>
        <time>2022-05-08T20:56:51.544Z</time>
      </trkpt>
      <trkpt lat="46.79018" lon="-2.0628">
        <ele>10.679383</ele>
        <time>2022-05-08T20:56:52.908Z</time>
      </trkpt>
      <trkpt lat="46.79004" lon="-2.06281">
        <ele>10.581946</ele>
        <time>2022-05-08T20:56:55.398Z</time>
      </trkpt>
      <trkpt lat="46.78999" lon="-2.06284">
        <ele>10.540925</ele>
        <time>2022-05-08T20:56:56.468Z</time>
      </trkpt>
      <trkpt lat="46.78865" lon="-2.06368">
        <ele>9.460226</ele>
        <time>2022-05-08T20:57:20.842Z</time>
      </trkpt>
      <trkpt lat="46.78849" lon="-2.06378">
        <ele>9.268603</ele>
        <time>2022-05-08T20:57:23.705Z</time>
      </trkpt>
      <trkpt lat="46.78479" lon="-2.06609">
        <ele>5.378861</ele>
        <time>2022-05-08T20:58:29.987Z</time>
      </trkpt>
      <trkpt lat="46.78472" lon="-2.0662">
        <ele>5.328114</ele>
        <time>2022-05-08T20:58:32.025Z</time>
      </trkpt>
      <trkpt lat="46.78469" lon="-2.06618">
        <ele>5.311355</ele>
        <time>2022-05-08T20:58:32.654Z</time>
      </trkpt>
      <trkpt lat="46.78465" lon="-2.06625">
        <ele>5.280799</ele>
        <time>2022-05-08T20:58:33.695Z</time>
      </trkpt>
      <trkpt lat="46.78456" lon="-2.06627">
        <ele>5.235825</ele>
        <time>2022-05-08T20:58:35.243Z</time>
      </trkpt>
      <trkpt lat="46.78449" lon="-2.06621">
        <ele>5.197925</ele>
        <time>2022-05-08T20:58:36.651Z</time>
      </trkpt>
      <trkpt lat="46.78446" lon="-2.0661">
        <ele>5.161563</ele>
        <time>2022-05-08T20:58:38.120Z</time>
      </trkpt>
      <trkpt lat="46.78447" lon="-2.06604">
        <ele>5.139008</ele>
        <time>2022-05-08T20:58:38.996Z</time>
      </trkpt>
      <trkpt lat="46.78436" lon="-2.06598">
        <ele>5.081037</ele>
        <time>2022-05-08T20:58:41.034Z</time>
      </trkpt>
      <trkpt lat="46.78398" lon="-2.0662">
        <ele>4.887531</ele>
        <time>2022-05-08T20:58:48.250Z</time>
      </trkpt>
      <trkpt lat="46.78351" lon="-2.06558">
        <ele>5.255287</ele>
        <time>2022-05-08T20:59:00.446Z</time>
      </trkpt>
      <trkpt lat="46.78265" lon="-2.06446">
        <ele>5.930235</ele>
        <time>2022-05-08T20:59:24.695Z</time>
      </trkpt>
      <trkpt lat="46.78193" lon="-2.06491">
        <ele>6.599959</ele>
        <time>2022-05-08T20:59:41.370Z</time>
      </trkpt>
      <trkpt lat="46.78174" lon="-2.06503">
        <ele>6.780425</ele>
        <time>2022-05-08T20:59:45.794Z</time>
      </trkpt>
      <trkpt lat="46.78146" lon="-2.0652">
        <ele>7.041325</ele>
        <time>2022-05-08T20:59:52.310Z</time>
      </trkpt>
      <trkpt lat="46.78132" lon="-2.06511">
        <ele>7.180497</ele>
        <time>2022-05-08T20:59:55.859Z</time>
      </trkpt>
      <trkpt lat="46.78032" lon="-2.06404">
        <ele>7.700237</ele>
        <time>2022-05-08T21:00:22.414Z</time>
      </trkpt>
      <trkpt lat="46.7801" lon="-2.06379">
        <ele>7.767362</ele>
        <time>2022-05-08T21:00:27.800Z</time>
      </trkpt>
      <trkpt lat="46.78002" lon="-2.06372">
        <ele>7.789719</ele>
        <time>2022-05-08T21:00:29.658Z</time>
      </trkpt>
      <trkpt lat="46.77995" lon="-2.06361">
        <ele>7.813951</ele>
        <time>2022-05-08T21:00:31.457Z</time>
      </trkpt>
      <trkpt lat="46.77976" lon="-2.06384">
        <ele>7.872026</ele>
        <time>2022-05-08T21:00:35.760Z</time>
      </trkpt>
      <trkpt lat="46.77967" lon="-2.06396">
        <ele>7.903005</ele>
        <time>2022-05-08T21:00:37.928Z</time>
      </trkpt>
      <trkpt lat="46.77961" lon="-2.06403">
        <ele>7.918433</ele>
        <time>2022-05-08T21:00:39.240Z</time>
      </trkpt>
      <trkpt lat="46.77952" lon="-2.06413">
        <ele>7.82021</ele>
        <time>2022-05-08T21:00:40.898Z</time>
      </trkpt>
      <trkpt lat="46.77953" lon="-2.0642">
        <ele>7.777135</ele>
        <time>2022-05-08T21:00:41.799Z</time>
      </trkpt>
      <trkpt lat="46.77949" lon="-2.06424">
        <ele>7.739227</ele>
        <time>2022-05-08T21:00:42.516Z</time>
      </trkpt>
      <trkpt lat="46.7794" lon="-2.06434">
        <ele>7.63496</ele>
        <time>2022-05-08T21:00:44.494Z</time>
      </trkpt>
      <trkpt lat="46.7794" lon="-2.06428">
        <ele>7.59663</ele>
        <time>2022-05-08T21:00:45.237Z</time>
      </trkpt>
      <trkpt lat="46.77935" lon="-2.06406">
        <ele>7.454051</ele>
        <time>2022-05-08T21:00:47.818Z</time>
      </trkpt>
      <trkpt lat="46.77917" lon="-2.06377">
        <ele>7.207788</ele>
        <time>2022-05-08T21:00:52.349Z</time>
      </trkpt>
      <trkpt lat="46.77891" lon="-2.06357">
        <ele>6.94894</ele>
        <time>2022-05-08T21:00:57.571Z</time>
      </trkpt>
      <trkpt lat="46.77856" lon="-2.06353">
        <ele>6.627813</ele>
        <time>2022-05-08T21:01:03.655Z</time>
      </trkpt>
      <trkpt lat="46.77848" lon="-2.06344">
        <ele>6.540047</ele>
        <time>2022-05-08T21:01:05.114Z</time>
      </trkpt>
      <trkpt lat="46.7782" lon="-2.06296">
        <ele>6.124437</ele>
        <time>2022-05-08T21:01:11.991Z</time>
      </trkpt>
      <trkpt lat="46.7779" lon="-2.06246">
        <ele>5.663672</ele>
        <time>2022-05-08T21:01:19.114Z</time>
      </trkpt>
      <trkpt lat="46.77782" lon="-2.06231">
        <ele>5.530692</ele>
        <time>2022-05-08T21:01:21.151Z</time>
      </trkpt>
      <trkpt lat="46.77773" lon="-2.06216">
        <ele>5.393831</ele>
        <time>2022-05-08T21:01:23.278Z</time>
      </trkpt>
      <trkpt lat="46.77742" lon="-2.06162">
        <ele>4.900745</ele>
        <time>2022-05-08T21:01:31.639Z</time>
      </trkpt>
      <trkpt lat="46.77738" lon="-2.06167">
        <ele>4.850604</ele>
        <time>2022-05-08T21:01:35.059Z</time>
      </trkpt>
      <trkpt lat="46.77737" lon="-2.06164">
        <ele>4.822147</ele>
        <time>2022-05-08T21:01:36.997Z</time>
      </trkpt>
      <trkpt lat="46.77733" lon="-2.06168">
        <ele>4.774927</ele>
        <time>2022-05-08T21:01:40.255Z</time>
      </trkpt>
      <trkpt lat="46.77721" lon="-2.06147">
        <ele>4.57704</ele>
        <time>2022-05-08T21:01:53.698Z</time>
      </trkpt>
      <trkpt lat="46.77699" lon="-2.06173">
        <ele>4.447551</ele>
        <time>2022-05-08T21:02:13.108Z</time>
      </trkpt>
      <trkpt lat="46.77721" lon="-2.06147">
        <ele>4.426493</ele>
        <time>2022-05-08T21:02:32.519Z</time>
      </trkpt>
      <trkpt lat="46.77733" lon="-2.06168">
        <ele>4.411921</ele>
        <time>2022-05-08T21:02:45.962Z</time>
      </trkpt>
      <trkpt lat="46.77737" lon="-2.06164">
        <ele>4.408444</ele>
        <time>2022-05-08T21:02:49.219Z</time>
      </trkpt>
      <trkpt lat="46.77738" lon="-2.06167">
        <ele>4.406349</ele>
        <time>2022-05-08T21:02:51.158Z</time>
      </trkpt>
      <trkpt lat="46.77742" lon="-2.06162">
        <ele>4.402657</ele>
        <time>2022-05-08T21:02:54.578Z</time>
      </trkpt>
      <trkpt lat="46.7771" lon="-2.06107">
        <ele>4.365095</ele>
        <time>2022-05-08T21:03:03.262Z</time>
      </trkpt>
      <trkpt lat="46.77695" lon="-2.06083">
        <ele>4.348493</ele>
        <time>2022-05-08T21:03:08.308Z</time>
      </trkpt>
      <trkpt lat="46.77681" lon="-2.06062">
        <ele>4.333324</ele>
        <time>2022-05-08T21:03:12.012Z</time>
      </trkpt>
      <trkpt lat="46.77635" lon="-2.0599">
        <ele>4.581224</ele>
        <time>2022-05-08T21:03:27.454Z</time>
      </trkpt>
      <trkpt lat="46.77587" lon="-2.05918">
        <ele>4.892242</ele>
        <time>2022-05-08T21:03:41.710Z</time>
      </trkpt>
      <trkpt lat="46.77573" lon="-2.05896">
        <ele>4.987837</ele>
        <time>2022-05-08T21:03:45.689Z</time>
      </trkpt>
      <trkpt lat="46.77555" lon="-2.0587">
        <ele>5.099844</ele>
        <time>2022-05-08T21:03:50.044Z</time>
      </trkpt>
      <trkpt lat="46.77519" lon="-2.05815">
        <ele>5.1633</ele>
        <time>2022-05-08T21:03:59.787Z</time>
      </trkpt>
      <trkpt lat="46.77465" lon="-2.05747">
        <ele>5.194826</ele>
        <time>2022-05-08T21:04:14.036Z</time>
      </trkpt>
      <trkpt lat="46.77454" lon="-2.0573">
        <ele>5.202241</ele>
        <time>2022-05-08T21:04:17.914Z</time>
      </trkpt>
      <trkpt lat="46.77434" lon="-2.05703">
        <ele>5.214037</ele>
        <time>2022-05-08T21:04:24.297Z</time>
      </trkpt>
      <trkpt lat="46.77383" lon="-2.05641">
        <ele>5.097008</ele>
        <time>2022-05-08T21:04:39.152Z</time>
      </trkpt>
      <trkpt lat="46.77361" lon="-2.05609">
        <ele>5.005138</ele>
        <time>2022-05-08T21:04:46.123Z</time>
      </trkpt>
      <trkpt lat="46.77317" lon="-2.0555">
        <ele>4.831552</ele>
        <time>2022-05-08T21:04:59.576Z</time>
      </trkpt>
      <trkpt lat="46.77286" lon="-2.055">
        <ele>4.697139</ele>
        <time>2022-05-08T21:05:10.635Z</time>
      </trkpt>
      <trkpt lat="46.77254" lon="-2.05469">
        <ele>4.645427</ele>
        <time>2022-05-08T21:05:19.303Z</time>
      </trkpt>
      <trkpt lat="46.77243" lon="-2.0545">
        <ele>4.621725</ele>
        <time>2022-05-08T21:05:23.137Z</time>
      </trkpt>
      <trkpt lat="46.7722" lon="-2.05419">
        <ele>4.578701</ele>
        <time>2022-05-08T21:05:30.225Z</time>
      </trkpt>
      <trkpt lat="46.77191" lon="-2.05376">
        <ele>4.523279</ele>
        <time>2022-05-08T21:05:39.500Z</time>
      </trkpt>
      <trkpt lat="46.77143" lon="-2.05313">
        <ele>4.467648</ele>
        <time>2022-05-08T21:05:55.139Z</time>
      </trkpt>
      <trkpt lat="46.77087" lon="-2.05232">
        <ele>4.550623</ele>
        <time>2022-05-08T21:06:14.936Z</time>
      </trkpt>
      <trkpt lat="46.77083" lon="-2.05225">
        <ele>4.557527</ele>
        <time>2022-05-08T21:06:16.486Z</time>
      </trkpt>
      <trkpt lat="46.7707" lon="-2.05194">
        <ele>4.583876</ele>
        <time>2022-05-08T21:06:22.189Z</time>
      </trkpt>
      <trkpt lat="46.77067" lon="-2.05179">
        <ele>4.595601</ele>
        <time>2022-05-08T21:06:24.308Z</time>
      </trkpt>
      <trkpt lat="46.77064" lon="-2.0516">
        <ele>4.609382</ele>
        <time>2022-05-08T21:06:26.662Z</time>
      </trkpt>
      <trkpt lat="46.7707" lon="-2.05134">
        <ele>4.62942</ele>
        <time>2022-05-08T21:06:30.109Z</time>
      </trkpt>
      <trkpt lat="46.7709" lon="-2.05079">
        <ele>4.541484</ele>
        <time>2022-05-08T21:06:37.868Z</time>
      </trkpt>
      <trkpt lat="46.77116" lon="-2.05014">
        <ele>4.36241</ele>
        <time>2022-05-08T21:06:46.995Z</time>
      </trkpt>
      <trkpt lat="46.77139" lon="-2.04934">
        <ele>4.156455</ele>
        <time>2022-05-08T21:06:57.523Z</time>
      </trkpt>
      <trkpt lat="46.77132" lon="-2.04872">
        <ele>4.013456</ele>
        <time>2022-05-08T21:07:05.407Z</time>
      </trkpt>
      <trkpt lat="46.77043" lon="-2.04652">
        <ele>3.663167</ele>
        <time>2022-05-08T21:07:39.393Z</time>
      </trkpt>
      <trkpt lat="46.7692" lon="-2.04461">
        <ele>3.20706</ele>
        <time>2022-05-08T21:08:13.804Z</time>
      </trkpt>
      <trkpt lat="46.76864" lon="-2.04388">
        <ele>3.320044</ele>
        <time>2022-05-08T21:08:28.242Z</time>
      </trkpt>
      <trkpt lat="46.76768" lon="-2.04302">
        <ele>3.577252</ele>
        <time>2022-05-08T21:08:51.868Z</time>
      </trkpt>
      <trkpt lat="46.76742" lon="-2.04261">
        <ele>4.092216</ele>
        <time>2022-05-08T21:09:00.859Z</time>
      </trkpt>
      <trkpt lat="46.76711" lon="-2.0421">
        <ele>4.728629</ele>
        <time>2022-05-08T21:09:12.487Z</time>
      </trkpt>
      <trkpt lat="46.76701" lon="-2.04203">
        <ele>4.885148</ele>
        <time>2022-05-08T21:09:15.271Z</time>
      </trkpt>
      <trkpt lat="46.76698" lon="-2.04189">
        <ele>5.015719</ele>
        <time>2022-05-08T21:09:17.820Z</time>
      </trkpt>
      <trkpt lat="46.76701" lon="-2.0418">
        <ele>5.108077</ele>
        <time>2022-05-08T21:09:19.700Z</time>
      </trkpt>
      <trkpt lat="46.76626" lon="-2.03976">
        <ele>7.69496</ele>
        <time>2022-05-08T21:10:03.847Z</time>
      </trkpt>
      <trkpt lat="46.76616" lon="-2.03933">
        <ele>8.253353</ele>
        <time>2022-05-08T21:10:12.313Z</time>
      </trkpt>
      <trkpt lat="46.76611" lon="-2.03845">
        <ele>9.203763</ele>
        <time>2022-05-08T21:10:28.086Z</time>
      </trkpt>
      <trkpt lat="46.76605" lon="-2.03706">
        <ele>9.611081</ele>
        <time>2022-05-08T21:10:49.956Z</time>
      </trkpt>
      <trkpt lat="46.76589" lon="-2.03634">
        <ele>9.829163</ele>
        <time>2022-05-08T21:11:00.230Z</time>
      </trkpt>
      <trkpt lat="46.7657" lon="-2.03564">
        <ele>9.769487</ele>
        <time>2022-05-08T21:11:09.525Z</time>
      </trkpt>
      <trkpt lat="46.76496" lon="-2.03412">
        <ele>9.060455</ele>
        <time>2022-05-08T21:11:33.078Z</time>
      </trkpt>
      <trkpt lat="46.7649" lon="-2.03392">
        <ele>8.978904</ele>
        <time>2022-05-08T21:11:35.747Z</time>
      </trkpt>
      <trkpt lat="46.76466" lon="-2.03314">
        <ele>8.939376</ele>
        <time>2022-05-08T21:11:47.293Z</time>
      </trkpt>
      <trkpt lat="46.76401" lon="-2.03186">
        <ele>8.954639</ele>
        <time>2022-05-08T21:12:09.398Z</time>
      </trkpt>
      <trkpt lat="46.76377" lon="-2.03124">
        <ele>8.958242</ele>
        <time>2022-05-08T21:12:19.604Z</time>
      </trkpt>
      <trkpt lat="46.76372" lon="-2.03095">
        <ele>8.958757</ele>
        <time>2022-05-08T21:12:23.679Z</time>
      </trkpt>
      <trkpt lat="46.76366" lon="-2.02994">
        <ele>8.960545</ele>
        <time>2022-05-08T21:12:37.425Z</time>
      </trkpt>
      <trkpt lat="46.76352" lon="-2.02943">
        <ele>8.96151</ele>
        <time>2022-05-08T21:12:44.780Z</time>
      </trkpt>
      <trkpt lat="46.76333" lon="-2.02909">
        <ele>8.935965</ele>
        <time>2022-05-08T21:12:50.611Z</time>
      </trkpt>
      <trkpt lat="46.76249" lon="-2.02842">
        <ele>8.499903</ele>
        <time>2022-05-08T21:13:09.095Z</time>
      </trkpt>
      <trkpt lat="46.76211" lon="-2.02797">
        <ele>8.278288</ele>
        <time>2022-05-08T21:13:18.038Z</time>
      </trkpt>
      <trkpt lat="46.7615" lon="-2.02746">
        <ele>7.787663</ele>
        <time>2022-05-08T21:13:30.811Z</time>
      </trkpt>
      <trkpt lat="46.7611" lon="-2.0271">
        <ele>7.383803</ele>
        <time>2022-05-08T21:13:38.332Z</time>
      </trkpt>
      <trkpt lat="46.76046" lon="-2.0265">
        <ele>6.727059</ele>
        <time>2022-05-08T21:13:50.531Z</time>
      </trkpt>
      <trkpt lat="46.75995" lon="-2.02581">
        <ele>6.243888</ele>
        <time>2022-05-08T21:14:01.786Z</time>
      </trkpt>
      <trkpt lat="46.75971" lon="-2.02562">
        <ele>6.068185</ele>
        <time>2022-05-08T21:14:06.373Z</time>
      </trkpt>
      <trkpt lat="46.75964" lon="-2.02543">
        <ele>5.974811</ele>
        <time>2022-05-08T21:14:08.773Z</time>
      </trkpt>
      <trkpt lat="46.75952" lon="-2.0253">
        <ele>5.876141</ele>
        <time>2022-05-08T21:14:11.358Z</time>
      </trkpt>
      <trkpt lat="46.75885" lon="-2.02497">
        <ele>5.416832</ele>
        <time>2022-05-08T21:14:23.038Z</time>
      </trkpt>
      <trkpt lat="46.75813" lon="-2.02482">
        <ele>4.710599</ele>
        <time>2022-05-08T21:14:34.999Z</time>
      </trkpt>
      <trkpt lat="46.75799" lon="-2.02492">
        <ele>4.55127</ele>
        <time>2022-05-08T21:14:37.651Z</time>
      </trkpt>
      <trkpt lat="46.75788" lon="-2.02479">
        <ele>4.417968</ele>
        <time>2022-05-08T21:14:39.815Z</time>
      </trkpt>
      <trkpt lat="46.75744" lon="-2.02469">
        <ele>3.983376</ele>
        <time>2022-05-08T21:14:46.660Z</time>
      </trkpt>
      <trkpt lat="46.75704" lon="-2.02443">
        <ele>3.577344</ele>
        <time>2022-05-08T21:14:53.368Z</time>
      </trkpt>
      <trkpt lat="46.75708" lon="-2.02434">
        <ele>3.514732</ele>
        <time>2022-05-08T21:14:54.679Z</time>
      </trkpt>
      <trkpt lat="46.75705" lon="-2.02431">
        <ele>3.488625</ele>
        <time>2022-05-08T21:14:55.188Z</time>
      </trkpt>
      <trkpt lat="46.75676" lon="-2.02392">
        <ele>3.178315</ele>
        <time>2022-05-08T21:15:01.341Z</time>
      </trkpt>
      <trkpt lat="46.7564" lon="-2.02348">
        <ele>2.802427</ele>
        <time>2022-05-08T21:15:09.106Z</time>
      </trkpt>
      <trkpt lat="46.75595" lon="-2.0231">
        <ele>2.387283</ele>
        <time>2022-05-08T21:15:17.820Z</time>
      </trkpt>
      <trkpt lat="46.75524" lon="-2.02254">
        <ele>2.345426</ele>
        <time>2022-05-08T21:15:31.458Z</time>
      </trkpt>
      <trkpt lat="46.75508" lon="-2.02233">
        <ele>2.377994</ele>
        <time>2022-05-08T21:15:35.412Z</time>
      </trkpt>
      <trkpt lat="46.75496" lon="-2.02206">
        <ele>2.411711</ele>
        <time>2022-05-08T21:15:39.842Z</time>
      </trkpt>
      <trkpt lat="46.75476" lon="-2.02139">
        <ele>2.486591</ele>
        <time>2022-05-08T21:15:50.066Z</time>
      </trkpt>
      <trkpt lat="46.75459" lon="-2.02101">
        <ele>2.545771</ele>
        <time>2022-05-08T21:15:56.267Z</time>
      </trkpt>
      <trkpt lat="46.75437" lon="-2.02067">
        <ele>2.646496</ele>
        <time>2022-05-08T21:16:02.502Z</time>
      </trkpt>
      <trkpt lat="46.75359" lon="-2.01973">
        <ele>2.96427</ele>
        <time>2022-05-08T21:16:21.448Z</time>
      </trkpt>
      <trkpt lat="46.75346" lon="-2.01954">
        <ele>3.020817</ele>
        <time>2022-05-08T21:16:24.763Z</time>
      </trkpt>
      <trkpt lat="46.75251" lon="-2.0181">
        <ele>3.391724</ele>
        <time>2022-05-08T21:16:50.826Z</time>
      </trkpt>
      <trkpt lat="46.75212" lon="-2.01757">
        <ele>3.532702</ele>
        <time>2022-05-08T21:17:00.752Z</time>
      </trkpt>
      <trkpt lat="46.75201" lon="-2.0174">
        <ele>3.588684</ele>
        <time>2022-05-08T21:17:03.725Z</time>
      </trkpt>
      <trkpt lat="46.75166" lon="-2.01686">
        <ele>3.822856</ele>
        <time>2022-05-08T21:17:13.161Z</time>
      </trkpt>
      <trkpt lat="46.75129" lon="-2.01626">
        <ele>4.077235</ele>
        <time>2022-05-08T21:17:23.817Z</time>
      </trkpt>
      <trkpt lat="46.75115" lon="-2.01628">
        <ele>4.145319</ele>
        <time>2022-05-08T21:17:26.879Z</time>
      </trkpt>
      <trkpt lat="46.75111" lon="-2.01624">
        <ele>4.166193</ele>
        <time>2022-05-08T21:17:27.787Z</time>
      </trkpt>
      <trkpt lat="46.75106" lon="-2.01607">
        <ele>4.226751</ele>
        <time>2022-05-08T21:17:30.445Z</time>
      </trkpt>
      <trkpt lat="46.75109" lon="-2.01595">
        <ele>4.267571</ele>
        <time>2022-05-08T21:17:32.332Z</time>
      </trkpt>
      <trkpt lat="46.75073" lon="-2.01554">
        <ele>4.551948</ele>
        <time>2022-05-08T21:17:42.005Z</time>
      </trkpt>
      <trkpt lat="46.75035" lon="-2.01501">
        <ele>4.983608</ele>
        <time>2022-05-08T21:17:53.087Z</time>
      </trkpt>
      <trkpt lat="46.7502" lon="-2.01477">
        <ele>5.167089</ele>
        <time>2022-05-08T21:17:57.924Z</time>
      </trkpt>
      <trkpt lat="46.74991" lon="-2.01428">
        <ele>5.53265</ele>
        <time>2022-05-08T21:18:07.273Z</time>
      </trkpt>
      <trkpt lat="46.74971" lon="-2.01393">
        <ele>5.790784</ele>
        <time>2022-05-08T21:18:13.945Z</time>
      </trkpt>
      <trkpt lat="46.7495" lon="-2.01364">
        <ele>5.9583</ele>
        <time>2022-05-08T21:18:20.014Z</time>
      </trkpt>
      <trkpt lat="46.74946" lon="-2.01359">
        <ele>5.982791</ele>
        <time>2022-05-08T21:18:21.097Z</time>
      </trkpt>
      <trkpt lat="46.7493" lon="-2.01347">
        <ele>6.066624</ele>
        <time>2022-05-08T21:18:24.748Z</time>
      </trkpt>
      <trkpt lat="46.74786" lon="-2.01266">
        <ele>6.642895</ele>
        <time>2022-05-08T21:18:54.830Z</time>
      </trkpt>
      <trkpt lat="46.74783" lon="-2.01264">
        <ele>6.629747</ele>
        <time>2022-05-08T21:18:55.471Z</time>
      </trkpt>
      <trkpt lat="46.74684" lon="-2.01201">
        <ele>6.224377</ele>
        <time>2022-05-08T21:19:13.871Z</time>
      </trkpt>
      <trkpt lat="46.74643" lon="-2.01164">
        <ele>6.043646</ele>
        <time>2022-05-08T21:19:21.888Z</time>
      </trkpt>
      <trkpt lat="46.74637" lon="-2.01157">
        <ele>5.986409</ele>
        <time>2022-05-08T21:19:23.024Z</time>
      </trkpt>
      <trkpt lat="46.74538" lon="-2.01038">
        <ele>4.585398</ele>
        <time>2022-05-08T21:19:43.104Z</time>
      </trkpt>
      <trkpt lat="46.74528" lon="-2.01027">
        <ele>4.451432</ele>
        <time>2022-05-08T21:19:44.966Z</time>
      </trkpt>
      <trkpt lat="46.74464" lon="-2.00972">
        <ele>3.774031</ele>
        <time>2022-05-08T21:19:56.730Z</time>
      </trkpt>
      <trkpt lat="46.74462" lon="-2.0097">
        <ele>3.753887</ele>
        <time>2022-05-08T21:19:57.150Z</time>
      </trkpt>
      <trkpt lat="46.74368" lon="-2.0089">
        <ele>2.941658</ele>
        <time>2022-05-08T21:20:14.577Z</time>
      </trkpt>
      <trkpt lat="46.74334" lon="-2.00851">
        <ele>2.72251</ele>
        <time>2022-05-08T21:20:22.018Z</time>
      </trkpt>
      <trkpt lat="46.74322" lon="-2.00831">
        <ele>2.725638</ele>
        <time>2022-05-08T21:20:25.265Z</time>
      </trkpt>
      <trkpt lat="46.74312" lon="-2.00814">
        <ele>2.728329</ele>
        <time>2022-05-08T21:20:28.072Z</time>
      </trkpt>
      <trkpt lat="46.74298" lon="-2.00791">
        <ele>2.731935</ele>
        <time>2022-05-08T21:20:31.844Z</time>
      </trkpt>
      <trkpt lat="46.74248" lon="-2.0071">
        <ele>2.744671</ele>
        <time>2022-05-08T21:20:45.415Z</time>
      </trkpt>
      <trkpt lat="46.74145" lon="-2.00558">
        <ele>3.200392</ele>
        <time>2022-05-08T21:21:13.402Z</time>
      </trkpt>
      <trkpt lat="46.74117" lon="-2.00521">
        <ele>3.353326</ele>
        <time>2022-05-08T21:21:20.623Z</time>
      </trkpt>
      <trkpt lat="46.74097" lon="-2.00482">
        <ele>3.496632</ele>
        <time>2022-05-08T21:21:27.219Z</time>
      </trkpt>
      <trkpt lat="46.74067" lon="-2.00407">
        <ele>4.05109</ele>
        <time>2022-05-08T21:21:39.937Z</time>
      </trkpt>
      <trkpt lat="46.74066" lon="-2.00361">
        <ele>4.342277</ele>
        <time>2022-05-08T21:21:46.967Z</time>
      </trkpt>
      <trkpt lat="46.74082" lon="-2.00289">
        <ele>4.823412</ele>
        <time>2022-05-08T21:21:58.486Z</time>
      </trkpt>
      <trkpt lat="46.74087" lon="-2.0027">
        <ele>4.949087</ele>
        <time>2022-05-08T21:22:01.491Z</time>
      </trkpt>
      <trkpt lat="46.74109" lon="-2.00186">
        <ele>5.439654</ele>
        <time>2022-05-08T21:22:14.707Z</time>
      </trkpt>
      <trkpt lat="46.74114" lon="-2.00164">
        <ele>5.555283</ele>
        <time>2022-05-08T21:22:18.238Z</time>
      </trkpt>
      <trkpt lat="46.74123" lon="-2.00116">
        <ele>5.799339</ele>
        <time>2022-05-08T21:22:25.436Z</time>
      </trkpt>
      <trkpt lat="46.74127" lon="-2.00089">
        <ele>5.939287</ele>
        <time>2022-05-08T21:22:29.379Z</time>
      </trkpt>
      <trkpt lat="46.74133" lon="-2.00039">
        <ele>6.187772</ele>
        <time>2022-05-08T21:22:36.428Z</time>
      </trkpt>
      <trkpt lat="46.7414" lon="-1.99944">
        <ele>6.498486</ele>
        <time>2022-05-08T21:22:49.059Z</time>
      </trkpt>
      <trkpt lat="46.74141" lon="-1.99926">
        <ele>6.519653</ele>
        <time>2022-05-08T21:22:51.328Z</time>
      </trkpt>
      <trkpt lat="46.74152" lon="-1.99737">
        <ele>6.747011</ele>
        <time>2022-05-08T21:23:15.266Z</time>
      </trkpt>
      <trkpt lat="46.74156" lon="-1.99675">
        <ele>6.628872</ele>
        <time>2022-05-08T21:23:22.767Z</time>
      </trkpt>
      <trkpt lat="46.74181" lon="-1.99565">
        <ele>6.329084</ele>
        <time>2022-05-08T21:23:36.554Z</time>
      </trkpt>
      <trkpt lat="46.74204" lon="-1.99475">
        <ele>6.079306</ele>
        <time>2022-05-08T21:23:47.150Z</time>
      </trkpt>
      <trkpt lat="46.74215" lon="-1.99394">
        <ele>5.911352</ele>
        <time>2022-05-08T21:23:56.253Z</time>
      </trkpt>
      <trkpt lat="46.7421" lon="-1.99339">
        <ele>5.797693</ele>
        <time>2022-05-08T21:24:02.668Z</time>
      </trkpt>
      <trkpt lat="46.74202" lon="-1.99322">
        <ele>5.756413</ele>
        <time>2022-05-08T21:24:04.928Z</time>
      </trkpt>
      <trkpt lat="46.7419" lon="-1.99325">
        <ele>5.718279</ele>
        <time>2022-05-08T21:24:07.562Z</time>
      </trkpt>
      <trkpt lat="46.7418" lon="-1.99314">
        <ele>5.680159</ele>
        <time>2022-05-08T21:24:10.152Z</time>
      </trkpt>
      <trkpt lat="46.74181" lon="-1.9929">
        <ele>5.630623</ele>
        <time>2022-05-08T21:24:13.080Z</time>
      </trkpt>
      <trkpt lat="46.7417" lon="-1.99283">
        <ele>5.59506</ele>
        <time>2022-05-08T21:24:15.712Z</time>
      </trkpt>
      <trkpt lat="46.74116" lon="-1.99276">
        <ele>5.843546</ele>
        <time>2022-05-08T21:24:25.828Z</time>
      </trkpt>
      <trkpt lat="46.74092" lon="-1.99273">
        <ele>6.035331</ele>
        <time>2022-05-08T21:24:30.821Z</time>
      </trkpt>
      <trkpt lat="46.74054" lon="-1.99268">
        <ele>6.337145</ele>
        <time>2022-05-08T21:24:38.825Z</time>
      </trkpt>
      <trkpt lat="46.74047" lon="-1.99273">
        <ele>6.397034</ele>
        <time>2022-05-08T21:24:40.521Z</time>
      </trkpt>
      <trkpt lat="46.74011" lon="-1.99267">
        <ele>6.683343</ele>
        <time>2022-05-08T21:24:49.545Z</time>
      </trkpt>
      <trkpt lat="46.73953" lon="-1.99244">
        <ele>7.061433</ele>
        <time>2022-05-08T21:25:04.154Z</time>
      </trkpt>
      <trkpt lat="46.73917" lon="-1.99221">
        <ele>7.221952</ele>
        <time>2022-05-08T21:25:13.066Z</time>
      </trkpt>
      <trkpt lat="46.73875" lon="-1.99183">
        <ele>7.422971</ele>
        <time>2022-05-08T21:25:23.019Z</time>
      </trkpt>
      <trkpt lat="46.7365" lon="-1.98966">
        <ele>7.797986</ele>
        <time>2022-05-08T21:26:16.509Z</time>
      </trkpt>
      <trkpt lat="46.73544" lon="-1.98862">
        <ele>8.125996</ele>
        <time>2022-05-08T21:26:43.359Z</time>
      </trkpt>
      <trkpt lat="46.73397" lon="-1.98715">
        <ele>8.727606</ele>
        <time>2022-05-08T21:27:21.064Z</time>
      </trkpt>
      <trkpt lat="46.73383" lon="-1.98708">
        <ele>8.778776</ele>
        <time>2022-05-08T21:27:24.134Z</time>
      </trkpt>
      <trkpt lat="46.73376" lon="-1.98709">
        <ele>8.804339</ele>
        <time>2022-05-08T21:27:25.578Z</time>
      </trkpt>
      <trkpt lat="46.73372" lon="-1.98702">
        <ele>8.825587</ele>
        <time>2022-05-08T21:27:26.801Z</time>
      </trkpt>
      <trkpt lat="46.73379" lon="-1.98667">
        <ele>8.967097</ele>
        <time>2022-05-08T21:27:32.195Z</time>
      </trkpt>
      <trkpt lat="46.73382" lon="-1.98602">
        <ele>9.237043</ele>
        <time>2022-05-08T21:27:41.824Z</time>
      </trkpt>
      <trkpt lat="46.73375" lon="-1.98558">
        <ele>9.423749</ele>
        <time>2022-05-08T21:27:48.751Z</time>
      </trkpt>
      <trkpt lat="46.73361" lon="-1.98518">
        <ele>9.609692</ele>
        <time>2022-05-08T21:27:55.786Z</time>
      </trkpt>
      <trkpt lat="46.73339" lon="-1.98483">
        <ele>9.810566</ele>
        <time>2022-05-08T21:28:03.515Z</time>
      </trkpt>
      <trkpt lat="46.73215" lon="-1.98361">
        <ele>10.507853</ele>
        <time>2022-05-08T21:28:36.116Z</time>
      </trkpt>
      <trkpt lat="46.73164" lon="-1.98318">
        <ele>10.730887</ele>
        <time>2022-05-08T21:28:48.386Z</time>
      </trkpt>
      <trkpt lat="46.73132" lon="-1.98299">
        <ele>10.731904</ele>
        <time>2022-05-08T21:28:55.638Z</time>
      </trkpt>
      <trkpt lat="46.72813" lon="-1.98165">
        <ele>10.354732</ele>
        <time>2022-05-08T21:30:00.232Z</time>
      </trkpt>
      <trkpt lat="46.72783" lon="-1.98152">
        <ele>10.181014</ele>
        <time>2022-05-08T21:30:06.092Z</time>
      </trkpt>
      <trkpt lat="46.72704" lon="-1.98111">
        <ele>9.718379</ele>
        <time>2022-05-08T21:30:21.446Z</time>
      </trkpt>
      <trkpt lat="46.72512" lon="-1.97981">
        <ele>8.521016</ele>
        <time>2022-05-08T21:31:00.190Z</time>
      </trkpt>
      <trkpt lat="46.72461" lon="-1.97932">
        <ele>8.509866</ele>
        <time>2022-05-08T21:31:12.353Z</time>
      </trkpt>
      <trkpt lat="46.72411" lon="-1.9786">
        <ele>8.657106</ele>
        <time>2022-05-08T21:31:27.098Z</time>
      </trkpt>
      <trkpt lat="46.72406" lon="-1.97856">
        <ele>8.669782</ele>
        <time>2022-05-08T21:31:28.447Z</time>
      </trkpt>
      <trkpt lat="46.7239" lon="-1.97857">
        <ele>8.702312</ele>
        <time>2022-05-08T21:31:31.794Z</time>
      </trkpt>
      <trkpt lat="46.72388" lon="-1.97852">
        <ele>8.71138</ele>
        <time>2022-05-08T21:31:32.687Z</time>
      </trkpt>
      <trkpt lat="46.72387" lon="-1.97828">
        <ele>8.745654</ele>
        <time>2022-05-08T21:31:36.276Z</time>
      </trkpt>
      <trkpt lat="46.7238" lon="-1.97807">
        <ele>8.779531</ele>
        <time>2022-05-08T21:31:39.793Z</time>
      </trkpt>
      <trkpt lat="46.72147" lon="-1.97399">
        <ele>10.258037</ele>
        <time>2022-05-08T21:32:57.076Z</time>
      </trkpt>
      <trkpt lat="46.71989" lon="-1.97109">
        <ele>12.480412</ele>
        <time>2022-05-08T21:33:57.903Z</time>
      </trkpt>
      <trkpt lat="46.71985" lon="-1.97101">
        <ele>12.525619</ele>
        <time>2022-05-08T21:33:59.454Z</time>
      </trkpt>
      <trkpt lat="46.71874" lon="-1.96897">
        <ele>13.238806</ele>
        <time>2022-05-08T21:34:38.143Z</time>
      </trkpt>
      <trkpt lat="46.71863" lon="-1.96889">
        <ele>13.235992</ele>
        <time>2022-05-08T21:34:40.514Z</time>
      </trkpt>
      <trkpt lat="46.71849" lon="-1.96883">
        <ele>13.232613</ele>
        <time>2022-05-08T21:34:43.383Z</time>
      </trkpt>
      <trkpt lat="46.71835" lon="-1.96889">
        <ele>13.229277</ele>
        <time>2022-05-08T21:34:46.186Z</time>
      </trkpt>
      <trkpt lat="46.71772" lon="-1.97032">
        <ele>12.900942</ele>
        <time>2022-05-08T21:35:07.865Z</time>
      </trkpt>
      <trkpt lat="46.71651" lon="-1.97212">
        <ele>11.923673</ele>
        <time>2022-05-08T21:35:39.829Z</time>
      </trkpt>
      <trkpt lat="46.71571" lon="-1.97355">
        <ele>11.236956</ele>
        <time>2022-05-08T21:36:03.577Z</time>
      </trkpt>
      <trkpt lat="46.71428" lon="-1.97595">
        <ele>9.627765</ele>
        <time>2022-05-08T21:36:43.390Z</time>
      </trkpt>
      <trkpt lat="46.71415" lon="-1.97622">
        <ele>9.41845</ele>
        <time>2022-05-08T21:36:47.020Z</time>
      </trkpt>
      <trkpt lat="46.71404" lon="-1.97631">
        <ele>9.29908</ele>
        <time>2022-05-08T21:36:49.083Z</time>
      </trkpt>
      <trkpt lat="46.71362" lon="-1.97675">
        <ele>8.826769</ele>
        <time>2022-05-08T21:36:57.156Z</time>
      </trkpt>
      <trkpt lat="46.71342" lon="-1.97705">
        <ele>8.567257</ele>
        <time>2022-05-08T21:37:01.605Z</time>
      </trkpt>
      <trkpt lat="46.71321" lon="-1.97741">
        <ele>8.271033</ele>
        <time>2022-05-08T21:37:06.764Z</time>
      </trkpt>
      <trkpt lat="46.71307" lon="-1.97754">
        <ele>8.208596</ele>
        <time>2022-05-08T21:37:09.492Z</time>
      </trkpt>
      <trkpt lat="46.71277" lon="-1.97782">
        <ele>8.078252</ele>
        <time>2022-05-08T21:37:15.477Z</time>
      </trkpt>
      <trkpt lat="46.71269" lon="-1.97797">
        <ele>8.027078</ele>
        <time>2022-05-08T21:37:17.914Z</time>
      </trkpt>
      <trkpt lat="46.71262" lon="-1.97812">
        <ele>7.982074</ele>
        <time>2022-05-08T21:37:20.082Z</time>
      </trkpt>
      <trkpt lat="46.71257" lon="-1.97828">
        <ele>7.9389</ele>
        <time>2022-05-08T21:37:22.072Z</time>
      </trkpt>
      <trkpt lat="46.71245" lon="-1.97856">
        <ele>7.854716</ele>
        <time>2022-05-08T21:37:26.097Z</time>
      </trkpt>
      <trkpt lat="46.71236" lon="-1.97872">
        <ele>7.803541</ele>
        <time>2022-05-08T21:37:28.468Z</time>
      </trkpt>
      <trkpt lat="46.71226" lon="-1.97891">
        <ele>7.741511</ele>
        <time>2022-05-08T21:37:31.419Z</time>
      </trkpt>
      <trkpt lat="46.71212" lon="-1.97914">
        <ele>7.663861</ele>
        <time>2022-05-08T21:37:35.255Z</time>
      </trkpt>
      <trkpt lat="46.71158" lon="-1.97957">
        <ele>7.667598</ele>
        <time>2022-05-08T21:37:47.193Z</time>
      </trkpt>
      <trkpt lat="46.71167" lon="-1.97981">
        <ele>7.692608</ele>
        <time>2022-05-08T21:37:50.646Z</time>
      </trkpt>
      <trkpt lat="46.71165" lon="-1.97987">
        <ele>7.698776</ele>
        <time>2022-05-08T21:37:51.597Z</time>
      </trkpt>
      <trkpt lat="46.71136" lon="-1.98007">
        <ele>7.7416</ele>
        <time>2022-05-08T21:37:58.028Z</time>
      </trkpt>
      <trkpt lat="46.71115" lon="-1.98022">
        <ele>7.773075</ele>
        <time>2022-05-08T21:38:02.924Z</time>
      </trkpt>
      <trkpt lat="46.71086" lon="-1.98026">
        <ele>7.812308</ele>
        <time>2022-05-08T21:38:09.139Z</time>
      </trkpt>
      <trkpt lat="46.71082" lon="-1.98032">
        <ele>7.819442</ele>
        <time>2022-05-08T21:38:10.327Z</time>
      </trkpt>
      <trkpt lat="46.7107" lon="-1.98033">
        <ele>7.835435</ele>
        <time>2022-05-08T21:38:12.974Z</time>
      </trkpt>
      <trkpt lat="46.71038" lon="-1.98041">
        <ele>7.783413</ele>
        <time>2022-05-08T21:38:20.305Z</time>
      </trkpt>
      <trkpt lat="46.71021" lon="-1.98045">
        <ele>7.737812</ele>
        <time>2022-05-08T21:38:24.035Z</time>
      </trkpt>
      <trkpt lat="46.71023" lon="-1.9805">
        <ele>7.726494</ele>
        <time>2022-05-08T21:38:24.923Z</time>
      </trkpt>
      <trkpt lat="46.70969" lon="-1.98061">
        <ele>7.579564</ele>
        <time>2022-05-08T21:38:35.179Z</time>
      </trkpt>
      <trkpt lat="46.70953" lon="-1.98042">
        <ele>7.521725</ele>
        <time>2022-05-08T21:38:39.234Z</time>
      </trkpt>
      <trkpt lat="46.70919" lon="-1.98026">
        <ele>7.425827</ele>
        <time>2022-05-08T21:38:45.967Z</time>
      </trkpt>
      <trkpt lat="46.70892" lon="-1.98004">
        <ele>7.350922</ele>
        <time>2022-05-08T21:38:52.027Z</time>
      </trkpt>
      <trkpt lat="46.70871" lon="-1.97992">
        <ele>7.327618</ele>
        <time>2022-05-08T21:38:56.294Z</time>
      </trkpt>
      <trkpt lat="46.70857" lon="-1.97969">
        <ele>7.305194</ele>
        <time>2022-05-08T21:39:00.521Z</time>
      </trkpt>
      <trkpt lat="46.70828" lon="-1.97948">
        <ele>7.271155</ele>
        <time>2022-05-08T21:39:06.758Z</time>
      </trkpt>
      <trkpt lat="46.70806" lon="-1.97933">
        <ele>7.24482</ele>
        <time>2022-05-08T21:39:11.471Z</time>
      </trkpt>
      <trkpt lat="46.7079" lon="-1.97912">
        <ele>7.22255</ele>
        <time>2022-05-08T21:39:15.646Z</time>
      </trkpt>
      <trkpt lat="46.70787" lon="-1.97907">
        <ele>7.217743</ele>
        <time>2022-05-08T21:39:16.472Z</time>
      </trkpt>
      <trkpt lat="46.70747" lon="-1.97903">
        <ele>7.175345</ele>
        <time>2022-05-08T21:39:23.913Z</time>
      </trkpt>
      <trkpt lat="46.70675" lon="-1.97898">
        <ele>7.102052</ele>
        <time>2022-05-08T21:39:36.746Z</time>
      </trkpt>
      <trkpt lat="46.70658" lon="-1.97901">
        <ele>7.084778</ele>
        <time>2022-05-08T21:39:39.686Z</time>
      </trkpt>
      <trkpt lat="46.7064" lon="-1.97905">
        <ele>7.066342</ele>
        <time>2022-05-08T21:39:42.835Z</time>
      </trkpt>
      <trkpt lat="46.706" lon="-1.97918">
        <ele>7.025112</ele>
        <time>2022-05-08T21:39:49.788Z</time>
      </trkpt>
      <trkpt lat="46.70558" lon="-1.9793">
        <ele>7.00331</ele>
        <time>2022-05-08T21:39:57.236Z</time>
      </trkpt>
      <trkpt lat="46.70526" lon="-1.97927">
        <ele>7.151339</ele>
        <time>2022-05-08T21:40:03.023Z</time>
      </trkpt>
      <trkpt lat="46.7051" lon="-1.97921">
        <ele>7.231811</ele>
        <time>2022-05-08T21:40:06.254Z</time>
      </trkpt>
      <trkpt lat="46.70484" lon="-1.97909">
        <ele>7.355749</ele>
        <time>2022-05-08T21:40:11.210Z</time>
      </trkpt>
      <trkpt lat="46.70426" lon="-1.97861">
        <ele>7.664509</ele>
        <time>2022-05-08T21:40:24.411Z</time>
      </trkpt>
      <trkpt lat="46.70413" lon="-1.97846">
        <ele>7.74216</ele>
        <time>2022-05-08T21:40:28.052Z</time>
      </trkpt>
      <trkpt lat="46.70318" lon="-1.97749">
        <ele>8.768811</ele>
        <time>2022-05-08T21:40:54.543Z</time>
      </trkpt>
      <trkpt lat="46.70252" lon="-1.97681">
        <ele>9.542642</ele>
        <time>2022-05-08T21:41:11.353Z</time>
      </trkpt>
      <trkpt lat="46.70206" lon="-1.9763">
        <ele>9.647134</ele>
        <time>2022-05-08T21:41:22.796Z</time>
      </trkpt>
      <trkpt lat="46.70162" lon="-1.97571">
        <ele>9.757414</ele>
        <time>2022-05-08T21:41:34.229Z</time>
      </trkpt>
      <trkpt lat="46.70142" lon="-1.97543">
        <ele>9.809388</ele>
        <time>2022-05-08T21:41:39.225Z</time>
      </trkpt>
      <trkpt lat="46.70086" lon="-1.97468">
        <ele>9.720656</ele>
        <time>2022-05-08T21:41:51.705Z</time>
      </trkpt>
      <trkpt lat="46.70002" lon="-1.97355">
        <ele>9.298498</ele>
        <time>2022-05-08T21:42:11.081Z</time>
      </trkpt>
      <trkpt lat="46.6996" lon="-1.97312">
        <ele>9.184716</ele>
        <time>2022-05-08T21:42:20.117Z</time>
      </trkpt>
      <trkpt lat="46.69947" lon="-1.97301">
        <ele>9.171091</ele>
        <time>2022-05-08T21:42:22.774Z</time>
      </trkpt>
      <trkpt lat="46.6994" lon="-1.97295">
        <ele>9.163778</ele>
        <time>2022-05-08T21:42:24.166Z</time>
      </trkpt>
      <trkpt lat="46.69905" lon="-1.97269">
        <ele>9.127254</ele>
        <time>2022-05-08T21:42:31.105Z</time>
      </trkpt>
      <trkpt lat="46.69878" lon="-1.97247">
        <ele>9.099496</ele>
        <time>2022-05-08T21:42:36.455Z</time>
      </trkpt>
      <trkpt lat="46.69872" lon="-1.97242">
        <ele>9.092549</ele>
        <time>2022-05-08T21:42:37.718Z</time>
      </trkpt>
      <trkpt lat="46.69849" lon="-1.97223">
        <ele>9.068691</ele>
        <time>2022-05-08T21:42:42.349Z</time>
      </trkpt>
      <trkpt lat="46.69781" lon="-1.97171">
        <ele>9.03129</ele>
        <time>2022-05-08T21:42:56.340Z</time>
      </trkpt>
      <trkpt lat="46.69775" lon="-1.97167">
        <ele>9.029523</ele>
        <time>2022-05-08T21:42:57.493Z</time>
      </trkpt>
      <trkpt lat="46.69702" lon="-1.97091">
        <ele>9.005509</ele>
        <time>2022-05-08T21:43:12.968Z</time>
      </trkpt>
      <trkpt lat="46.69688" lon="-1.97076">
        <ele>9.000964</ele>
        <time>2022-05-08T21:43:15.901Z</time>
      </trkpt>
      <trkpt lat="46.69679" lon="-1.97065">
        <ele>8.997758</ele>
        <time>2022-05-08T21:43:18.110Z</time>
      </trkpt>
      <trkpt lat="46.69626" lon="-1.97009">
        <ele>9.215666</ele>
        <time>2022-05-08T21:43:30.880Z</time>
      </trkpt>
      <trkpt lat="46.69583" lon="-1.96964">
        <ele>9.404341</ele>
        <time>2022-05-08T21:43:41.805Z</time>
      </trkpt>
      <trkpt lat="46.69574" lon="-1.96955">
        <ele>9.443896</ele>
        <time>2022-05-08T21:43:44.089Z</time>
      </trkpt>
      <trkpt lat="46.69544" lon="-1.96926">
        <ele>9.570659</ele>
        <time>2022-05-08T21:43:50.963Z</time>
      </trkpt>
      <trkpt lat="46.69541" lon="-1.96923">
        <ele>9.584578</ele>
        <time>2022-05-08T21:43:51.707Z</time>
      </trkpt>
      <trkpt lat="46.69525" lon="-1.96908">
        <ele>9.621349</ele>
        <time>2022-05-08T21:43:54.985Z</time>
      </trkpt>
      <trkpt lat="46.69497" lon="-1.9688">
        <ele>9.514568</ele>
        <time>2022-05-08T21:44:01.090Z</time>
      </trkpt>
      <trkpt lat="46.69486" lon="-1.96869">
        <ele>9.472106</ele>
        <time>2022-05-08T21:44:03.541Z</time>
      </trkpt>
      <trkpt lat="46.69474" lon="-1.96858">
        <ele>9.430052</ele>
        <time>2022-05-08T21:44:05.945Z</time>
      </trkpt>
      <trkpt lat="46.69424" lon="-1.96809">
        <ele>9.242197</ele>
        <time>2022-05-08T21:44:16.297Z</time>
      </trkpt>
      <trkpt lat="46.69374" lon="-1.96757">
        <ele>9.088191</ele>
        <time>2022-05-08T21:44:26.199Z</time>
      </trkpt>
      <trkpt lat="46.69352" lon="-1.9672">
        <ele>9.143156</ele>
        <time>2022-05-08T21:44:31.671Z</time>
      </trkpt>
      <trkpt lat="46.6933" lon="-1.96662">
        <ele>9.216317</ele>
        <time>2022-05-08T21:44:39.400Z</time>
      </trkpt>
      <trkpt lat="46.69321" lon="-1.96621">
        <ele>9.264642</ele>
        <time>2022-05-08T21:44:45.346Z</time>
      </trkpt>
      <trkpt lat="46.69315" lon="-1.96557">
        <ele>9.336779</ele>
        <time>2022-05-08T21:44:55.403Z</time>
      </trkpt>
      <trkpt lat="46.69318" lon="-1.9647">
        <ele>9.11734</ele>
        <time>2022-05-08T21:45:08.343Z</time>
      </trkpt>
      <trkpt lat="46.69327" lon="-1.96346">
        <ele>8.590233</ele>
        <time>2022-05-08T21:45:22.350Z</time>
      </trkpt>
      <trkpt lat="46.69328" lon="-1.9632">
        <ele>8.4793</ele>
        <time>2022-05-08T21:45:25.207Z</time>
      </trkpt>
      <trkpt lat="46.69327" lon="-1.96211">
        <ele>7.219756</ele>
        <time>2022-05-08T21:45:36.195Z</time>
      </trkpt>
      <trkpt lat="46.69326" lon="-1.96164">
        <ele>6.349067</ele>
        <time>2022-05-08T21:45:40.699Z</time>
      </trkpt>
      <trkpt lat="46.69329" lon="-1.96138">
        <ele>5.863143</ele>
        <time>2022-05-08T21:45:43.144Z</time>
      </trkpt>
      <trkpt lat="46.6934" lon="-1.96117">
        <ele>5.383892</ele>
        <time>2022-05-08T21:45:45.601Z</time>
      </trkpt>
      <trkpt lat="46.69404" lon="-1.96059">
        <ele>3.437057</ele>
        <time>2022-05-08T21:45:55.812Z</time>
      </trkpt>
      <trkpt lat="46.69426" lon="-1.9603">
        <ele>3.227929</ele>
        <time>2022-05-08T21:46:00.160Z</time>
      </trkpt>
      <trkpt lat="46.69436" lon="-1.96007">
        <ele>3.095065</ele>
        <time>2022-05-08T21:46:03.081Z</time>
      </trkpt>
      <trkpt lat="46.69446" lon="-1.95972">
        <ele>2.917147</ele>
        <time>2022-05-08T21:46:07.441Z</time>
      </trkpt>
      <trkpt lat="46.69452" lon="-1.95915">
        <ele>2.640401</ele>
        <time>2022-05-08T21:46:14.375Z</time>
      </trkpt>
      <trkpt lat="46.69467" lon="-1.95759">
        <ele>2.348333</ele>
        <time>2022-05-08T21:46:35.370Z</time>
      </trkpt>
      <trkpt lat="46.69489" lon="-1.95654">
        <ele>2.591833</ele>
        <time>2022-05-08T21:46:49.956Z</time>
      </trkpt>
      <trkpt lat="46.69499" lon="-1.95607">
        <ele>2.703067</ele>
        <time>2022-05-08T21:46:56.480Z</time>
      </trkpt>
      <trkpt lat="46.6951" lon="-1.9557">
        <ele>2.783332</ele>
        <time>2022-05-08T21:47:03.157Z</time>
      </trkpt>
      <trkpt lat="46.69537" lon="-1.95505">
        <ele>2.711889</ele>
        <time>2022-05-08T21:47:15.286Z</time>
      </trkpt>
      <trkpt lat="46.6955" lon="-1.95459">
        <ele>2.665761</ele>
        <time>2022-05-08T21:47:23.041Z</time>
      </trkpt>
      <trkpt lat="46.69551" lon="-1.95439">
        <ele>2.647346</ele>
        <time>2022-05-08T21:47:26.184Z</time>
      </trkpt>
      <trkpt lat="46.69524" lon="-1.95284">
        <ele>2.58429</ele>
        <time>2022-05-08T21:47:51.285Z</time>
      </trkpt>
      <trkpt lat="46.69529" lon="-1.95255">
        <ele>2.612312</ele>
        <time>2022-05-08T21:47:56.135Z</time>
      </trkpt>
      <trkpt lat="46.69538" lon="-1.9524">
        <ele>2.630922</ele>
        <time>2022-05-08T21:47:59.462Z</time>
      </trkpt>
      <trkpt lat="46.69544" lon="-1.95241">
        <ele>2.639341</ele>
        <time>2022-05-08T21:48:00.823Z</time>
      </trkpt>
      <trkpt lat="46.69577" lon="-1.95216">
        <ele>2.690448</ele>
        <time>2022-05-08T21:48:07.682Z</time>
      </trkpt>
      <trkpt lat="46.69594" lon="-1.95191">
        <ele>2.723852</ele>
        <time>2022-05-08T21:48:12.400Z</time>
      </trkpt>
      <trkpt lat="46.69601" lon="-1.95183">
        <ele>2.73624</ele>
        <time>2022-05-08T21:48:14.065Z</time>
      </trkpt>
      <trkpt lat="46.69655" lon="-1.95055">
        <ele>2.736029</ele>
        <time>2022-05-08T21:48:34.249Z</time>
      </trkpt>
      <trkpt lat="46.69686" lon="-1.94984">
        <ele>2.690552</ele>
        <time>2022-05-08T21:48:44.131Z</time>
      </trkpt>
      <trkpt lat="46.69699" lon="-1.94965">
        <ele>2.675724</ele>
        <time>2022-05-08T21:48:47.197Z</time>
      </trkpt>
      <trkpt lat="46.69755" lon="-1.94897">
        <ele>2.498919</ele>
        <time>2022-05-08T21:48:59.397Z</time>
      </trkpt>
      <trkpt lat="46.6977" lon="-1.94858">
        <ele>2.366359</ele>
        <time>2022-05-08T21:49:04.707Z</time>
      </trkpt>
      <trkpt lat="46.6978" lon="-1.94827">
        <ele>2.268809</ele>
        <time>2022-05-08T21:49:08.485Z</time>
      </trkpt>
      <trkpt lat="46.69784" lon="-1.94815">
        <ele>2.229957</ele>
        <time>2022-05-08T21:49:10.029Z</time>
      </trkpt>
      <trkpt lat="46.69794" lon="-1.94787">
        <ele>2.137049</ele>
        <time>2022-05-08T21:49:13.663Z</time>
      </trkpt>
      <trkpt lat="46.69799" lon="-1.94772">
        <ele>2.088298</ele>
        <time>2022-05-08T21:49:15.584Z</time>
      </trkpt>
      <trkpt lat="46.69804" lon="-1.94758">
        <ele>2.043047</ele>
        <time>2022-05-08T21:49:17.443Z</time>
      </trkpt>
      <trkpt lat="46.69806" lon="-1.94751">
        <ele>2.019915</ele>
        <time>2022-05-08T21:49:18.356Z</time>
      </trkpt>
      <trkpt lat="46.69809" lon="-1.94743">
        <ele>1.994733</ele>
        <time>2022-05-08T21:49:19.364Z</time>
      </trkpt>
      <trkpt lat="46.69808" lon="-1.94736">
        <ele>1.972561</ele>
        <time>2022-05-08T21:49:20.201Z</time>
      </trkpt>
      <trkpt lat="46.69812" lon="-1.94689">
        <ele>1.914734</ele>
        <time>2022-05-08T21:49:25.674Z</time>
      </trkpt>
      <trkpt lat="46.698" lon="-1.94638">
        <ele>2.025938</ele>
        <time>2022-05-08T21:49:32.105Z</time>
      </trkpt>
      <trkpt lat="46.69797" lon="-1.94622">
        <ele>2.05982</ele>
        <time>2022-05-08T21:49:34.138Z</time>
      </trkpt>
      <trkpt lat="46.69778" lon="-1.94539">
        <ele>2.238075</ele>
        <time>2022-05-08T21:49:46.457Z</time>
      </trkpt>
      <trkpt lat="46.69756" lon="-1.94475">
        <ele>2.385436</ele>
        <time>2022-05-08T21:49:56.292Z</time>
      </trkpt>
      <trkpt lat="46.69755" lon="-1.94471">
        <ele>2.393625</ele>
        <time>2022-05-08T21:49:56.828Z</time>
      </trkpt>
      <trkpt lat="46.69748" lon="-1.9445">
        <ele>2.446883</ele>
        <time>2022-05-08T21:50:00.001Z</time>
      </trkpt>
      <trkpt lat="46.69731" lon="-1.94399">
        <ele>2.589322</ele>
        <time>2022-05-08T21:50:07.657Z</time>
      </trkpt>
      <trkpt lat="46.69727" lon="-1.94387">
        <ele>2.622468</ele>
        <time>2022-05-08T21:50:09.408Z</time>
      </trkpt>
      <trkpt lat="46.69697" lon="-1.94293">
        <ele>2.884353</ele>
        <time>2022-05-08T21:50:22.603Z</time>
      </trkpt>
      <trkpt lat="46.69694" lon="-1.94283">
        <ele>2.912419</ele>
        <time>2022-05-08T21:50:24.039Z</time>
      </trkpt>
      <trkpt lat="46.69658" lon="-1.94132">
        <ele>3.442535</ele>
        <time>2022-05-08T21:50:46.002Z</time>
      </trkpt>
      <trkpt lat="46.69672" lon="-1.94109">
        <ele>3.563998</ele>
        <time>2022-05-08T21:50:50.420Z</time>
      </trkpt>
      <trkpt lat="46.69673" lon="-1.94091">
        <ele>3.631318</ele>
        <time>2022-05-08T21:50:52.987Z</time>
      </trkpt>
      <trkpt lat="46.69672" lon="-1.94027">
        <ele>3.880731</ele>
        <time>2022-05-08T21:51:01.758Z</time>
      </trkpt>
      <trkpt lat="46.69668" lon="-1.94003">
        <ele>3.975966</ele>
        <time>2022-05-08T21:51:05.073Z</time>
      </trkpt>
      <trkpt lat="46.6966" lon="-1.93985">
        <ele>4.057486</ele>
        <time>2022-05-08T21:51:08.038Z</time>
      </trkpt>
      <trkpt lat="46.69648" lon="-1.93999">
        <ele>4.102675</ele>
        <time>2022-05-08T21:51:10.891Z</time>
      </trkpt>
      <trkpt lat="46.6964" lon="-1.93986">
        <ele>4.116231</ele>
        <time>2022-05-08T21:51:13.373Z</time>
      </trkpt>
      <trkpt lat="46.69628" lon="-1.9393">
        <ele>4.159804</ele>
        <time>2022-05-08T21:51:21.125Z</time>
      </trkpt>
      <trkpt lat="46.69645" lon="-1.93922">
        <ele>4.178938</ele>
        <time>2022-05-08T21:51:24.318Z</time>
      </trkpt>
      <trkpt lat="46.6968" lon="-1.93911">
        <ele>4.218435</ele>
        <time>2022-05-08T21:51:30.720Z</time>
      </trkpt>
      <trkpt lat="46.69697" lon="-1.93861">
        <ele>4.260746</ele>
        <time>2022-05-08T21:51:37.532Z</time>
      </trkpt>
      <trkpt lat="46.69705" lon="-1.93707">
        <ele>4.153515</ele>
        <time>2022-05-08T21:51:55.607Z</time>
      </trkpt>
      <trkpt lat="46.69684" lon="-1.93687">
        <ele>4.1088</ele>
        <time>2022-05-08T21:51:59.981Z</time>
      </trkpt>
      <trkpt lat="46.6968" lon="-1.93683">
        <ele>4.099637</ele>
        <time>2022-05-08T21:52:00.872Z</time>
      </trkpt>
      <trkpt lat="46.69659" lon="-1.93663">
        <ele>4.056291</ele>
        <time>2022-05-08T21:52:05.130Z</time>
      </trkpt>
      <trkpt lat="46.69631" lon="-1.93632">
        <ele>3.995109</ele>
        <time>2022-05-08T21:52:11.235Z</time>
      </trkpt>
      <trkpt lat="46.69605" lon="-1.93598">
        <ele>4.00495</ele>
        <time>2022-05-08T21:52:17.759Z</time>
      </trkpt>
      <trkpt lat="46.69612" lon="-1.93585">
        <ele>4.019287</ele>
        <time>2022-05-08T21:52:19.925Z</time>
      </trkpt>
      <trkpt lat="46.6961" lon="-1.93571">
        <ele>4.031414</ele>
        <time>2022-05-08T21:52:22.873Z</time>
      </trkpt>
      <trkpt lat="46.6961" lon="-1.93547">
        <ele>4.052234</ele>
        <time>2022-05-08T21:52:28.146Z</time>
      </trkpt>
      <trkpt lat="46.69615" lon="-1.93541">
        <ele>4.061069</ele>
        <time>2022-05-08T21:52:29.487Z</time>
      </trkpt>
      <trkpt lat="46.69623" lon="-1.93528">
        <ele>4.075838</ele>
        <time>2022-05-08T21:52:31.672Z</time>
      </trkpt>
      <trkpt lat="46.69631" lon="-1.93499">
        <ele>4.102439</ele>
        <time>2022-05-08T21:52:35.719Z</time>
      </trkpt>
      <trkpt lat="46.69628" lon="-1.93451">
        <ele>4.144291</ele>
        <time>2022-05-08T21:52:41.787Z</time>
      </trkpt>
      <trkpt lat="46.6963" lon="-1.93446">
        <ele>4.149268</ele>
        <time>2022-05-08T21:52:43.004Z</time>
      </trkpt>
      <trkpt lat="46.69624" lon="-1.93437">
        <ele>4.159385</ele>
        <time>2022-05-08T21:52:44.415Z</time>
      </trkpt>
      <trkpt lat="46.69621" lon="-1.93436">
        <ele>4.163474</ele>
        <time>2022-05-08T21:52:44.984Z</time>
      </trkpt>
      <trkpt lat="46.69617" lon="-1.93423">
        <ele>4.175746</ele>
        <time>2022-05-08T21:52:46.813Z</time>
      </trkpt>
      <trkpt lat="46.69607" lon="-1.93416">
        <ele>4.189201</ele>
        <time>2022-05-08T21:52:48.741Z</time>
      </trkpt>
      <trkpt lat="46.69605" lon="-1.93415">
        <ele>4.19213</ele>
        <time>2022-05-08T21:52:49.190Z</time>
      </trkpt>
      <trkpt lat="46.69603" lon="-1.93424">
        <ele>4.199995</ele>
        <time>2022-05-08T21:52:50.266Z</time>
      </trkpt>
      <trkpt lat="46.6942" lon="-1.93344">
        <ele>3.74318</ele>
        <time>2022-05-08T21:53:23.329Z</time>
      </trkpt>
      <trkpt lat="46.69402" lon="-1.93341">
        <ele>3.638231</ele>
        <time>2022-05-08T21:53:26.524Z</time>
      </trkpt>
      <trkpt lat="46.69384" lon="-1.93352">
        <ele>3.532458</ele>
        <time>2022-05-08T21:53:29.660Z</time>
      </trkpt>
      <trkpt lat="46.69372" lon="-1.93338">
        <ele>3.448569</ele>
        <time>2022-05-08T21:53:32.239Z</time>
      </trkpt>
      <trkpt lat="46.6935" lon="-1.93345">
        <ele>3.324309</ele>
        <time>2022-05-08T21:53:35.892Z</time>
      </trkpt>
      <trkpt lat="46.69343" lon="-1.93333">
        <ele>3.264713</ele>
        <time>2022-05-08T21:53:37.704Z</time>
      </trkpt>
      <trkpt lat="46.69223" lon="-1.93317">
        <ele>2.684257</ele>
        <time>2022-05-08T21:53:57.476Z</time>
      </trkpt>
      <trkpt lat="46.69197" lon="-1.93314">
        <ele>2.604346</ele>
        <time>2022-05-08T21:54:01.829Z</time>
      </trkpt>
      <trkpt lat="46.69186" lon="-1.93319">
        <ele>2.568555</ele>
        <time>2022-05-08T21:54:03.781Z</time>
      </trkpt>
      <trkpt lat="46.69178" lon="-1.93321">
        <ele>2.543487</ele>
        <time>2022-05-08T21:54:05.207Z</time>
      </trkpt>
      <trkpt lat="46.69173" lon="-1.93325">
        <ele>2.526658</ele>
        <time>2022-05-08T21:54:06.216Z</time>
      </trkpt>
      <trkpt lat="46.69168" lon="-1.93322">
        <ele>2.508739</ele>
        <time>2022-05-08T21:54:07.203Z</time>
      </trkpt>
      <trkpt lat="46.69162" lon="-1.93318">
        <ele>2.487716</ele>
        <time>2022-05-08T21:54:08.408Z</time>
      </trkpt>
      <trkpt lat="46.69161" lon="-1.93304">
        <ele>2.458022</ele>
        <time>2022-05-08T21:54:10.234Z</time>
      </trkpt>
      <trkpt lat="46.69147" lon="-1.93282">
        <ele>2.394603</ele>
        <time>2022-05-08T21:54:14.218Z</time>
      </trkpt>
      <trkpt lat="46.69089" lon="-1.93181">
        <ele>2.380785</ele>
        <time>2022-05-08T21:54:32.085Z</time>
      </trkpt>
      <trkpt lat="46.69063" lon="-1.93164">
        <ele>2.476219</ele>
        <time>2022-05-08T21:54:38.088Z</time>
      </trkpt>
      <trkpt lat="46.68995" lon="-1.93163">
        <ele>2.700294</ele>
        <time>2022-05-08T21:54:52.832Z</time>
      </trkpt>
      <trkpt lat="46.68944" lon="-1.93169">
        <ele>2.872796</ele>
        <time>2022-05-08T21:55:04.097Z</time>
      </trkpt>
      <trkpt lat="46.68913" lon="-1.9318">
        <ele>2.981048</ele>
        <time>2022-05-08T21:55:10.859Z</time>
      </trkpt>
      <trkpt lat="46.68839" lon="-1.93226">
        <ele>3.248463</ele>
        <time>2022-05-08T21:55:27.671Z</time>
      </trkpt>
      <trkpt lat="46.68836" lon="-1.93228">
        <ele>3.262772</ele>
        <time>2022-05-08T21:55:28.572Z</time>
      </trkpt>
      <trkpt lat="46.68815" lon="-1.93241">
        <ele>3.338698</ele>
        <time>2022-05-08T21:55:33.322Z</time>
      </trkpt>
      <trkpt lat="46.68782" lon="-1.93243">
        <ele>3.446963</ele>
        <time>2022-05-08T21:55:40.219Z</time>
      </trkpt>
      <trkpt lat="46.6869" lon="-1.93222">
        <ele>3.507899</ele>
        <time>2022-05-08T21:55:59.160Z</time>
      </trkpt>
      <trkpt lat="46.68635" lon="-1.93193">
        <ele>3.546069</ele>
        <time>2022-05-08T21:56:10.741Z</time>
      </trkpt>
      <trkpt lat="46.68455" lon="-1.93025">
        <ele>3.446904</ele>
        <time>2022-05-08T21:56:52.402Z</time>
      </trkpt>
      <trkpt lat="46.68299" lon="-1.92799">
        <ele>3.82646</ele>
        <time>2022-05-08T21:57:36.488Z</time>
      </trkpt>
      <trkpt lat="46.68269" lon="-1.92745">
        <ele>4.078606</ele>
        <time>2022-05-08T21:57:47.346Z</time>
      </trkpt>
      <trkpt lat="46.68207" lon="-1.92675">
        <ele>4.487238</ele>
        <time>2022-05-08T21:58:05.189Z</time>
      </trkpt>
      <trkpt lat="46.68176" lon="-1.92614">
        <ele>4.606205</ele>
        <time>2022-05-08T21:58:17.041Z</time>
      </trkpt>
      <trkpt lat="46.68112" lon="-1.92517">
        <ele>4.772058</ele>
        <time>2022-05-08T21:58:34.546Z</time>
      </trkpt>
      <trkpt lat="46.68058" lon="-1.92385">
        <ele>4.522021</ele>
        <time>2022-05-08T21:58:52.212Z</time>
      </trkpt>
      <trkpt lat="46.67983" lon="-1.92298">
        <ele>4.019937</ele>
        <time>2022-05-08T21:59:09.721Z</time>
      </trkpt>
      <trkpt lat="46.67931" lon="-1.92241">
        <ele>3.901594</ele>
        <time>2022-05-08T21:59:22.201Z</time>
      </trkpt>
      <trkpt lat="46.67883" lon="-1.92209">
        <ele>3.894498</ele>
        <time>2022-05-08T21:59:32.453Z</time>
      </trkpt>
      <trkpt lat="46.67857" lon="-1.92186">
        <ele>3.890302</ele>
        <time>2022-05-08T21:59:38.884Z</time>
      </trkpt>
      <trkpt lat="46.67838" lon="-1.9215">
        <ele>3.886152</ele>
        <time>2022-05-08T21:59:45.396Z</time>
      </trkpt>
      <trkpt lat="46.6782" lon="-1.92071">
        <ele>3.955608</ele>
        <time>2022-05-08T21:59:57.359Z</time>
      </trkpt>
      <trkpt lat="46.67797" lon="-1.92024">
        <ele>4.036278</ele>
        <time>2022-05-08T22:00:05.611Z</time>
      </trkpt>
      <trkpt lat="46.67661" lon="-1.91793">
        <ele>4.341311</ele>
        <time>2022-05-08T22:00:47.926Z</time>
      </trkpt>
      <trkpt lat="46.676" lon="-1.91668">
        <ele>4.430995</ele>
        <time>2022-05-08T22:01:08.982Z</time>
      </trkpt>
      <trkpt lat="46.67533" lon="-1.91515">
        <ele>4.531423</ele>
        <time>2022-05-08T22:01:34.073Z</time>
      </trkpt>
      <trkpt lat="46.67498" lon="-1.91449">
        <ele>4.634712</ele>
        <time>2022-05-08T22:01:45.537Z</time>
      </trkpt>
      <trkpt lat="46.67485" lon="-1.91415">
        <ele>4.703138</ele>
        <time>2022-05-08T22:01:50.944Z</time>
      </trkpt>
      <trkpt lat="46.6747" lon="-1.91403">
        <ele>4.748342</ele>
        <time>2022-05-08T22:01:54.592Z</time>
      </trkpt>
      <trkpt lat="46.67467" lon="-1.91394">
        <ele>4.767067</ele>
        <time>2022-05-08T22:01:56.100Z</time>
      </trkpt>
      <trkpt lat="46.6746" lon="-1.91395">
        <ele>4.785439</ele>
        <time>2022-05-08T22:01:57.522Z</time>
      </trkpt>
      <trkpt lat="46.67396" lon="-1.91281">
        <ele>4.998513</ele>
        <time>2022-05-08T22:02:19.097Z</time>
      </trkpt>
      <trkpt lat="46.67372" lon="-1.9123">
        <ele>4.909476</ele>
        <time>2022-05-08T22:02:27.697Z</time>
      </trkpt>
      <trkpt lat="46.67357" lon="-1.91182">
        <ele>4.833557</ele>
        <time>2022-05-08T22:02:34.802Z</time>
      </trkpt>
      <trkpt lat="46.67355" lon="-1.91176">
        <ele>4.823722</ele>
        <time>2022-05-08T22:02:35.706Z</time>
      </trkpt>
      <trkpt lat="46.67267" lon="-1.90991">
        <ele>4.316338</ele>
        <time>2022-05-08T22:03:04.104Z</time>
      </trkpt>
      <trkpt lat="46.67199" lon="-1.90894">
        <ele>3.857764</ele>
        <time>2022-05-08T22:03:21.938Z</time>
      </trkpt>
      <trkpt lat="46.67149" lon="-1.90804">
        <ele>3.902641</ele>
        <time>2022-05-08T22:03:37.696Z</time>
      </trkpt>
      <trkpt lat="46.67144" lon="-1.90809">
        <ele>3.91396</ele>
        <time>2022-05-08T22:03:38.737Z</time>
      </trkpt>
      <trkpt lat="46.67136" lon="-1.9082">
        <ele>3.936917</ele>
        <time>2022-05-08T22:03:40.887Z</time>
      </trkpt>
      <trkpt lat="46.67102" lon="-1.90867">
        <ele>4.028594</ele>
        <time>2022-05-08T22:03:50.687Z</time>
      </trkpt>
      <trkpt lat="46.66989" lon="-1.90827">
        <ele>4.46767</ele>
        <time>2022-05-08T22:04:15.837Z</time>
      </trkpt>
      <trkpt lat="46.66959" lon="-1.90824">
        <ele>4.628643</ele>
        <time>2022-05-08T22:04:22.671Z</time>
      </trkpt>
      <trkpt lat="46.66919" lon="-1.90837">
        <ele>4.841446</ele>
        <time>2022-05-08T22:04:31.325Z</time>
      </trkpt>
      <trkpt lat="46.66776" lon="-1.90954">
        <ele>5.980017</ele>
        <time>2022-05-08T22:05:07.917Z</time>
      </trkpt>
      <trkpt lat="46.66757" lon="-1.90984">
        <ele>6.191286</ele>
        <time>2022-05-08T22:05:14.687Z</time>
      </trkpt>
      <trkpt lat="46.66751" lon="-1.91003">
        <ele>6.299428</ele>
        <time>2022-05-08T22:05:17.828Z</time>
      </trkpt>
      <trkpt lat="46.66749" lon="-1.91036">
        <ele>6.47468</ele>
        <time>2022-05-08T22:05:23.770Z</time>
      </trkpt>
      <trkpt lat="46.66734" lon="-1.91064">
        <ele>6.653809</ele>
        <time>2022-05-08T22:05:29.298Z</time>
      </trkpt>
      <trkpt lat="46.66703" lon="-1.91105">
        <ele>6.967903</ele>
        <time>2022-05-08T22:05:39.304Z</time>
      </trkpt>
      <trkpt lat="46.66683" lon="-1.91109">
        <ele>7.118279</ele>
        <time>2022-05-08T22:05:43.702Z</time>
      </trkpt>
      <trkpt lat="46.66669" lon="-1.91074">
        <ele>7.323861</ele>
        <time>2022-05-08T22:05:50.213Z</time>
      </trkpt>
      <trkpt lat="46.66668" lon="-1.90999">
        <ele>7.713191</ele>
        <time>2022-05-08T22:06:01.351Z</time>
      </trkpt>
      <trkpt lat="46.66696" lon="-1.90884">
        <ele>7.690699</ele>
        <time>2022-05-08T22:06:19.170Z</time>
      </trkpt>
      <trkpt lat="46.66701" lon="-1.90787">
        <ele>7.599778</ele>
        <time>2022-05-08T22:06:32.061Z</time>
      </trkpt>
      <trkpt lat="46.66693" lon="-1.90718">
        <ele>7.445021</ele>
        <time>2022-05-08T22:06:40.816Z</time>
      </trkpt>
      <trkpt lat="46.6668" lon="-1.90659">
        <ele>6.908977</ele>
        <time>2022-05-08T22:06:48.390Z</time>
      </trkpt>
      <trkpt lat="46.66661" lon="-1.90618">
        <ele>6.47749</ele>
        <time>2022-05-08T22:06:54.291Z</time>
      </trkpt>
      <trkpt lat="46.66572" lon="-1.90601">
        <ele>5.33968</ele>
        <time>2022-05-08T22:07:09.713Z</time>
      </trkpt>
      <trkpt lat="46.66535" lon="-1.90607">
        <ele>4.959736</ele>
        <time>2022-05-08T22:07:16.110Z</time>
      </trkpt>
      <trkpt lat="46.66506" lon="-1.90604">
        <ele>4.675844</ele>
        <time>2022-05-08T22:07:21.109Z</time>
      </trkpt>
      <trkpt lat="46.66456" lon="-1.90585">
        <ele>4.171243</ele>
        <time>2022-05-08T22:07:30.212Z</time>
      </trkpt>
      <trkpt lat="46.66393" lon="-1.90609">
        <ele>3.537281</ele>
        <time>2022-05-08T22:07:42.128Z</time>
      </trkpt>
      <trkpt lat="46.66371" lon="-1.90637">
        <ele>3.537798</ele>
        <time>2022-05-08T22:07:47.772Z</time>
      </trkpt>
      <trkpt lat="46.66236" lon="-1.90614">
        <ele>3.666933</ele>
        <time>2022-05-08T22:08:15.547Z</time>
      </trkpt>
      <trkpt lat="46.66205" lon="-1.90601">
        <ele>3.863494</ele>
        <time>2022-05-08T22:08:25.789Z</time>
      </trkpt>
      <trkpt lat="46.66154" lon="-1.906">
        <ele>4.460159</ele>
        <time>2022-05-08T22:08:42.154Z</time>
      </trkpt>
      <trkpt lat="46.66128" lon="-1.90577">
        <ele>4.817</ele>
        <time>2022-05-08T22:08:52.761Z</time>
      </trkpt>
      <trkpt lat="46.66117" lon="-1.9055">
        <ele>5.07523</ele>
        <time>2022-05-08T22:08:58.531Z</time>
      </trkpt>
      <trkpt lat="46.6609" lon="-1.90439">
        <ele>6.071248</ele>
        <time>2022-05-08T22:09:19.497Z</time>
      </trkpt>
      <trkpt lat="46.66091" lon="-1.90388">
        <ele>6.56692</ele>
        <time>2022-05-08T22:09:28.893Z</time>
      </trkpt>
      <trkpt lat="46.66083" lon="-1.90345">
        <ele>6.997011</ele>
        <time>2022-05-08T22:09:37.152Z</time>
      </trkpt>
      <trkpt lat="46.66083" lon="-1.90296">
        <ele>7.477039</ele>
        <time>2022-05-08T22:09:46.004Z</time>
      </trkpt>
      <trkpt lat="46.66105" lon="-1.90217">
        <ele>8.295998</ele>
        <time>2022-05-08T22:10:00.466Z</time>
      </trkpt>
      <trkpt lat="46.66121" lon="-1.90179">
        <ele>8.32664</ele>
        <time>2022-05-08T22:10:07.532Z</time>
      </trkpt>
      <trkpt lat="46.66122" lon="-1.90152">
        <ele>8.307024</ele>
        <time>2022-05-08T22:10:11.258Z</time>
      </trkpt>
      <trkpt lat="46.66117" lon="-1.90111">
        <ele>8.277123</ele>
        <time>2022-05-08T22:10:16.779Z</time>
      </trkpt>
      <trkpt lat="46.6611" lon="-1.90093">
        <ele>8.26272</ele>
        <time>2022-05-08T22:10:19.426Z</time>
      </trkpt>
      <trkpt lat="46.66085" lon="-1.90057">
        <ele>8.225289</ele>
        <time>2022-05-08T22:10:26.009Z</time>
      </trkpt>
      <trkpt lat="46.66073" lon="-1.9001">
        <ele>8.189101</ele>
        <time>2022-05-08T22:10:32.418Z</time>
      </trkpt>
      <trkpt lat="46.66051" lon="-1.89989">
        <ele>8.149652</ele>
        <time>2022-05-08T22:10:37.375Z</time>
      </trkpt>
      <trkpt lat="46.66031" lon="-1.89982">
        <ele>8.076883</ele>
        <time>2022-05-08T22:10:41.173Z</time>
      </trkpt>
      <trkpt lat="46.65996" lon="-1.89953">
        <ele>7.935171</ele>
        <time>2022-05-08T22:10:48.707Z</time>
      </trkpt>
      <trkpt lat="46.6597" lon="-1.89943">
        <ele>7.838956</ele>
        <time>2022-05-08T22:10:53.758Z</time>
      </trkpt>
      <trkpt lat="46.65949" lon="-1.89922">
        <ele>7.750117</ele>
        <time>2022-05-08T22:10:58.596Z</time>
      </trkpt>
      <trkpt lat="46.65883" lon="-1.89889">
        <ele>7.521374</ele>
        <time>2022-05-08T22:11:11.996Z</time>
      </trkpt>
      <trkpt lat="46.65652" lon="-1.89735">
        <ele>7.420342</ele>
        <time>2022-05-08T22:12:01.881Z</time>
      </trkpt>
      <trkpt lat="46.65544" lon="-1.89674">
        <ele>7.558063</ele>
        <time>2022-05-08T22:12:25.394Z</time>
      </trkpt>
      <trkpt lat="46.65454" lon="-1.89607">
        <ele>7.955635</ele>
        <time>2022-05-08T22:12:46.701Z</time>
      </trkpt>
      <trkpt lat="46.65445" lon="-1.89607">
        <ele>7.993694</ele>
        <time>2022-05-08T22:12:49.151Z</time>
      </trkpt>
      <trkpt lat="46.65415" lon="-1.89638">
        <ele>8.138923</ele>
        <time>2022-05-08T22:12:57.062Z</time>
      </trkpt>
      <trkpt lat="46.65376" lon="-1.89706">
        <ele>8.540523</ele>
        <time>2022-05-08T22:13:10.284Z</time>
      </trkpt>
      <trkpt lat="46.65321" lon="-1.89759">
        <ele>9.025546</ele>
        <time>2022-05-08T22:13:25.669Z</time>
      </trkpt>
      <trkpt lat="46.65305" lon="-1.89768">
        <ele>9.153304</ele>
        <time>2022-05-08T22:13:29.503Z</time>
      </trkpt>
      <trkpt lat="46.6526" lon="-1.89717">
        <ele>9.604254</ele>
        <time>2022-05-08T22:13:42.449Z</time>
      </trkpt>
      <trkpt lat="46.65245" lon="-1.89708">
        <ele>9.797155</ele>
        <time>2022-05-08T22:13:46.115Z</time>
      </trkpt>
      <trkpt lat="46.65222" lon="-1.89705">
        <ele>10.06761</ele>
        <time>2022-05-08T22:13:51.329Z</time>
      </trkpt>
      <trkpt lat="46.65201" lon="-1.89717">
        <ele>10.333664</ele>
        <time>2022-05-08T22:13:56.690Z</time>
      </trkpt>
      <trkpt lat="46.65155" lon="-1.89762">
        <ele>10.99731</ele>
        <time>2022-05-08T22:14:10.854Z</time>
      </trkpt>
      <trkpt lat="46.65141" lon="-1.89764">
        <ele>11.15759</ele>
        <time>2022-05-08T22:14:14.145Z</time>
      </trkpt>
      <trkpt lat="46.65106" lon="-1.89742">
        <ele>11.609841</ele>
        <time>2022-05-08T22:14:23.874Z</time>
      </trkpt>
      <trkpt lat="46.65087" lon="-1.8971">
        <ele>12.017282</ele>
        <time>2022-05-08T22:14:31.306Z</time>
      </trkpt>
      <trkpt lat="46.65064" lon="-1.89699">
        <ele>12.365537</ele>
        <time>2022-05-08T22:14:37.779Z</time>
      </trkpt>
      <trkpt lat="46.65041" lon="-1.89649">
        <ele>12.947945</ele>
        <time>2022-05-08T22:14:48.039Z</time>
      </trkpt>
      <trkpt lat="46.65007" lon="-1.89603">
        <ele>13.610434</ele>
        <time>2022-05-08T22:14:59.833Z</time>
      </trkpt>
      <trkpt lat="46.64967" lon="-1.89477">
        <ele>14.910604</ele>
        <time>2022-05-08T22:15:24.339Z</time>
      </trkpt>
      <trkpt lat="46.64943" lon="-1.89426">
        <ele>15.458344</ele>
        <time>2022-05-08T22:15:34.970Z</time>
      </trkpt>
      <trkpt lat="46.64902" lon="-1.8931">
        <ele>16.60213</ele>
        <time>2022-05-08T22:15:57.282Z</time>
      </trkpt>
      <trkpt lat="46.64847" lon="-1.89341">
        <ele>17.021085</ele>
        <time>2022-05-08T22:16:11.169Z</time>
      </trkpt>
      <trkpt lat="46.64816" lon="-1.89372">
        <ele>17.289957</ele>
        <time>2022-05-08T22:16:19.853Z</time>
      </trkpt>
      <trkpt lat="46.64801" lon="-1.89409">
        <ele>17.498387</ele>
        <time>2022-05-08T22:16:26.340Z</time>
      </trkpt>
      <trkpt lat="46.64785" lon="-1.89419">
        <ele>17.622175</ele>
        <time>2022-05-08T22:16:30.300Z</time>
      </trkpt>
      <trkpt lat="46.64776" lon="-1.89448">
        <ele>17.77519</ele>
        <time>2022-05-08T22:16:34.819Z</time>
      </trkpt>
      <trkpt lat="46.64752" lon="-1.89449">
        <ele>17.838369</ele>
        <time>2022-05-08T22:16:39.885Z</time>
      </trkpt>
      <trkpt lat="46.64717" lon="-1.8943">
        <ele>17.792736</ele>
        <time>2022-05-08T22:16:47.419Z</time>
      </trkpt>
      <trkpt lat="46.64687" lon="-1.89425">
        <ele>17.755646</ele>
        <time>2022-05-08T22:16:53.404Z</time>
      </trkpt>
      <trkpt lat="46.64649" lon="-1.89401">
        <ele>17.706671</ele>
        <time>2022-05-08T22:17:01.219Z</time>
      </trkpt>
      <trkpt lat="46.64623" lon="-1.89361">
        <ele>17.66019</ele>
        <time>2022-05-08T22:17:08.528Z</time>
      </trkpt>
      <trkpt lat="46.6457" lon="-1.89344">
        <ele>17.374936</ele>
        <time>2022-05-08T22:17:18.651Z</time>
      </trkpt>
      <trkpt lat="46.64556" lon="-1.89338">
        <ele>17.26624</ele>
        <time>2022-05-08T22:17:21.281Z</time>
      </trkpt>
      <trkpt lat="46.64529" lon="-1.89346">
        <ele>17.063021</ele>
        <time>2022-05-08T22:17:26.261Z</time>
      </trkpt>
      <trkpt lat="46.64508" lon="-1.89376">
        <ele>16.842041</ele>
        <time>2022-05-08T22:17:31.661Z</time>
      </trkpt>
      <trkpt lat="46.64478" lon="-1.89382">
        <ele>16.608463</ele>
        <time>2022-05-08T22:17:37.333Z</time>
      </trkpt>
      <trkpt lat="46.64446" lon="-1.89389">
        <ele>16.364266</ele>
        <time>2022-05-08T22:17:43.103Z</time>
      </trkpt>
      <trkpt lat="46.64424" lon="-1.89374">
        <ele>16.106676</ele>
        <time>2022-05-08T22:17:47.302Z</time>
      </trkpt>
      <trkpt lat="46.64404" lon="-1.89346">
        <ele>15.723452</ele>
        <time>2022-05-08T22:17:52.127Z</time>
      </trkpt>
      <trkpt lat="46.64379" lon="-1.89351">
        <ele>15.377755</ele>
        <time>2022-05-08T22:17:56.369Z</time>
      </trkpt>
      <trkpt lat="46.64359" lon="-1.89343">
        <ele>15.086846</ele>
        <time>2022-05-08T22:17:59.939Z</time>
      </trkpt>
      <trkpt lat="46.64338" lon="-1.89359">
        <ele>14.746667</ele>
        <time>2022-05-08T22:18:04.115Z</time>
      </trkpt>
      <trkpt lat="46.64303" lon="-1.8937">
        <ele>14.25879</ele>
        <time>2022-05-08T22:18:10.189Z</time>
      </trkpt>
      <trkpt lat="46.64285" lon="-1.89416">
        <ele>13.741954</ele>
        <time>2022-05-08T22:18:16.591Z</time>
      </trkpt>
      <trkpt lat="46.64277" lon="-1.89472">
        <ele>13.028286</ele>
        <time>2022-05-08T22:18:23.244Z</time>
      </trkpt>
      <trkpt lat="46.64273" lon="-1.89477">
        <ele>12.929488</ele>
        <time>2022-05-08T22:18:24.177Z</time>
      </trkpt>
      <trkpt lat="46.64193" lon="-1.89452">
        <ele>11.445263</ele>
        <time>2022-05-08T22:18:37.726Z</time>
      </trkpt>
      <trkpt lat="46.64081" lon="-1.89421">
        <ele>9.303137</ele>
        <time>2022-05-08T22:18:56.490Z</time>
      </trkpt>
      <trkpt lat="46.64015" lon="-1.89429">
        <ele>8.022693</ele>
        <time>2022-05-08T22:19:07.413Z</time>
      </trkpt>
      <trkpt lat="46.64002" lon="-1.89436">
        <ele>7.760281</ele>
        <time>2022-05-08T22:19:09.587Z</time>
      </trkpt>
      <trkpt lat="46.63968" lon="-1.89441">
        <ele>7.099066</ele>
        <time>2022-05-08T22:19:15.436Z</time>
      </trkpt>
      <trkpt lat="46.63952" lon="-1.89444">
        <ele>7.032621</ele>
        <time>2022-05-08T22:19:18.166Z</time>
      </trkpt>
      <trkpt lat="46.6393" lon="-1.89439">
        <ele>7.00996</ele>
        <time>2022-05-08T22:19:22.107Z</time>
      </trkpt>
      <trkpt lat="46.63898" lon="-1.89422">
        <ele>6.975476</ele>
        <time>2022-05-08T22:19:27.897Z</time>
      </trkpt>
      <trkpt lat="46.63876" lon="-1.89393">
        <ele>6.946125</ele>
        <time>2022-05-08T22:19:33.263Z</time>
      </trkpt>
      <trkpt lat="46.63855" lon="-1.89363">
        <ele>6.916305</ele>
        <time>2022-05-08T22:19:38.825Z</time>
      </trkpt>
      <trkpt lat="46.63837" lon="-1.89336">
        <ele>6.890181</ele>
        <time>2022-05-08T22:19:44.082Z</time>
      </trkpt>
      <trkpt lat="46.63797" lon="-1.89278">
        <ele>6.918185</ele>
        <time>2022-05-08T22:19:56.673Z</time>
      </trkpt>
      <trkpt lat="46.63793" lon="-1.8926">
        <ele>6.94099</ele>
        <time>2022-05-08T22:19:59.348Z</time>
      </trkpt>
      <trkpt lat="46.63772" lon="-1.89236">
        <ele>6.986633</ele>
        <time>2022-05-08T22:20:04.729Z</time>
      </trkpt>
      <trkpt lat="46.63733" lon="-1.89208">
        <ele>7.063334</ele>
        <time>2022-05-08T22:20:12.858Z</time>
      </trkpt>
      <trkpt lat="46.63717" lon="-1.89198">
        <ele>7.093737</ele>
        <time>2022-05-08T22:20:15.919Z</time>
      </trkpt>
      <trkpt lat="46.63709" lon="-1.89192">
        <ele>7.109987</ele>
        <time>2022-05-08T22:20:17.753Z</time>
      </trkpt>
      <trkpt lat="46.63675" lon="-1.89168">
        <ele>7.176156</ele>
        <time>2022-05-08T22:20:24.112Z</time>
      </trkpt>
      <trkpt lat="46.6366" lon="-1.89158">
        <ele>7.042639</ele>
        <time>2022-05-08T22:20:26.657Z</time>
      </trkpt>
      <trkpt lat="46.63659" lon="-1.89158">
        <ele>7.033239</ele>
        <time>2022-05-08T22:20:26.832Z</time>
      </trkpt>
      <trkpt lat="46.63658" lon="-1.89151">
        <ele>6.989144</ele>
        <time>2022-05-08T22:20:27.485Z</time>
      </trkpt>
      <trkpt lat="46.63573" lon="-1.89093">
        <ele>6.09602</ele>
        <time>2022-05-08T22:20:42.328Z</time>
      </trkpt>
      <trkpt lat="46.63538" lon="-1.89067">
        <ele>5.722605</ele>
        <time>2022-05-08T22:20:48.440Z</time>
      </trkpt>
      <trkpt lat="46.63525" lon="-1.89049">
        <ele>5.554027</ele>
        <time>2022-05-08T22:20:51.187Z</time>
      </trkpt>
      <trkpt lat="46.63492" lon="-1.8897">
        <ele>5.305753</ele>
        <time>2022-05-08T22:21:01.700Z</time>
      </trkpt>
      <trkpt lat="46.63451" lon="-1.8889">
        <ele>5.101465</ele>
        <time>2022-05-08T22:21:13.905Z</time>
      </trkpt>
      <trkpt lat="46.63437" lon="-1.88841">
        <ele>4.992637</ele>
        <time>2022-05-08T22:21:20.399Z</time>
      </trkpt>
      <trkpt lat="46.63414" lon="-1.8879">
        <ele>4.840992</ele>
        <time>2022-05-08T22:21:27.619Z</time>
      </trkpt>
      <trkpt lat="46.63401" lon="-1.88762">
        <ele>4.74146</ele>
        <time>2022-05-08T22:21:31.821Z</time>
      </trkpt>
      <trkpt lat="46.63375" lon="-1.88733">
        <ele>4.606625</ele>
        <time>2022-05-08T22:21:37.364Z</time>
      </trkpt>
      <trkpt lat="46.63319" lon="-1.88683">
        <ele>4.329226</ele>
        <time>2022-05-08T22:21:48.355Z</time>
      </trkpt>
      <trkpt lat="46.63277" lon="-1.88607">
        <ele>4.010835</ele>
        <time>2022-05-08T22:21:59.328Z</time>
      </trkpt>
      <trkpt lat="46.63259" lon="-1.88574">
        <ele>3.856221</ele>
        <time>2022-05-08T22:22:03.895Z</time>
      </trkpt>
      <trkpt lat="46.63247" lon="-1.88555">
        <ele>3.75748</ele>
        <time>2022-05-08T22:22:06.766Z</time>
      </trkpt>
      <trkpt lat="46.6322" lon="-1.88528">
        <ele>3.58266</ele>
        <time>2022-05-08T22:22:12.052Z</time>
      </trkpt>
      <trkpt lat="46.63209" lon="-1.88495">
        <ele>3.442847</ele>
        <time>2022-05-08T22:22:16.472Z</time>
      </trkpt>
      <trkpt lat="46.63182" lon="-1.88447">
        <ele>3.215702</ele>
        <time>2022-05-08T22:22:23.756Z</time>
      </trkpt>
      <trkpt lat="46.63169" lon="-1.88417">
        <ele>3.382289</ele>
        <time>2022-05-08T22:22:27.999Z</time>
      </trkpt>
      <trkpt lat="46.63166" lon="-1.88395">
        <ele>3.511322</ele>
        <time>2022-05-08T22:22:30.597Z</time>
      </trkpt>
      <trkpt lat="46.6317" lon="-1.88363">
        <ele>3.693356</ele>
        <time>2022-05-08T22:22:35.616Z</time>
      </trkpt>
      <trkpt lat="46.63166" lon="-1.88301">
        <ele>4.036689</ele>
        <time>2022-05-08T22:22:44.862Z</time>
      </trkpt>
      <trkpt lat="46.63169" lon="-1.88289">
        <ele>4.108309</ele>
        <time>2022-05-08T22:22:46.608Z</time>
      </trkpt>
      <trkpt lat="46.6316" lon="-1.88225">
        <ele>4.473887</ele>
        <time>2022-05-08T22:22:57.767Z</time>
      </trkpt>
      <trkpt lat="46.63149" lon="-1.88219">
        <ele>4.568159</ele>
        <time>2022-05-08T22:23:00.873Z</time>
      </trkpt>
      <trkpt lat="46.63142" lon="-1.88216">
        <ele>4.627702</ele>
        <time>2022-05-08T22:23:02.132Z</time>
      </trkpt>
      <trkpt lat="46.63137" lon="-1.88203">
        <ele>4.70878</ele>
        <time>2022-05-08T22:23:03.850Z</time>
      </trkpt>
      <trkpt lat="46.63138" lon="-1.88169">
        <ele>4.900935</ele>
        <time>2022-05-08T22:23:09.461Z</time>
      </trkpt>
      <trkpt lat="46.63126" lon="-1.88129">
        <ele>5.140239</ele>
        <time>2022-05-08T22:23:15.992Z</time>
      </trkpt>
      <trkpt lat="46.63125" lon="-1.88105">
        <ele>5.270676</ele>
        <time>2022-05-08T22:23:18.750Z</time>
      </trkpt>
      <trkpt lat="46.63114" lon="-1.88079">
        <ele>5.439546</ele>
        <time>2022-05-08T22:23:24.076Z</time>
      </trkpt>
      <trkpt lat="46.63056" lon="-1.88003">
        <ele>6.06433</ele>
        <time>2022-05-08T22:23:40.166Z</time>
      </trkpt>
      <trkpt lat="46.63036" lon="-1.87958">
        <ele>6.087297</ele>
        <time>2022-05-08T22:23:47.020Z</time>
      </trkpt>
      <trkpt lat="46.63007" lon="-1.87859">
        <ele>6.039642</ele>
        <time>2022-05-08T22:23:59.538Z</time>
      </trkpt>
      <trkpt lat="46.63006" lon="-1.87834">
        <ele>6.028691</ele>
        <time>2022-05-08T22:24:02.304Z</time>
      </trkpt>
      <trkpt lat="46.62996" lon="-1.87801">
        <ele>6.012516</ele>
        <time>2022-05-08T22:24:06.475Z</time>
      </trkpt>
      <trkpt lat="46.62978" lon="-1.87761">
        <ele>5.993771</ele>
        <time>2022-05-08T22:24:12.416Z</time>
      </trkpt>
      <trkpt lat="46.62966" lon="-1.87739">
        <ele>6.101568</ele>
        <time>2022-05-08T22:24:16.458Z</time>
      </trkpt>
      <trkpt lat="46.62953" lon="-1.87718">
        <ele>6.210015</ele>
        <time>2022-05-08T22:24:20.185Z</time>
      </trkpt>
      <trkpt lat="46.62933" lon="-1.87714">
        <ele>6.322918</ele>
        <time>2022-05-08T22:24:24.500Z</time>
      </trkpt>
      <trkpt lat="46.62918" lon="-1.87698">
        <ele>6.426378</ele>
        <time>2022-05-08T22:24:28.292Z</time>
      </trkpt>
      <trkpt lat="46.62904" lon="-1.87676">
        <ele>6.543758</ele>
        <time>2022-05-08T22:24:32.787Z</time>
      </trkpt>
      <trkpt lat="46.62882" lon="-1.87635">
        <ele>6.741132</ele>
        <time>2022-05-08T22:24:40.344Z</time>
      </trkpt>
      <trkpt lat="46.62882" lon="-1.87624">
        <ele>6.78345</ele>
        <time>2022-05-08T22:24:41.827Z</time>
      </trkpt>
      <trkpt lat="46.62894" lon="-1.87606">
        <ele>6.878754</ele>
        <time>2022-05-08T22:24:45.471Z</time>
      </trkpt>
      <trkpt lat="46.62872" lon="-1.87565">
        <ele>7.047118</ele>
        <time>2022-05-08T22:24:56.282Z</time>
      </trkpt>
      <trkpt lat="46.62838" lon="-1.87511">
        <ele>7.218796</ele>
        <time>2022-05-08T22:25:11.607Z</time>
      </trkpt>
      <trkpt lat="46.62801" lon="-1.87483">
        <ele>7.35748</ele>
        <time>2022-05-08T22:25:24.932Z</time>
      </trkpt>
      <trkpt lat="46.6271" lon="-1.87426">
        <ele>7.608737</ele>
        <time>2022-05-08T22:25:55.495Z</time>
      </trkpt>
      <trkpt lat="46.62692" lon="-1.87402">
        <ele>7.609695</ele>
        <time>2022-05-08T22:26:02.509Z</time>
      </trkpt>
      <trkpt lat="46.62667" lon="-1.87374">
        <ele>7.610966</ele>
        <time>2022-05-08T22:26:11.817Z</time>
      </trkpt>
      <trkpt lat="46.62634" lon="-1.87363">
        <ele>7.612301</ele>
        <time>2022-05-08T22:26:21.648Z</time>
      </trkpt>
      <trkpt lat="46.62619" lon="-1.87363">
        <ele>7.612883</ele>
        <time>2022-05-08T22:26:25.976Z</time>
      </trkpt>
      <trkpt lat="46.62578" lon="-1.87374">
        <ele>7.614529</ele>
        <time>2022-05-08T22:26:38.497Z</time>
      </trkpt>
      <trkpt lat="46.62564" lon="-1.87377">
        <ele>7.62091</ele>
        <time>2022-05-08T22:26:42.923Z</time>
      </trkpt>
      <trkpt lat="46.62502" lon="-1.87366">
        <ele>7.684976</ele>
        <time>2022-05-08T22:27:02.334Z</time>
      </trkpt>
      <trkpt lat="46.6245" lon="-1.8737">
        <ele>7.738793</ele>
        <time>2022-05-08T22:27:17.729Z</time>
      </trkpt>
      <trkpt lat="46.62401" lon="-1.8736">
        <ele>7.790083</ele>
        <time>2022-05-08T22:27:32.456Z</time>
      </trkpt>
      <trkpt lat="46.62297" lon="-1.87317">
        <ele>7.666804</ele>
        <time>2022-05-08T22:28:04.592Z</time>
      </trkpt>
      <trkpt lat="46.62175" lon="-1.87235">
        <ele>7.342031</ele>
        <time>2022-05-08T22:28:43.463Z</time>
      </trkpt>
      <trkpt lat="46.62143" lon="-1.87217">
        <ele>7.204662</ele>
        <time>2022-05-08T22:28:49.518Z</time>
      </trkpt>
      <trkpt lat="46.62126" lon="-1.87215">
        <ele>7.134626</ele>
        <time>2022-05-08T22:28:52.600Z</time>
      </trkpt>
      <trkpt lat="46.62062" lon="-1.87246">
        <ele>6.860652</ele>
        <time>2022-05-08T22:29:04.409Z</time>
      </trkpt>
      <trkpt lat="46.62045" lon="-1.87249">
        <ele>6.775134</ele>
        <time>2022-05-08T22:29:07.364Z</time>
      </trkpt>
      <trkpt lat="46.61997" lon="-1.87228">
        <ele>6.478185</ele>
        <time>2022-05-08T22:29:16.109Z</time>
      </trkpt>
      <trkpt lat="46.61905" lon="-1.87171">
        <ele>5.889781</ele>
        <time>2022-05-08T22:29:33.417Z</time>
      </trkpt>
      <trkpt lat="46.61895" lon="-1.8717">
        <ele>5.832568</ele>
        <time>2022-05-08T22:29:35.070Z</time>
      </trkpt>
      <trkpt lat="46.61867" lon="-1.87149">
        <ele>5.557324</ele>
        <time>2022-05-08T22:29:40.382Z</time>
      </trkpt>
      <trkpt lat="46.61846" lon="-1.8711">
        <ele>5.20336</ele>
        <time>2022-05-08T22:29:46.228Z</time>
      </trkpt>
      <trkpt lat="46.6183" lon="-1.87096">
        <ele>5.019323</ele>
        <time>2022-05-08T22:29:49.409Z</time>
      </trkpt>
      <trkpt lat="46.61809" lon="-1.87097">
        <ele>4.799924</ele>
        <time>2022-05-08T22:29:52.923Z</time>
      </trkpt>
      <trkpt lat="46.61752" lon="-1.87041">
        <ele>4.095542</ele>
        <time>2022-05-08T22:30:04.196Z</time>
      </trkpt>
      <trkpt lat="46.61738" lon="-1.87008">
        <ele>3.824164</ele>
        <time>2022-05-08T22:30:08.523Z</time>
      </trkpt>
      <trkpt lat="46.61694" lon="-1.86962">
        <ele>3.266398</ele>
        <time>2022-05-08T22:30:17.130Z</time>
      </trkpt>
      <trkpt lat="46.61677" lon="-1.86931">
        <ele>2.991114</ele>
        <time>2022-05-08T22:30:21.399Z</time>
      </trkpt>
      <trkpt lat="46.61662" lon="-1.86893">
        <ele>2.678314</ele>
        <time>2022-05-08T22:30:26.379Z</time>
      </trkpt>
      <trkpt lat="46.61661" lon="-1.86892">
        <ele>2.664918</ele>
        <time>2022-05-08T22:30:26.585Z</time>
      </trkpt>
      <trkpt lat="46.61642" lon="-1.86807">
        <ele>2.096821</ele>
        <time>2022-05-08T22:30:37.116Z</time>
      </trkpt>
      <trkpt lat="46.61637" lon="-1.86774">
        <ele>2.227174</ele>
        <time>2022-05-08T22:30:41.387Z</time>
      </trkpt>
      <trkpt lat="46.6163" lon="-1.86734">
        <ele>2.387075</ele>
        <time>2022-05-08T22:30:46.635Z</time>
      </trkpt>
      <trkpt lat="46.61626" lon="-1.86714">
        <ele>2.468699</ele>
        <time>2022-05-08T22:30:49.555Z</time>
      </trkpt>
      <trkpt lat="46.6161" lon="-1.86657">
        <ele>2.706316</ele>
        <time>2022-05-08T22:30:58.707Z</time>
      </trkpt>
      <trkpt lat="46.61615" lon="-1.86575">
        <ele>3.021629</ele>
        <time>2022-05-08T22:31:11.032Z</time>
      </trkpt>
      <trkpt lat="46.61616" lon="-1.86555">
        <ele>3.119956</ele>
        <time>2022-05-08T22:31:14.467Z</time>
      </trkpt>
      <trkpt lat="46.61605" lon="-1.86486">
        <ele>3.85243</ele>
        <time>2022-05-08T22:31:27.097Z</time>
      </trkpt>
      <trkpt lat="46.61607" lon="-1.86483">
        <ele>3.897986</ele>
        <time>2022-05-08T22:31:27.962Z</time>
      </trkpt>
      <trkpt lat="46.61619" lon="-1.8647">
        <ele>4.11976</ele>
        <time>2022-05-08T22:31:32.513Z</time>
      </trkpt>
      <trkpt lat="46.61616" lon="-1.86454">
        <ele>4.292753</ele>
        <time>2022-05-08T22:31:35.305Z</time>
      </trkpt>
      <trkpt lat="46.61596" lon="-1.86416">
        <ele>4.789201</ele>
        <time>2022-05-08T22:31:43.973Z</time>
      </trkpt>
      <trkpt lat="46.61588" lon="-1.8639">
        <ele>5.075304</ele>
        <time>2022-05-08T22:31:48.436Z</time>
      </trkpt>
      <trkpt lat="46.61586" lon="-1.86382">
        <ele>5.165042</ele>
        <time>2022-05-08T22:31:50.094Z</time>
      </trkpt>
      <trkpt lat="46.61598" lon="-1.86373">
        <ele>5.367073</ele>
        <time>2022-05-08T22:31:53.668Z</time>
      </trkpt>
      <trkpt lat="46.61592" lon="-1.86352">
        <ele>5.598672</ele>
        <time>2022-05-08T22:31:57.027Z</time>
      </trkpt>
      <trkpt lat="46.61601" lon="-1.86333">
        <ele>5.795242</ele>
        <time>2022-05-08T22:32:00.580Z</time>
      </trkpt>
      <trkpt lat="46.61604" lon="-1.86304">
        <ele>5.840879</ele>
        <time>2022-05-08T22:32:04.699Z</time>
      </trkpt>
      <trkpt lat="46.61601" lon="-1.86291">
        <ele>5.862493</ele>
        <time>2022-05-08T22:32:07.065Z</time>
      </trkpt>
      <trkpt lat="46.61605" lon="-1.86283">
        <ele>5.878554</ele>
        <time>2022-05-08T22:32:08.344Z</time>
      </trkpt>
      <trkpt lat="46.6161" lon="-1.86272">
        <ele>5.89789</ele>
        <time>2022-05-08T22:32:10.500Z</time>
      </trkpt>
      <trkpt lat="46.61606" lon="-1.86214">
        <ele>5.987813</ele>
        <time>2022-05-08T22:32:18.679Z</time>
      </trkpt>
      <trkpt lat="46.61586" lon="-1.86192">
        <ele>6.042416</ele>
        <time>2022-05-08T22:32:23.397Z</time>
      </trkpt>
      <trkpt lat="46.61558" lon="-1.86201">
        <ele>6.107119</ele>
        <time>2022-05-08T22:32:29.070Z</time>
      </trkpt>
      <trkpt lat="46.6155" lon="-1.86198">
        <ele>6.125663</ele>
        <time>2022-05-08T22:32:30.458Z</time>
      </trkpt>
      <trkpt lat="46.61529" lon="-1.8616">
        <ele>6.171922</ele>
        <time>2022-05-08T22:32:36.298Z</time>
      </trkpt>
      <trkpt lat="46.61515" lon="-1.8616">
        <ele>6.114307</ele>
        <time>2022-05-08T22:32:38.778Z</time>
      </trkpt>
      <trkpt lat="46.61485" lon="-1.86174">
        <ele>5.987551</ele>
        <time>2022-05-08T22:32:44.163Z</time>
      </trkpt>
      <trkpt lat="46.61471" lon="-1.86135">
        <ele>5.864418</ele>
        <time>2022-05-08T22:32:49.470Z</time>
      </trkpt>
      <trkpt lat="46.61452" lon="-1.86065">
        <ele>5.659239</ele>
        <time>2022-05-08T22:32:58.571Z</time>
      </trkpt>
      <trkpt lat="46.61443" lon="-1.85999">
        <ele>5.471997</ele>
        <time>2022-05-08T22:33:06.717Z</time>
      </trkpt>
      <trkpt lat="46.61385" lon="-1.86086">
        <ele>5.930711</ele>
        <time>2022-05-08T22:33:25.891Z</time>
      </trkpt>
      <trkpt lat="46.61375" lon="-1.86077">
        <ele>6.000236</ele>
        <time>2022-05-08T22:33:29.081Z</time>
      </trkpt>
      <trkpt lat="46.61371" lon="-1.86085">
        <ele>6.036994</ele>
        <time>2022-05-08T22:33:30.915Z</time>
      </trkpt>
      <trkpt lat="46.61356" lon="-1.86094">
        <ele>6.131873</ele>
        <time>2022-05-08T22:33:34.530Z</time>
      </trkpt>
      <trkpt lat="46.61332" lon="-1.86083">
        <ele>6.27448</ele>
        <time>2022-05-08T22:33:40.174Z</time>
      </trkpt>
      <trkpt lat="46.61306" lon="-1.86061">
        <ele>6.448841</ele>
        <time>2022-05-08T22:33:47.441Z</time>
      </trkpt>
      <trkpt lat="46.61269" lon="-1.85994">
        <ele>7.426925</ele>
        <time>2022-05-08T22:34:02.092Z</time>
      </trkpt>
      <trkpt lat="46.61258" lon="-1.85956">
        <ele>7.937589</ele>
        <time>2022-05-08T22:34:09.334Z</time>
      </trkpt>
      <trkpt lat="46.61248" lon="-1.85917">
        <ele>8.46849</ele>
        <time>2022-05-08T22:34:16.844Z</time>
      </trkpt>
      <trkpt lat="46.61246" lon="-1.85882">
        <ele>8.906774</ele>
        <time>2022-05-08T22:34:23.390Z</time>
      </trkpt>
      <trkpt lat="46.61225" lon="-1.85826">
        <ele>9.719874</ele>
        <time>2022-05-08T22:34:35.421Z</time>
      </trkpt>
      <trkpt lat="46.61209" lon="-1.85718">
        <ele>10.694067</ele>
        <time>2022-05-08T22:34:55.063Z</time>
      </trkpt>
      <trkpt lat="46.61187" lon="-1.85659">
        <ele>11.279032</ele>
        <time>2022-05-08T22:35:06.027Z</time>
      </trkpt>
      <trkpt lat="46.6118" lon="-1.85582">
        <ele>11.946978</ele>
        <time>2022-05-08T22:35:17.439Z</time>
      </trkpt>
      <trkpt lat="46.61169" lon="-1.85554">
        <ele>12.04132</ele>
        <time>2022-05-08T22:35:21.766Z</time>
      </trkpt>
      <trkpt lat="46.61158" lon="-1.85548">
        <ele>12.030292</ele>
        <time>2022-05-08T22:35:24.034Z</time>
      </trkpt>
      <trkpt lat="46.61146" lon="-1.85542">
        <ele>12.018246</ele>
        <time>2022-05-08T22:35:26.455Z</time>
      </trkpt>
      <trkpt lat="46.61143" lon="-1.8554">
        <ele>12.01544</ele>
        <time>2022-05-08T22:35:27.026Z</time>
      </trkpt>
      <trkpt lat="46.61135" lon="-1.8553">
        <ele>12.005688</ele>
        <time>2022-05-08T22:35:29.130Z</time>
      </trkpt>
      <trkpt lat="46.61128" lon="-1.85506">
        <ele>11.988852</ele>
        <time>2022-05-08T22:35:32.486Z</time>
      </trkpt>
      <trkpt lat="46.61103" lon="-1.85494">
        <ele>11.964681</ele>
        <time>2022-05-08T22:35:37.334Z</time>
      </trkpt>
      <trkpt lat="46.61088" lon="-1.85465">
        <ele>11.941829</ele>
        <time>2022-05-08T22:35:41.813Z</time>
      </trkpt>
      <trkpt lat="46.61076" lon="-1.85458">
        <ele>11.929531</ele>
        <time>2022-05-08T22:35:44.185Z</time>
      </trkpt>
      <trkpt lat="46.61055" lon="-1.85448">
        <ele>11.908744</ele>
        <time>2022-05-08T22:35:48.139Z</time>
      </trkpt>
      <trkpt lat="46.61015" lon="-1.8543">
        <ele>11.731815</ele>
        <time>2022-05-08T22:35:55.428Z</time>
      </trkpt>
      <trkpt lat="46.60973" lon="-1.85406">
        <ele>11.355752</ele>
        <time>2022-05-08T22:36:03.066Z</time>
      </trkpt>
      <trkpt lat="46.60919" lon="-1.85382">
        <ele>10.878385</ele>
        <time>2022-05-08T22:36:12.509Z</time>
      </trkpt>
      <trkpt lat="46.60895" lon="-1.85368">
        <ele>10.660131</ele>
        <time>2022-05-08T22:36:16.831Z</time>
      </trkpt>
      <trkpt lat="46.60843" lon="-1.85322">
        <ele>10.142493</ele>
        <time>2022-05-08T22:36:26.972Z</time>
      </trkpt>
      <trkpt lat="46.60772" lon="-1.8526">
        <ele>9.434544</ele>
        <time>2022-05-08T22:36:40.642Z</time>
      </trkpt>
      <trkpt lat="46.60766" lon="-1.85251">
        <ele>9.360457</ele>
        <time>2022-05-08T22:36:42.074Z</time>
      </trkpt>
      <trkpt lat="46.60643" lon="-1.85194">
        <ele>8.372504</ele>
        <time>2022-05-08T22:37:04.233Z</time>
      </trkpt>
      <trkpt lat="46.60503" lon="-1.85128">
        <ele>7.315269</ele>
        <time>2022-05-08T22:37:29.651Z</time>
      </trkpt>
      <trkpt lat="46.60276" lon="-1.85021">
        <ele>5.677541</ele>
        <time>2022-05-08T22:38:09.483Z</time>
      </trkpt>
      <trkpt lat="46.60263" lon="-1.85009">
        <ele>5.615591</ele>
        <time>2022-05-08T22:38:12.964Z</time>
      </trkpt>
      <trkpt lat="46.60267" lon="-1.85003">
        <ele>5.592437</ele>
        <time>2022-05-08T22:38:13.977Z</time>
      </trkpt>
      <trkpt lat="46.60275" lon="-1.8494">
        <ele>5.414234</ele>
        <time>2022-05-08T22:38:22.318Z</time>
      </trkpt>
      <trkpt lat="46.60283" lon="-1.84912">
        <ele>5.329959</ele>
        <time>2022-05-08T22:38:26.466Z</time>
      </trkpt>
      <trkpt lat="46.60311" lon="-1.84715">
        <ele>5.636309</ele>
        <time>2022-05-08T22:38:54.180Z</time>
      </trkpt>
      <trkpt lat="46.60324" lon="-1.84705">
        <ele>5.670017</ele>
        <time>2022-05-08T22:38:56.935Z</time>
      </trkpt>
      <trkpt lat="46.60332" lon="-1.84691">
        <ele>5.700034</ele>
        <time>2022-05-08T22:38:59.472Z</time>
      </trkpt>
      <trkpt lat="46.60354" lon="-1.8457">
        <ele>5.565676</ele>
        <time>2022-05-08T22:39:14.255Z</time>
      </trkpt>
      <trkpt lat="46.60354" lon="-1.84501">
        <ele>5.449896</ele>
        <time>2022-05-08T22:39:22.155Z</time>
      </trkpt>
      <trkpt lat="46.60352" lon="-1.84482">
        <ele>5.417381</ele>
        <time>2022-05-08T22:39:24.533Z</time>
      </trkpt>
      <trkpt lat="46.60351" lon="-1.84474">
        <ele>5.402918</ele>
        <time>2022-05-08T22:39:25.612Z</time>
      </trkpt>
      <trkpt lat="46.60369" lon="-1.8446">
        <ele>5.355213</ele>
        <time>2022-05-08T22:39:28.981Z</time>
      </trkpt>
      <trkpt lat="46.60376" lon="-1.84443">
        <ele>5.321624</ele>
        <time>2022-05-08T22:39:31.452Z</time>
      </trkpt>
      <trkpt lat="46.60379" lon="-1.84363">
        <ele>5.356923</ele>
        <time>2022-05-08T22:39:41.032Z</time>
      </trkpt>
      <trkpt lat="46.60382" lon="-1.8428">
        <ele>5.434699</ele>
        <time>2022-05-08T22:39:51.332Z</time>
      </trkpt>
      <trkpt lat="46.60401" lon="-1.84209">
        <ele>5.504711</ele>
        <time>2022-05-08T22:40:01.363Z</time>
      </trkpt>
      <trkpt lat="46.60405" lon="-1.84177">
        <ele>5.534923</ele>
        <time>2022-05-08T22:40:05.553Z</time>
      </trkpt>
      <trkpt lat="46.60406" lon="-1.84106">
        <ele>5.722329</ele>
        <time>2022-05-08T22:40:15.285Z</time>
      </trkpt>
      <trkpt lat="46.60411" lon="-1.84074">
        <ele>5.813699</ele>
        <time>2022-05-08T22:40:19.464Z</time>
      </trkpt>
      <trkpt lat="46.60414" lon="-1.8406">
        <ele>5.854288</ele>
        <time>2022-05-08T22:40:21.558Z</time>
      </trkpt>
      <trkpt lat="46.60409" lon="-1.84047">
        <ele>5.897237</ele>
        <time>2022-05-08T22:40:23.589Z</time>
      </trkpt>
      <trkpt lat="46.60403" lon="-1.84041">
        <ele>5.925978</ele>
        <time>2022-05-08T22:40:25.668Z</time>
      </trkpt>
      <trkpt lat="46.6035" lon="-1.84004">
        <ele>6.16197</ele>
        <time>2022-05-08T22:40:43.997Z</time>
      </trkpt>
      <trkpt lat="46.60341" lon="-1.8399">
        <ele>6.214953</ele>
        <time>2022-05-08T22:40:48.019Z</time>
      </trkpt>
      <trkpt lat="46.60307" lon="-1.83877">
        <ele>6.693238</ele>
        <time>2022-05-08T22:41:15.582Z</time>
      </trkpt>
      <trkpt lat="46.60282" lon="-1.838">
        <ele>7.033444</ele>
        <time>2022-05-08T22:41:34.580Z</time>
      </trkpt>
      <trkpt lat="46.6025" lon="-1.8374">
        <ele>7.303532</ele>
        <time>2022-05-08T22:41:51.660Z</time>
      </trkpt>
      <trkpt lat="46.60192" lon="-1.83664">
        <ele>7.118743</ele>
        <time>2022-05-08T22:42:14.880Z</time>
      </trkpt>
      <trkpt lat="46.60163" lon="-1.83643">
        <ele>7.043391</ele>
        <time>2022-05-08T22:42:24.104Z</time>
      </trkpt>
      <trkpt lat="46.60111" lon="-1.83638">
        <ele>6.918884</ele>
        <time>2022-05-08T22:42:38.999Z</time>
      </trkpt>
      <trkpt lat="46.60088" lon="-1.83619">
        <ele>6.752045</ele>
        <time>2022-05-08T22:42:46.152Z</time>
      </trkpt>
      <trkpt lat="46.6005" lon="-1.83561">
        <ele>6.182101</ele>
        <time>2022-05-08T22:43:01.403Z</time>
      </trkpt>
      <trkpt lat="46.59998" lon="-1.83581">
        <ele>5.622368</ele>
        <time>2022-05-08T22:43:16.095Z</time>
      </trkpt>
      <trkpt lat="46.59963" lon="-1.83585">
        <ele>5.260376</ele>
        <time>2022-05-08T22:43:25.534Z</time>
      </trkpt>
      <trkpt lat="46.59915" lon="-1.83554">
        <ele>4.728888</ele>
        <time>2022-05-08T22:43:40.208Z</time>
      </trkpt>
      <trkpt lat="46.59889" lon="-1.83551">
        <ele>4.47851</ele>
        <time>2022-05-08T22:43:47.291Z</time>
      </trkpt>
      <trkpt lat="46.59574" lon="-1.83631">
        <ele>1.863148</ele>
        <time>2022-05-08T22:45:15.882Z</time>
      </trkpt>
      <trkpt lat="46.59571" lon="-1.83625">
        <ele>1.873849</ele>
        <time>2022-05-08T22:45:17.302Z</time>
      </trkpt>
      <trkpt lat="46.59563" lon="-1.83623">
        <ele>1.891523</ele>
        <time>2022-05-08T22:45:18.792Z</time>
      </trkpt>
      <trkpt lat="46.59555" lon="-1.83436">
        <ele>2.172835</ele>
        <time>2022-05-08T22:45:45.178Z</time>
      </trkpt>
      <trkpt lat="46.5956" lon="-1.83409">
        <ele>2.214192</ele>
        <time>2022-05-08T22:45:49.026Z</time>
      </trkpt>
      <trkpt lat="46.59568" lon="-1.83384">
        <ele>2.250611</ele>
        <time>2022-05-08T22:45:53.025Z</time>
      </trkpt>
      <trkpt lat="46.59567" lon="-1.83331">
        <ele>2.318266</ele>
        <time>2022-05-08T22:46:00.471Z</time>
      </trkpt>
      <trkpt lat="46.59572" lon="-1.83297">
        <ele>2.361683</ele>
        <time>2022-05-08T22:46:05.208Z</time>
      </trkpt>
      <trkpt lat="46.59518" lon="-1.83329">
        <ele>2.469649</ele>
        <time>2022-05-08T22:46:19.277Z</time>
      </trkpt>
      <trkpt lat="46.59482" lon="-1.83352">
        <ele>2.541104</ele>
        <time>2022-05-08T22:46:28.325Z</time>
      </trkpt>
      <trkpt lat="46.59447" lon="-1.83375">
        <ele>2.508137</ele>
        <time>2022-05-08T22:46:37.249Z</time>
      </trkpt>
      <trkpt lat="46.59418" lon="-1.8338">
        <ele>2.467948</ele>
        <time>2022-05-08T22:46:43.781Z</time>
      </trkpt>
      <trkpt lat="46.59353" lon="-1.83348">
        <ele>2.373672</ele>
        <time>2022-05-08T22:46:59.221Z</time>
      </trkpt>
      <trkpt lat="46.59287" lon="-1.8333">
        <ele>2.375217</ele>
        <time>2022-05-08T22:47:15.457Z</time>
      </trkpt>
      <trkpt lat="46.59278" lon="-1.83348">
        <ele>2.43423</ele>
        <time>2022-05-08T22:47:19.187Z</time>
      </trkpt>
      <trkpt lat="46.59277" lon="-1.83427">
        <ele>2.647567</ele>
        <time>2022-05-08T22:47:32.855Z</time>
      </trkpt>
      <trkpt lat="46.59252" lon="-1.83501">
        <ele>2.869107</ele>
        <time>2022-05-08T22:47:47.180Z</time>
      </trkpt>
      <trkpt lat="46.59237" lon="-1.83518">
        <ele>2.943201</ele>
        <time>2022-05-08T22:47:51.994Z</time>
      </trkpt>
      <trkpt lat="46.59188" lon="-1.83528">
        <ele>3.237677</ele>
        <time>2022-05-08T22:48:04.676Z</time>
      </trkpt>
      <trkpt lat="46.59132" lon="-1.8359">
        <ele>3.726171</ele>
        <time>2022-05-08T22:48:27.156Z</time>
      </trkpt>
      <trkpt lat="46.59051" lon="-1.8374">
        <ele>4.873984</ele>
        <time>2022-05-08T22:49:10.668Z</time>
      </trkpt>
      <trkpt lat="46.59029" lon="-1.8376">
        <ele>5.173414</ele>
        <time>2022-05-08T22:49:19.660Z</time>
      </trkpt>
      <trkpt lat="46.59001" lon="-1.83774">
        <ele>5.509491</ele>
        <time>2022-05-08T22:49:29.770Z</time>
      </trkpt>
      <trkpt lat="46.59" lon="-1.83769">
        <ele>5.549687</ele>
        <time>2022-05-08T22:49:31.010Z</time>
      </trkpt>
      <trkpt lat="46.58999" lon="-1.83764">
        <ele>5.58896</ele>
        <time>2022-05-08T22:49:31.828Z</time>
      </trkpt>
      <trkpt lat="46.58995" lon="-1.83766">
        <ele>5.636664</ele>
        <time>2022-05-08T22:49:32.834Z</time>
      </trkpt>
      <trkpt lat="46.58969" lon="-1.83778">
        <ele>5.951304</ele>
        <time>2022-05-08T22:49:42.422Z</time>
      </trkpt>
      <trkpt lat="46.58935" lon="-1.83793">
        <ele>6.360064</ele>
        <time>2022-05-08T22:49:54.928Z</time>
      </trkpt>
      <trkpt lat="46.58777" lon="-1.83857">
        <ele>8.354014</ele>
        <time>2022-05-08T22:50:51.645Z</time>
      </trkpt>
      <trkpt lat="46.58666" lon="-1.83893">
        <ele>9.72797</ele>
        <time>2022-05-08T22:51:30.078Z</time>
      </trkpt>
      <trkpt lat="46.58638" lon="-1.8391">
        <ele>10.095621</ele>
        <time>2022-05-08T22:51:40.802Z</time>
      </trkpt>
      <trkpt lat="46.58625" lon="-1.83929">
        <ele>10.32232</ele>
        <time>2022-05-08T22:51:47.221Z</time>
      </trkpt>
      <trkpt lat="46.58552" lon="-1.83962">
        <ele>11.15895</ele>
        <time>2022-05-08T22:52:13.819Z</time>
      </trkpt>
      <trkpt lat="46.58512" lon="-1.83953">
        <ele>11.572452</ele>
        <time>2022-05-08T22:52:27.755Z</time>
      </trkpt>
      <trkpt lat="46.58436" lon="-1.83903">
        <ele>12.426842</ele>
        <time>2022-05-08T22:52:55.661Z</time>
      </trkpt>
      <trkpt lat="46.58424" lon="-1.83878">
        <ele>12.593671</ele>
        <time>2022-05-08T22:53:02.448Z</time>
      </trkpt>
      <trkpt lat="46.58386" lon="-1.83828">
        <ele>12.923166</ele>
        <time>2022-05-08T22:53:18.609Z</time>
      </trkpt>
      <trkpt lat="46.58359" lon="-1.83771">
        <ele>13.23202</ele>
        <time>2022-05-08T22:53:33.707Z</time>
      </trkpt>
      <trkpt lat="46.58331" lon="-1.83768">
        <ele>13.414009</ele>
        <time>2022-05-08T22:53:42.706Z</time>
      </trkpt>
      <trkpt lat="46.58315" lon="-1.83763">
        <ele>13.518254</ele>
        <time>2022-05-08T22:53:47.979Z</time>
      </trkpt>
      <trkpt lat="46.58273" lon="-1.8379">
        <ele>13.893216</ele>
        <time>2022-05-08T22:54:02.930Z</time>
      </trkpt>
      <trkpt lat="46.58262" lon="-1.83791">
        <ele>14.006618</ele>
        <time>2022-05-08T22:54:06.619Z</time>
      </trkpt>
      <trkpt lat="46.58247" lon="-1.83772">
        <ele>14.206655</ele>
        <time>2022-05-08T22:54:13.268Z</time>
      </trkpt>
      <trkpt lat="46.58242" lon="-1.83742">
        <ele>14.426636</ele>
        <time>2022-05-08T22:54:20.569Z</time>
      </trkpt>
      <trkpt lat="46.58235" lon="-1.83731">
        <ele>14.529199</ele>
        <time>2022-05-08T22:54:24.084Z</time>
      </trkpt>
      <trkpt lat="46.58154" lon="-1.83714">
        <ele>15.360977</ele>
        <time>2022-05-08T22:54:52.030Z</time>
      </trkpt>
      <trkpt lat="46.58113" lon="-1.83729">
        <ele>15.625698</ele>
        <time>2022-05-08T22:55:06.318Z</time>
      </trkpt>
      <trkpt lat="46.58097" lon="-1.83716">
        <ele>15.705589</ele>
        <time>2022-05-08T22:55:12.518Z</time>
      </trkpt>
      <trkpt lat="46.58078" lon="-1.83695">
        <ele>15.809155</ele>
        <time>2022-05-08T22:55:20.397Z</time>
      </trkpt>
      <trkpt lat="46.58076" lon="-1.8369">
        <ele>15.824034</ele>
        <time>2022-05-08T22:55:21.555Z</time>
      </trkpt>
      <trkpt lat="46.58043" lon="-1.83603">
        <ele>16.118904</ele>
        <time>2022-05-08T22:55:42.993Z</time>
      </trkpt>
      <trkpt lat="46.58013" lon="-1.83464">
        <ele>15.961177</ele>
        <time>2022-05-08T22:56:11.656Z</time>
      </trkpt>
      <trkpt lat="46.57962" lon="-1.83382">
        <ele>15.576264</ele>
        <time>2022-05-08T22:56:33.046Z</time>
      </trkpt>
      <trkpt lat="46.5795" lon="-1.83358">
        <ele>15.47362</ele>
        <time>2022-05-08T22:56:38.727Z</time>
      </trkpt>
      <trkpt lat="46.57923" lon="-1.83265">
        <ele>15.478016</ele>
        <time>2022-05-08T22:56:58.719Z</time>
      </trkpt>
      <trkpt lat="46.57895" lon="-1.83207">
        <ele>15.587427</ele>
        <time>2022-05-08T22:57:13.220Z</time>
      </trkpt>
      <trkpt lat="46.5786" lon="-1.83169">
        <ele>15.686806</ele>
        <time>2022-05-08T22:57:27.149Z</time>
      </trkpt>
      <trkpt lat="46.57839" lon="-1.83112">
        <ele>15.813326</ele>
        <time>2022-05-08T22:57:41.981Z</time>
      </trkpt>
      <trkpt lat="46.57846" lon="-1.83046">
        <ele>16.118664</ele>
        <time>2022-05-08T22:57:57.181Z</time>
      </trkpt>
      <trkpt lat="46.57846" lon="-1.82992">
        <ele>16.368192</ele>
        <time>2022-05-08T22:58:09.542Z</time>
      </trkpt>
      <trkpt lat="46.57837" lon="-1.82934">
        <ele>16.642149</ele>
        <time>2022-05-08T22:58:22.990Z</time>
      </trkpt>
      <trkpt lat="46.57819" lon="-1.82866">
        <ele>16.977957</ele>
        <time>2022-05-08T22:58:38.789Z</time>
      </trkpt>
      <trkpt lat="46.57819" lon="-1.82811">
        <ele>16.857871</ele>
        <time>2022-05-08T22:58:50.065Z</time>
      </trkpt>
      <trkpt lat="46.57804" lon="-1.82769">
        <ele>16.747458</ele>
        <time>2022-05-08T22:58:59.640Z</time>
      </trkpt>
      <trkpt lat="46.578" lon="-1.82729">
        <ele>16.653017</ele>
        <time>2022-05-08T22:59:07.688Z</time>
      </trkpt>
      <trkpt lat="46.57764" lon="-1.82576">
        <ele>15.992682</ele>
        <time>2022-05-08T22:59:38.849Z</time>
      </trkpt>
      <trkpt lat="46.57756" lon="-1.82537">
        <ele>15.62294</ele>
        <time>2022-05-08T22:59:46.501Z</time>
      </trkpt>
      <trkpt lat="46.57744" lon="-1.82523">
        <ele>15.416256</ele>
        <time>2022-05-08T22:59:50.757Z</time>
      </trkpt>
      <trkpt lat="46.57695" lon="-1.8251">
        <ele>14.739487</ele>
        <time>2022-05-08T23:00:04.516Z</time>
      </trkpt>
      <trkpt lat="46.57656" lon="-1.82493">
        <ele>14.201341</ele>
        <time>2022-05-08T23:00:15.095Z</time>
      </trkpt>
      <trkpt lat="46.57641" lon="-1.82468">
        <ele>13.871535</ele>
        <time>2022-05-08T23:00:20.967Z</time>
      </trkpt>
      <trkpt lat="46.57628" lon="-1.8235">
        <ele>12.438946</ele>
        <time>2022-05-08T23:00:42.426Z</time>
      </trkpt>
      <trkpt lat="46.57632" lon="-1.82311">
        <ele>11.970446</ele>
        <time>2022-05-08T23:00:46.414Z</time>
      </trkpt>
      <trkpt lat="46.57632" lon="-1.82295">
        <ele>11.778863</ele>
        <time>2022-05-08T23:00:48.119Z</time>
      </trkpt>
      <trkpt lat="46.57645" lon="-1.82265">
        <ele>11.352214</ele>
        <time>2022-05-08T23:00:51.773Z</time>
      </trkpt>
      <trkpt lat="46.57635" lon="-1.82262">
        <ele>11.165588</ele>
        <time>2022-05-08T23:00:53.528Z</time>
      </trkpt>
      <trkpt lat="46.57573" lon="-1.82237">
        <ele>10.499921</ele>
        <time>2022-05-08T23:01:03.711Z</time>
      </trkpt>
      <trkpt lat="46.57421" lon="-1.82158">
        <ele>9.490197</ele>
        <time>2022-05-08T23:01:31.975Z</time>
      </trkpt>
      <trkpt lat="46.5737" lon="-1.82115">
        <ele>9.497729</ele>
        <time>2022-05-08T23:01:42.904Z</time>
      </trkpt>
      <trkpt lat="46.57341" lon="-1.82111">
        <ele>9.501437</ele>
        <time>2022-05-08T23:01:48.545Z</time>
      </trkpt>
      <trkpt lat="46.57257" lon="-1.82132">
        <ele>9.49759</ele>
        <time>2022-05-08T23:02:05.354Z</time>
      </trkpt>
      <trkpt lat="46.57235" lon="-1.82125">
        <ele>9.484947</ele>
        <time>2022-05-08T23:02:09.468Z</time>
      </trkpt>
      <trkpt lat="46.57227" lon="-1.8211">
        <ele>9.476982</ele>
        <time>2022-05-08T23:02:12.192Z</time>
      </trkpt>
      <trkpt lat="46.57196" lon="-1.81998">
        <ele>9.428186</ele>
        <time>2022-05-08T23:02:27.797Z</time>
      </trkpt>
      <trkpt lat="46.57163" lon="-1.8191">
        <ele>9.16299</ele>
        <time>2022-05-08T23:02:39.935Z</time>
      </trkpt>
      <trkpt lat="46.57139" lon="-1.81879">
        <ele>8.890017</ele>
        <time>2022-05-08T23:02:45.061Z</time>
      </trkpt>
      <trkpt lat="46.57117" lon="-1.81866">
        <ele>8.681002</ele>
        <time>2022-05-08T23:02:48.923Z</time>
      </trkpt>
      <trkpt lat="46.5706" lon="-1.81861">
        <ele>8.192426</ele>
        <time>2022-05-08T23:02:57.922Z</time>
      </trkpt>
      <trkpt lat="46.5701" lon="-1.81871">
        <ele>7.926854</ele>
        <time>2022-05-08T23:03:06.750Z</time>
      </trkpt>
      <trkpt lat="46.56992" lon="-1.81883">
        <ele>8.062848</ele>
        <time>2022-05-08T23:03:11.184Z</time>
      </trkpt>
      <trkpt lat="46.56955" lon="-1.8194">
        <ele>8.427642</ele>
        <time>2022-05-08T23:03:22.137Z</time>
      </trkpt>
      <trkpt lat="46.56922" lon="-1.82041">
        <ele>8.948899</ele>
        <time>2022-05-08T23:03:39.608Z</time>
      </trkpt>
      <trkpt lat="46.56909" lon="-1.82045">
        <ele>9.039675</ele>
        <time>2022-05-08T23:03:43.377Z</time>
      </trkpt>
      <trkpt lat="46.56888" lon="-1.82033">
        <ele>9.218914</ele>
        <time>2022-05-08T23:03:48.657Z</time>
      </trkpt>
      <trkpt lat="46.56864" lon="-1.82009">
        <ele>9.461426</ele>
        <time>2022-05-08T23:03:56.262Z</time>
      </trkpt>
      <trkpt lat="46.56849" lon="-1.81985">
        <ele>9.646526</ele>
        <time>2022-05-08T23:04:02.567Z</time>
      </trkpt>
      <trkpt lat="46.56845" lon="-1.81894">
        <ele>10.168727</ele>
        <time>2022-05-08T23:04:17.324Z</time>
      </trkpt>
      <trkpt lat="46.56836" lon="-1.81849">
        <ele>10.435547</ele>
        <time>2022-05-08T23:04:23.598Z</time>
      </trkpt>
      <trkpt lat="46.56825" lon="-1.81821">
        <ele>10.549996</ele>
        <time>2022-05-08T23:04:27.746Z</time>
      </trkpt>
      <trkpt lat="46.56807" lon="-1.81791">
        <ele>10.486782</ele>
        <time>2022-05-08T23:04:32.890Z</time>
      </trkpt>
      <trkpt lat="46.56693" lon="-1.81644">
        <ele>10.181048</ele>
        <time>2022-05-08T23:05:01.949Z</time>
      </trkpt>
      <trkpt lat="46.56668" lon="-1.81602">
        <ele>10.371879</ele>
        <time>2022-05-08T23:05:09.615Z</time>
      </trkpt>
      <trkpt lat="46.56632" lon="-1.81469">
        <ele>10.867969</ele>
        <time>2022-05-08T23:05:31.270Z</time>
      </trkpt>
      <trkpt lat="46.56593" lon="-1.81383">
        <ele>11.208387</ele>
        <time>2022-05-08T23:05:48.418Z</time>
      </trkpt>
      <trkpt lat="46.56575" lon="-1.81355">
        <ele>11.331045</ele>
        <time>2022-05-08T23:05:54.678Z</time>
      </trkpt>
      <trkpt lat="46.56522" lon="-1.81319">
        <ele>11.601707</ele>
        <time>2022-05-08T23:06:07.471Z</time>
      </trkpt>
      <trkpt lat="46.565" lon="-1.81288">
        <ele>11.745356</ele>
        <time>2022-05-08T23:06:13.849Z</time>
      </trkpt>
      <trkpt lat="46.56476" lon="-1.81241">
        <ele>11.763938</ele>
        <time>2022-05-08T23:06:21.733Z</time>
      </trkpt>
      <trkpt lat="46.56444" lon="-1.81206">
        <ele>11.225192</ele>
        <time>2022-05-08T23:06:29.111Z</time>
      </trkpt>
      <trkpt lat="46.56408" lon="-1.81166">
        <ele>10.615682</ele>
        <time>2022-05-08T23:06:41.395Z</time>
      </trkpt>
      <trkpt lat="46.56346" lon="-1.81009">
        <ele>8.784312</ele>
        <time>2022-05-08T23:07:13.606Z</time>
      </trkpt>
      <trkpt lat="46.56339" lon="-1.81">
        <ele>8.618354</ele>
        <time>2022-05-08T23:07:16.066Z</time>
      </trkpt>
      <trkpt lat="46.56292" lon="-1.80992">
        <ele>7.802512</ele>
        <time>2022-05-08T23:07:28.376Z</time>
      </trkpt>
      <trkpt lat="46.56204" lon="-1.80997">
        <ele>6.321644</ele>
        <time>2022-05-08T23:07:52.056Z</time>
      </trkpt>
      <trkpt lat="46.56186" lon="-1.81003">
        <ele>6.213317</ele>
        <time>2022-05-08T23:07:57.000Z</time>
      </trkpt>
      <trkpt lat="46.56173" lon="-1.81014">
        <ele>6.122324</ele>
        <time>2022-05-08T23:08:01.220Z</time>
      </trkpt>
      <trkpt lat="46.56156" lon="-1.81065">
        <ele>5.89073</ele>
        <time>2022-05-08T23:08:12.149Z</time>
      </trkpt>
      <trkpt lat="46.56147" lon="-1.81078">
        <ele>5.813701</ele>
        <time>2022-05-08T23:08:15.858Z</time>
      </trkpt>
      <trkpt lat="46.56137" lon="-1.81082">
        <ele>5.757156</ele>
        <time>2022-05-08T23:08:18.629Z</time>
      </trkpt>
      <trkpt lat="46.56125" lon="-1.81074">
        <ele>5.674501</ele>
        <time>2022-05-08T23:08:22.556Z</time>
      </trkpt>
      <trkpt lat="46.56046" lon="-1.80991">
        <ele>5.237683</ele>
        <time>2022-05-08T23:08:40.184Z</time>
      </trkpt>
      <trkpt lat="46.56031" lon="-1.80974">
        <ele>5.213521</ele>
        <time>2022-05-08T23:08:43.743Z</time>
      </trkpt>
      <trkpt lat="46.55972" lon="-1.80937">
        <ele>5.134341</ele>
        <time>2022-05-08T23:08:55.443Z</time>
      </trkpt>
      <trkpt lat="46.55906" lon="-1.80908">
        <ele>5.055479</ele>
        <time>2022-05-08T23:09:07.897Z</time>
      </trkpt>
      <trkpt lat="46.55869" lon="-1.80876">
        <ele>5.116847</ele>
        <time>2022-05-08T23:09:15.995Z</time>
      </trkpt>
      <trkpt lat="46.55845" lon="-1.80869">
        <ele>5.152652</ele>
        <time>2022-05-08T23:09:20.753Z</time>
      </trkpt>
      <trkpt lat="46.55809" lon="-1.80872">
        <ele>5.203016</ele>
        <time>2022-05-08T23:09:27.556Z</time>
      </trkpt>
      <trkpt lat="46.55774" lon="-1.80864">
        <ele>5.25449</ele>
        <time>2022-05-08T23:09:34.568Z</time>
      </trkpt>
      <trkpt lat="46.55767" lon="-1.80886">
        <ele>5.278189</ele>
        <time>2022-05-08T23:09:37.887Z</time>
      </trkpt>
      <trkpt lat="46.55746" lon="-1.80924">
        <ele>5.348646</ele>
        <time>2022-05-08T23:09:44.415Z</time>
      </trkpt>
      <trkpt lat="46.55657" lon="-1.81077">
        <ele>5.804013</ele>
        <time>2022-05-08T23:10:11.737Z</time>
      </trkpt>
      <trkpt lat="46.55647" lon="-1.81095">
        <ele>5.85544</ele>
        <time>2022-05-08T23:10:14.724Z</time>
      </trkpt>
      <trkpt lat="46.5565" lon="-1.81105">
        <ele>5.882399</ele>
        <time>2022-05-08T23:10:16.362Z</time>
      </trkpt>
      <trkpt lat="46.55648" lon="-1.81117">
        <ele>5.916248</ele>
        <time>2022-05-08T23:10:18.025Z</time>
      </trkpt>
      <trkpt lat="46.55651" lon="-1.81126">
        <ele>5.956509</ele>
        <time>2022-05-08T23:10:19.375Z</time>
      </trkpt>
      <trkpt lat="46.55651" lon="-1.81128">
        <ele>5.966119</ele>
        <time>2022-05-08T23:10:19.679Z</time>
      </trkpt>
      <trkpt lat="46.55581" lon="-1.81269">
        <ele>6.667583</ele>
        <time>2022-05-08T23:10:43.297Z</time>
      </trkpt>
      <trkpt lat="46.55631" lon="-1.81353">
        <ele>7.063255</ele>
        <time>2022-05-08T23:10:59.722Z</time>
      </trkpt>
      <trkpt lat="46.5563" lon="-1.81376">
        <ele>7.121892</ele>
        <time>2022-05-08T23:11:03.258Z</time>
      </trkpt>
      <trkpt lat="46.55582" lon="-1.81521">
        <ele>7.539639</ele>
        <time>2022-05-08T23:11:38.327Z</time>
      </trkpt>
      <trkpt lat="46.55552" lon="-1.81568">
        <ele>7.461597</ele>
        <time>2022-05-08T23:11:50.914Z</time>
      </trkpt>
      <trkpt lat="46.55514" lon="-1.81608">
        <ele>6.988484</ele>
        <time>2022-05-08T23:12:03.948Z</time>
      </trkpt>
      <trkpt lat="46.55492" lon="-1.81621">
        <ele>6.745775</ele>
        <time>2022-05-08T23:12:10.475Z</time>
      </trkpt>
      <trkpt lat="46.55477" lon="-1.81617">
        <ele>6.594722</ele>
        <time>2022-05-08T23:12:14.520Z</time>
      </trkpt>
      <trkpt lat="46.5547" lon="-1.81579">
        <ele>6.316617</ele>
        <time>2022-05-08T23:12:18.735Z</time>
      </trkpt>
      <trkpt lat="46.55437" lon="-1.81502">
        <ele>5.708585</ele>
        <time>2022-05-08T23:12:28.272Z</time>
      </trkpt>
      <trkpt lat="46.55409" lon="-1.81459">
        <ele>5.388673</ele>
        <time>2022-05-08T23:12:34.446Z</time>
      </trkpt>
      <trkpt lat="46.55356" lon="-1.81376">
        <ele>4.774692</ele>
        <time>2022-05-08T23:12:47.390Z</time>
      </trkpt>
      <trkpt lat="46.55333" lon="-1.81335">
        <ele>4.486408</ele>
        <time>2022-05-08T23:12:53.961Z</time>
      </trkpt>
      <trkpt lat="46.55298" lon="-1.81229">
        <ele>4.24635</ele>
        <time>2022-05-08T23:13:08.365Z</time>
      </trkpt>
      <trkpt lat="46.55294" lon="-1.81226">
        <ele>4.234972</ele>
        <time>2022-05-08T23:13:09.370Z</time>
      </trkpt>
      <trkpt lat="46.55193" lon="-1.81154">
        <ele>4.007066</ele>
        <time>2022-05-08T23:13:31.157Z</time>
      </trkpt>
      <trkpt lat="46.5518" lon="-1.81131">
        <ele>4.014138</ele>
        <time>2022-05-08T23:13:34.964Z</time>
      </trkpt>
      <trkpt lat="46.5517" lon="-1.81128">
        <ele>4.017615</ele>
        <time>2022-05-08T23:13:36.800Z</time>
      </trkpt>
      <trkpt lat="46.55053" lon="-1.81002">
        <ele>4.077027</ele>
        <time>2022-05-08T23:14:03.767Z</time>
      </trkpt>
      <trkpt lat="46.55047" lon="-1.80994">
        <ele>4.116418</ele>
        <time>2022-05-08T23:14:05.636Z</time>
      </trkpt>
      <trkpt lat="46.5503" lon="-1.80994">
        <ele>4.192229</ele>
        <time>2022-05-08T23:14:09.065Z</time>
      </trkpt>
      <trkpt lat="46.55003" lon="-1.81036">
        <ele>4.37288</ele>
        <time>2022-05-08T23:14:17.403Z</time>
      </trkpt>
      <trkpt lat="46.54989" lon="-1.81042">
        <ele>4.441373</ele>
        <time>2022-05-08T23:14:20.546Z</time>
      </trkpt>
      <trkpt lat="46.54878" lon="-1.80937">
        <ele>5.122786</ele>
        <time>2022-05-08T23:14:47.369Z</time>
      </trkpt>
      <trkpt lat="46.54875" lon="-1.80934">
        <ele>5.15253</ele>
        <time>2022-05-08T23:14:48.225Z</time>
      </trkpt>
      <trkpt lat="46.54824" lon="-1.80883">
        <ele>5.570201</ele>
        <time>2022-05-08T23:15:00.649Z</time>
      </trkpt>
      <trkpt lat="46.54776" lon="-1.80989">
        <ele>6.142138</ele>
        <time>2022-05-08T23:15:20.138Z</time>
      </trkpt>
      <trkpt lat="46.54758" lon="-1.81019">
        <ele>6.244138</ele>
        <time>2022-05-08T23:15:25.898Z</time>
      </trkpt>
      <trkpt lat="46.54734" lon="-1.8108">
        <ele>6.418824</ele>
        <time>2022-05-08T23:15:35.193Z</time>
      </trkpt>
      <trkpt lat="46.54722" lon="-1.81115">
        <ele>6.518708</ele>
        <time>2022-05-08T23:15:40.532Z</time>
      </trkpt>
      <trkpt lat="46.5467" lon="-1.8109">
        <ele>6.717484</ele>
        <time>2022-05-08T23:15:50.160Z</time>
      </trkpt>
      <trkpt lat="46.5462" lon="-1.81067">
        <ele>6.38999</ele>
        <time>2022-05-08T23:15:59.562Z</time>
      </trkpt>
      <trkpt lat="46.54565" lon="-1.81023">
        <ele>5.718843</ele>
        <time>2022-05-08T23:16:09.732Z</time>
      </trkpt>
      <trkpt lat="46.54545" lon="-1.80997">
        <ele>5.429147</ele>
        <time>2022-05-08T23:16:13.800Z</time>
      </trkpt>
      <trkpt lat="46.54532" lon="-1.81021">
        <ele>5.207412</ele>
        <time>2022-05-08T23:16:16.834Z</time>
      </trkpt>
      <trkpt lat="46.54523" lon="-1.81027">
        <ele>5.102107</ele>
        <time>2022-05-08T23:16:18.226Z</time>
      </trkpt>
      <trkpt lat="46.54464" lon="-1.81022">
        <ele>4.33584</ele>
        <time>2022-05-08T23:16:27.065Z</time>
      </trkpt>
      <trkpt lat="46.54446" lon="-1.81026">
        <ele>4.074726</ele>
        <time>2022-05-08T23:16:29.720Z</time>
      </trkpt>
      <trkpt lat="46.54422" lon="-1.81044">
        <ele>3.68391</ele>
        <time>2022-05-08T23:16:33.896Z</time>
      </trkpt>
      <trkpt lat="46.54419" lon="-1.81036">
        <ele>3.599161</ele>
        <time>2022-05-08T23:16:34.741Z</time>
      </trkpt>
      <trkpt lat="46.54416" lon="-1.81028">
        <ele>3.515014</ele>
        <time>2022-05-08T23:16:35.658Z</time>
      </trkpt>
      <trkpt lat="46.54399" lon="-1.80987">
        <ele>3.039686</ele>
        <time>2022-05-08T23:16:40.915Z</time>
      </trkpt>
      <trkpt lat="46.5438" lon="-1.80963">
        <ele>2.674873</ele>
        <time>2022-05-08T23:16:44.920Z</time>
      </trkpt>
      <trkpt lat="46.54368" lon="-1.8092">
        <ele>2.248236</ele>
        <time>2022-05-08T23:16:49.972Z</time>
      </trkpt>
      <trkpt lat="46.54368" lon="-1.80838">
        <ele>1.959045</ele>
        <time>2022-05-08T23:16:58.776Z</time>
      </trkpt>
      <trkpt lat="46.54351" lon="-1.80802">
        <ele>1.804598</ele>
        <time>2022-05-08T23:17:03.553Z</time>
      </trkpt>
      <trkpt lat="46.5435" lon="-1.80719">
        <ele>1.507161</ele>
        <time>2022-05-08T23:17:13.695Z</time>
      </trkpt>
      <trkpt lat="46.54367" lon="-1.80668">
        <ele>1.349038</ele>
        <time>2022-05-08T23:17:20.673Z</time>
      </trkpt>
      <trkpt lat="46.54368" lon="-1.80641">
        <ele>1.383949</ele>
        <time>2022-05-08T23:17:24.019Z</time>
      </trkpt>
      <trkpt lat="46.54362" lon="-1.80604">
        <ele>1.433899</ele>
        <time>2022-05-08T23:17:28.924Z</time>
      </trkpt>
      <trkpt lat="46.54343" lon="-1.80539">
        <ele>1.525294</ele>
        <time>2022-05-08T23:17:37.891Z</time>
      </trkpt>
      <trkpt lat="46.54337" lon="-1.80474">
        <ele>1.610517</ele>
        <time>2022-05-08T23:17:46.296Z</time>
      </trkpt>
      <trkpt lat="46.54321" lon="-1.80432">
        <ele>1.672676</ele>
        <time>2022-05-08T23:17:52.456Z</time>
      </trkpt>
      <trkpt lat="46.54316" lon="-1.80378">
        <ele>1.86499</ele>
        <time>2022-05-08T23:17:59.721Z</time>
      </trkpt>
      <trkpt lat="46.54296" lon="-1.80315">
        <ele>2.122856</ele>
        <time>2022-05-08T23:18:09.116Z</time>
      </trkpt>
      <trkpt lat="46.54297" lon="-1.80289">
        <ele>2.216021</ele>
        <time>2022-05-08T23:18:12.798Z</time>
      </trkpt>
      <trkpt lat="46.54303" lon="-1.80269">
        <ele>2.299923</ele>
        <time>2022-05-08T23:18:15.791Z</time>
      </trkpt>
      <trkpt lat="46.54294" lon="-1.80234">
        <ele>2.437672</ele>
        <time>2022-05-08T23:18:21.223Z</time>
      </trkpt>
      <trkpt lat="46.54303" lon="-1.80223">
        <ele>2.499161</ele>
        <time>2022-05-08T23:18:23.430Z</time>
      </trkpt>
      <trkpt lat="46.54309" lon="-1.80201">
        <ele>2.58631</ele>
        <time>2022-05-08T23:18:27.016Z</time>
      </trkpt>
      <trkpt lat="46.54274" lon="-1.80153">
        <ele>2.875823</ele>
        <time>2022-05-08T23:18:36.973Z</time>
      </trkpt>
      <trkpt lat="46.5423" lon="-1.80069">
        <ele>3.328734</ele>
        <time>2022-05-08T23:18:52.184Z</time>
      </trkpt>
      <trkpt lat="46.54177" lon="-1.79937">
        <ele>3.958685</ele>
        <time>2022-05-08T23:19:14.267Z</time>
      </trkpt>
      <trkpt lat="46.54166" lon="-1.79902">
        <ele>4.110151</ele>
        <time>2022-05-08T23:19:19.875Z</time>
      </trkpt>
      <trkpt lat="46.54166" lon="-1.79889">
        <ele>4.161103</ele>
        <time>2022-05-08T23:19:21.798Z</time>
      </trkpt>
      <trkpt lat="46.54226" lon="-1.79777">
        <ele>4.709196</ele>
        <time>2022-05-08T23:19:41.849Z</time>
      </trkpt>
      <trkpt lat="46.54224" lon="-1.79772">
        <ele>4.730239</ele>
        <time>2022-05-08T23:19:42.596Z</time>
      </trkpt>
      <trkpt lat="46.54222" lon="-1.79767">
        <ele>4.755131</ele>
        <time>2022-05-08T23:19:43.470Z</time>
      </trkpt>
      <trkpt lat="46.54211" lon="-1.79736">
        <ele>4.887385</ele>
        <time>2022-05-08T23:19:48.182Z</time>
      </trkpt>
      <trkpt lat="46.5421" lon="-1.79734">
        <ele>4.896467</ele>
        <time>2022-05-08T23:19:48.493Z</time>
      </trkpt>
      <trkpt lat="46.54209" lon="-1.79732">
        <ele>4.906725</ele>
        <time>2022-05-08T23:19:48.858Z</time>
      </trkpt>
      <trkpt lat="46.54181" lon="-1.79661">
        <ele>5.218309</ele>
        <time>2022-05-08T23:20:00.056Z</time>
      </trkpt>
      <trkpt lat="46.54176" lon="-1.7965">
        <ele>5.265277</ele>
        <time>2022-05-08T23:20:01.767Z</time>
      </trkpt>
      <trkpt lat="46.54133" lon="-1.79592">
        <ele>5.591247</ele>
        <time>2022-05-08T23:20:13.560Z</time>
      </trkpt>
      <trkpt lat="46.54077" lon="-1.79554">
        <ele>6.014131</ele>
        <time>2022-05-08T23:20:26.196Z</time>
      </trkpt>
      <trkpt lat="46.54047" lon="-1.79538">
        <ele>6.273151</ele>
        <time>2022-05-08T23:20:32.728Z</time>
      </trkpt>
      <trkpt lat="46.5403" lon="-1.79534">
        <ele>6.419753</ele>
        <time>2022-05-08T23:20:36.426Z</time>
      </trkpt>
      <trkpt lat="46.54018" lon="-1.79533">
        <ele>6.518386</ele>
        <time>2022-05-08T23:20:38.913Z</time>
      </trkpt>
      <trkpt lat="46.54015" lon="-1.79523">
        <ele>6.579568</ele>
        <time>2022-05-08T23:20:40.476Z</time>
      </trkpt>
      <trkpt lat="46.54018" lon="-1.79515">
        <ele>6.632311</ele>
        <time>2022-05-08T23:20:41.807Z</time>
      </trkpt>
      <trkpt lat="46.54016" lon="-1.79497">
        <ele>6.731299</ele>
        <time>2022-05-08T23:20:44.369Z</time>
      </trkpt>
      <trkpt lat="46.54001" lon="-1.79461">
        <ele>6.970887</ele>
        <time>2022-05-08T23:20:50.690Z</time>
      </trkpt>
      <trkpt lat="46.53955" lon="-1.79303">
        <ele>7.832808</ele>
        <time>2022-05-08T23:21:16.258Z</time>
      </trkpt>
      <trkpt lat="46.53945" lon="-1.79267">
        <ele>8.020502</ele>
        <time>2022-05-08T23:21:21.799Z</time>
      </trkpt>
      <trkpt lat="46.53936" lon="-1.79226">
        <ele>8.227426</ele>
        <time>2022-05-08T23:21:27.661Z</time>
      </trkpt>
      <trkpt lat="46.53931" lon="-1.79159">
        <ele>8.518793</ele>
        <time>2022-05-08T23:21:36.528Z</time>
      </trkpt>
      <trkpt lat="46.53931" lon="-1.79153">
        <ele>8.531327</ele>
        <time>2022-05-08T23:21:37.327Z</time>
      </trkpt>
      <trkpt lat="46.53921" lon="-1.78899">
        <ele>9.063248</ele>
        <time>2022-05-08T23:22:10.425Z</time>
      </trkpt>
      <trkpt lat="46.5391" lon="-1.788">
        <ele>9.438886</ele>
        <time>2022-05-08T23:22:23.594Z</time>
      </trkpt>
      <trkpt lat="46.53899" lon="-1.78522">
        <ele>10.635097</ele>
        <time>2022-05-08T23:23:02.777Z</time>
      </trkpt>
      <trkpt lat="46.53889" lon="-1.78458">
        <ele>10.961992</ele>
        <time>2022-05-08T23:23:12.165Z</time>
      </trkpt>
      <trkpt lat="46.53859" lon="-1.78343">
        <ele>11.455348</ele>
        <time>2022-05-08T23:23:30.269Z</time>
      </trkpt>
      <trkpt lat="46.53857" lon="-1.78327">
        <ele>11.501622</ele>
        <time>2022-05-08T23:23:32.580Z</time>
      </trkpt>
      <trkpt lat="46.53853" lon="-1.78303">
        <ele>11.570984</ele>
        <time>2022-05-08T23:23:36.042Z</time>
      </trkpt>
      <trkpt lat="46.53847" lon="-1.78285">
        <ele>11.628682</ele>
        <time>2022-05-08T23:23:38.955Z</time>
      </trkpt>
      <trkpt lat="46.53825" lon="-1.78252">
        <ele>11.761712</ele>
        <time>2022-05-08T23:23:45.515Z</time>
      </trkpt>
      <trkpt lat="46.53802" lon="-1.782">
        <ele>11.938593</ele>
        <time>2022-05-08T23:23:53.634Z</time>
      </trkpt>
      <trkpt lat="46.53796" lon="-1.78185">
        <ele>11.987765</ele>
        <time>2022-05-08T23:23:55.725Z</time>
      </trkpt>
      <trkpt lat="46.53789" lon="-1.78172">
        <ele>12.031212</ele>
        <time>2022-05-08T23:23:57.510Z</time>
      </trkpt>
      <trkpt lat="46.53779" lon="-1.7817">
        <ele>11.976488</ele>
        <time>2022-05-08T23:23:59.229Z</time>
      </trkpt>
      <trkpt lat="46.53775" lon="-1.78157">
        <ele>11.87824</ele>
        <time>2022-05-08T23:24:00.926Z</time>
      </trkpt>
      <trkpt lat="46.5375" lon="-1.78157">
        <ele>11.643987</ele>
        <time>2022-05-08T23:24:05.070Z</time>
      </trkpt>
      <trkpt lat="46.53728" lon="-1.7816">
        <ele>11.432434</ele>
        <time>2022-05-08T23:24:08.783Z</time>
      </trkpt>
      <trkpt lat="46.53699" lon="-1.78146">
        <ele>11.139717</ele>
        <time>2022-05-08T23:24:13.815Z</time>
      </trkpt>
      <trkpt lat="46.53666" lon="-1.78131">
        <ele>10.808888</ele>
        <time>2022-05-08T23:24:19.423Z</time>
      </trkpt>
      <trkpt lat="46.53631" lon="-1.78119">
        <ele>10.470155</ele>
        <time>2022-05-08T23:24:25.185Z</time>
      </trkpt>
      <trkpt lat="46.53601" lon="-1.78123">
        <ele>10.259787</ele>
        <time>2022-05-08T23:24:30.283Z</time>
      </trkpt>
      <trkpt lat="46.5357" lon="-1.78126">
        <ele>10.119376</ele>
        <time>2022-05-08T23:24:35.531Z</time>
      </trkpt>
      <trkpt lat="46.53539" lon="-1.78129">
        <ele>9.982439</ele>
        <time>2022-05-08T23:24:40.700Z</time>
      </trkpt>
      <trkpt lat="46.5354" lon="-1.78121">
        <ele>9.957928</ele>
        <time>2022-05-08T23:24:41.659Z</time>
      </trkpt>
      <trkpt lat="46.53541" lon="-1.78104">
        <ele>9.903436</ele>
        <time>2022-05-08T23:24:43.746Z</time>
      </trkpt>
      <trkpt lat="46.53544" lon="-1.78066">
        <ele>9.787554</ele>
        <time>2022-05-08T23:24:48.315Z</time>
      </trkpt>
      <trkpt lat="46.53542" lon="-1.78063">
        <ele>9.773883</ele>
        <time>2022-05-08T23:24:48.872Z</time>
      </trkpt>
      <trkpt lat="46.53532" lon="-1.78064">
        <ele>9.727413</ele>
        <time>2022-05-08T23:24:50.687Z</time>
      </trkpt>
      <trkpt lat="46.53506" lon="-1.7806">
        <ele>9.612388</ele>
        <time>2022-05-08T23:24:55.591Z</time>
      </trkpt>
      <trkpt lat="46.53501" lon="-1.78053">
        <ele>9.580979</ele>
        <time>2022-05-08T23:24:56.890Z</time>
      </trkpt>
      <trkpt lat="46.53463" lon="-1.77931">
        <ele>10.10747</ele>
        <time>2022-05-08T23:25:16.656Z</time>
      </trkpt>
      <trkpt lat="46.53432" lon="-1.77921">
        <ele>10.332628</ele>
        <time>2022-05-08T23:25:23.510Z</time>
      </trkpt>
      <trkpt lat="46.53402" lon="-1.77889">
        <ele>10.596863</ele>
        <time>2022-05-08T23:25:31.468Z</time>
      </trkpt>
      <trkpt lat="46.53399" lon="-1.77883">
        <ele>10.638458</ele>
        <time>2022-05-08T23:25:32.726Z</time>
      </trkpt>
      <trkpt lat="46.53394" lon="-1.77882">
        <ele>10.670633</ele>
        <time>2022-05-08T23:25:33.690Z</time>
      </trkpt>
      <trkpt lat="46.53394" lon="-1.77877">
        <ele>10.692811</ele>
        <time>2022-05-08T23:25:34.360Z</time>
      </trkpt>
      <trkpt lat="46.53389" lon="-1.77872">
        <ele>10.737869</ele>
        <time>2022-05-08T23:25:35.715Z</time>
      </trkpt>
      <trkpt lat="46.53313" lon="-1.77745">
        <ele>11.643365</ele>
        <time>2022-05-08T23:26:01.724Z</time>
      </trkpt>
      <trkpt lat="46.53296" lon="-1.77718">
        <ele>11.842299</ele>
        <time>2022-05-08T23:26:07.049Z</time>
      </trkpt>
      <trkpt lat="46.5326" lon="-1.77664">
        <ele>12.251181</ele>
        <time>2022-05-08T23:26:17.761Z</time>
      </trkpt>
      <trkpt lat="46.53249" lon="-1.77646">
        <ele>12.333985</ele>
        <time>2022-05-08T23:26:21.035Z</time>
      </trkpt>
      <trkpt lat="46.53236" lon="-1.77635">
        <ele>12.408803</ele>
        <time>2022-05-08T23:26:24.065Z</time>
      </trkpt>
      <trkpt lat="46.53181" lon="-1.7757">
        <ele>12.771935</ele>
        <time>2022-05-08T23:26:38.973Z</time>
      </trkpt>
      <trkpt lat="46.53166" lon="-1.77564">
        <ele>12.850928</ele>
        <time>2022-05-08T23:26:42.055Z</time>
      </trkpt>
      <trkpt lat="46.53131" lon="-1.77588">
        <ele>13.05143</ele>
        <time>2022-05-08T23:26:50.067Z</time>
      </trkpt>
      <trkpt lat="46.53112" lon="-1.77571">
        <ele>13.164345</ele>
        <time>2022-05-08T23:26:54.603Z</time>
      </trkpt>
      <trkpt lat="46.53104" lon="-1.77571">
        <ele>13.209563</ele>
        <time>2022-05-08T23:26:56.138Z</time>
      </trkpt>
      <trkpt lat="46.53089" lon="-1.77524">
        <ele>13.417699</ele>
        <time>2022-05-08T23:27:03.668Z</time>
      </trkpt>
      <trkpt lat="46.53083" lon="-1.77522">
        <ele>13.451787</ele>
        <time>2022-05-08T23:27:04.895Z</time>
      </trkpt>
      <trkpt lat="46.53077" lon="-1.77498">
        <ele>13.550069</ele>
        <time>2022-05-08T23:27:08.583Z</time>
      </trkpt>
      <trkpt lat="46.53079" lon="-1.7749">
        <ele>13.585833</ele>
        <time>2022-05-08T23:27:09.800Z</time>
      </trkpt>
      <trkpt lat="46.53064" lon="-1.77416">
        <ele>13.889608</ele>
        <time>2022-05-08T23:27:20.752Z</time>
      </trkpt>
      <trkpt lat="46.53051" lon="-1.77418">
        <ele>13.965423</ele>
        <time>2022-05-08T23:27:23.498Z</time>
      </trkpt>
      <trkpt lat="46.53011" lon="-1.77423">
        <ele>14.196813</ele>
        <time>2022-05-08T23:27:31.804Z</time>
      </trkpt>
      <trkpt lat="46.53011" lon="-1.77414">
        <ele>14.246693</ele>
        <time>2022-05-08T23:27:32.998Z</time>
      </trkpt>
      <trkpt lat="46.53011" lon="-1.77359">
        <ele>14.574141</ele>
        <time>2022-05-08T23:27:41.261Z</time>
      </trkpt>
      <trkpt lat="46.52991" lon="-1.77278">
        <ele>15.077737</ele>
        <time>2022-05-08T23:27:53.935Z</time>
      </trkpt>
      <trkpt lat="46.52939" lon="-1.77296">
        <ele>15.534243</ele>
        <time>2022-05-08T23:28:05.338Z</time>
      </trkpt>
      <trkpt lat="46.52923" lon="-1.77228">
        <ele>16.124417</ele>
        <time>2022-05-08T23:28:16.954Z</time>
      </trkpt>
      <trkpt lat="46.52868" lon="-1.77244">
        <ele>16.960632</ele>
        <time>2022-05-08T23:28:30.700Z</time>
      </trkpt>
      <trkpt lat="46.52863" lon="-1.77238">
        <ele>17.054826</ele>
        <time>2022-05-08T23:28:32.324Z</time>
      </trkpt>
      <trkpt lat="46.52854" lon="-1.77191">
        <ele>17.554535</ele>
        <time>2022-05-08T23:28:40.662Z</time>
      </trkpt>
      <trkpt lat="46.52848" lon="-1.77184">
        <ele>17.669609</ele>
        <time>2022-05-08T23:28:42.913Z</time>
      </trkpt>
      <trkpt lat="46.52797" lon="-1.77199">
        <ele>18.427905</ele>
        <time>2022-05-08T23:28:55.858Z</time>
      </trkpt>
      <trkpt lat="46.52784" lon="-1.77163">
        <ele>18.746274</ele>
        <time>2022-05-08T23:29:03.152Z</time>
      </trkpt>
      <trkpt lat="46.52792" lon="-1.7716">
        <ele>18.835332</ele>
        <time>2022-05-08T23:29:04.936Z</time>
      </trkpt>
      <trkpt lat="46.52787" lon="-1.77155">
        <ele>18.904766</ele>
        <time>2022-05-08T23:29:06.459Z</time>
      </trkpt>
      <trkpt lat="46.52745" lon="-1.77167">
        <ele>19.394075</ele>
        <time>2022-05-08T23:29:16.552Z</time>
      </trkpt>
      <trkpt lat="46.52668" lon="-1.77188">
        <ele>20.286484</ele>
        <time>2022-05-08T23:29:33.920Z</time>
      </trkpt>
      <trkpt lat="46.52627" lon="-1.77188">
        <ele>20.338887</ele>
        <time>2022-05-08T23:29:41.587Z</time>
      </trkpt>
      <trkpt lat="46.5252" lon="-1.77141">
        <ele>19.915495</ele>
        <time>2022-05-08T23:30:00.524Z</time>
      </trkpt>
      <trkpt lat="46.52504" lon="-1.77122">
        <ele>19.838498</ele>
        <time>2022-05-08T23:30:03.704Z</time>
      </trkpt>
      <trkpt lat="46.52485" lon="-1.77095">
        <ele>19.682518</ele>
        <time>2022-05-08T23:30:07.885Z</time>
      </trkpt>
      <trkpt lat="46.52388" lon="-1.76922">
        <ele>17.724299</ele>
        <time>2022-05-08T23:30:31.738Z</time>
      </trkpt>
      <trkpt lat="46.52351" lon="-1.76856">
        <ele>16.867887</ele>
        <time>2022-05-08T23:30:40.689Z</time>
      </trkpt>
      <trkpt lat="46.52313" lon="-1.76772">
        <ele>15.8016</ele>
        <time>2022-05-08T23:30:51.140Z</time>
      </trkpt>
      <trkpt lat="46.52308" lon="-1.76756">
        <ele>15.60908</ele>
        <time>2022-05-08T23:30:53.017Z</time>
      </trkpt>
      <trkpt lat="46.52271" lon="-1.76712">
        <ele>14.876774</ele>
        <time>2022-05-08T23:31:00.156Z</time>
      </trkpt>
      <trkpt lat="46.5218" lon="-1.76663">
        <ele>13.705376</ele>
        <time>2022-05-08T23:31:14.835Z</time>
      </trkpt>
      <trkpt lat="46.52072" lon="-1.76636">
        <ele>12.578756</ele>
        <time>2022-05-08T23:31:32.546Z</time>
      </trkpt>
      <trkpt lat="46.52062" lon="-1.76633">
        <ele>12.553087</ele>
        <time>2022-05-08T23:31:34.287Z</time>
      </trkpt>
      <trkpt lat="46.52062" lon="-1.76637">
        <ele>12.545917</ele>
        <time>2022-05-08T23:31:34.923Z</time>
      </trkpt>
      <trkpt lat="46.52061" lon="-1.76643">
        <ele>12.535167</ele>
        <time>2022-05-08T23:31:35.883Z</time>
      </trkpt>
      <trkpt lat="46.52037" lon="-1.76633">
        <ele>12.470476</ele>
        <time>2022-05-08T23:31:40.562Z</time>
      </trkpt>
      <trkpt lat="46.52011" lon="-1.7661">
        <ele>12.395605</ele>
        <time>2022-05-08T23:31:45.902Z</time>
      </trkpt>
      <trkpt lat="46.5195" lon="-1.76539">
        <ele>12.200069</ele>
        <time>2022-05-08T23:32:00.194Z</time>
      </trkpt>
      <trkpt lat="46.51935" lon="-1.76541">
        <ele>12.165276</ele>
        <time>2022-05-08T23:32:02.926Z</time>
      </trkpt>
      <trkpt lat="46.51932" lon="-1.76535">
        <ele>12.172621</ele>
        <time>2022-05-08T23:32:04.333Z</time>
      </trkpt>
      <trkpt lat="46.51924" lon="-1.76527">
        <ele>12.184836</ele>
        <time>2022-05-08T23:32:06.732Z</time>
      </trkpt>
      <trkpt lat="46.51906" lon="-1.76548">
        <ele>12.214675</ele>
        <time>2022-05-08T23:32:11.099Z</time>
      </trkpt>
      <trkpt lat="46.51871" lon="-1.76583">
        <ele>12.269431</ele>
        <time>2022-05-08T23:32:19.280Z</time>
      </trkpt>
      <trkpt lat="46.51782" lon="-1.76726">
        <ele>12.517644</ele>
        <time>2022-05-08T23:32:44.495Z</time>
      </trkpt>
      <trkpt lat="46.51778" lon="-1.76734">
        <ele>12.543544</ele>
        <time>2022-05-08T23:32:45.954Z</time>
      </trkpt>
      <trkpt lat="46.51749" lon="-1.7678">
        <ele>12.694981</ele>
        <time>2022-05-08T23:32:54.687Z</time>
      </trkpt>
      <trkpt lat="46.51695" lon="-1.76854">
        <ele>12.961838</ele>
        <time>2022-05-08T23:33:10.034Z</time>
      </trkpt>
      <trkpt lat="46.51682" lon="-1.76866">
        <ele>13.017379</ele>
        <time>2022-05-08T23:33:13.311Z</time>
      </trkpt>
      <trkpt lat="46.51646" lon="-1.76891">
        <ele>12.934678</ele>
        <time>2022-05-08T23:33:20.651Z</time>
      </trkpt>
      <trkpt lat="46.51654" lon="-1.76906">
        <ele>12.895571</ele>
        <time>2022-05-08T23:33:22.995Z</time>
      </trkpt>
      <trkpt lat="46.51658" lon="-1.76913">
        <ele>12.877172</ele>
        <time>2022-05-08T23:33:24.182Z</time>
      </trkpt>
      <trkpt lat="46.51628" lon="-1.76976">
        <ele>12.715928</ele>
        <time>2022-05-08T23:33:33.385Z</time>
      </trkpt>
      <trkpt lat="46.51618" lon="-1.76989">
        <ele>12.674601</ele>
        <time>2022-05-08T23:33:35.643Z</time>
      </trkpt>
      <trkpt lat="46.51619" lon="-1.76993">
        <ele>12.666173</ele>
        <time>2022-05-08T23:33:36.125Z</time>
      </trkpt>
      <trkpt lat="46.51617" lon="-1.77008">
        <ele>12.634241</ele>
        <time>2022-05-08T23:33:37.880Z</time>
      </trkpt>
      <trkpt lat="46.51609" lon="-1.7701">
        <ele>12.608579</ele>
        <time>2022-05-08T23:33:39.214Z</time>
      </trkpt>
      <trkpt lat="46.51603" lon="-1.77001">
        <ele>12.583002</ele>
        <time>2022-05-08T23:33:40.605Z</time>
      </trkpt>
      <trkpt lat="46.51575" lon="-1.77006">
        <ele>12.498085</ele>
        <time>2022-05-08T23:33:45.095Z</time>
      </trkpt>
      <trkpt lat="46.51554" lon="-1.76993">
        <ele>12.427502</ele>
        <time>2022-05-08T23:33:48.908Z</time>
      </trkpt>
      <trkpt lat="46.51519" lon="-1.76934">
        <ele>12.263609</ele>
        <time>2022-05-08T23:33:57.788Z</time>
      </trkpt>
      <trkpt lat="46.51499" lon="-1.76911">
        <ele>12.185301</ele>
        <time>2022-05-08T23:34:02.192Z</time>
      </trkpt>
      <trkpt lat="46.51487" lon="-1.76942">
        <ele>12.112003</ele>
        <time>2022-05-08T23:34:06.415Z</time>
      </trkpt>
      <trkpt lat="46.51479" lon="-1.76964">
        <ele>12.057943</ele>
        <time>2022-05-08T23:34:09.569Z</time>
      </trkpt>
      <trkpt lat="46.51456" lon="-1.77019">
        <ele>11.941841</ele>
        <time>2022-05-08T23:34:18.224Z</time>
      </trkpt>
      <trkpt lat="46.51448" lon="-1.77037">
        <ele>11.941841</ele>
        <time>2022-05-08T23:34:21.800Z</time>
      </trkpt>
      <trkpt lat="46.51445" lon="-1.77035">
        <ele>11.941841</ele>
        <time>2022-05-08T23:34:22.702Z</time>
      </trkpt>
      <trkpt lat="46.51428" lon="-1.7702">
        <ele>11.941841</ele>
        <time>2022-05-08T23:34:27.537Z</time>
      </trkpt>
      <trkpt lat="46.51418" lon="-1.7703">
        <ele>11.941841</ele>
        <time>2022-05-08T23:34:30.361Z</time>
      </trkpt>
      <trkpt lat="46.51415" lon="-1.77043">
        <ele>11.941841</ele>
        <time>2022-05-08T23:34:32.815Z</time>
      </trkpt>
      <trkpt lat="46.51402" lon="-1.77045">
        <ele>11.941841</ele>
        <time>2022-05-08T23:34:36.084Z</time>
      </trkpt>
      <trkpt lat="46.51398" lon="-1.77052">
        <ele>11.941841</ele>
        <time>2022-05-08T23:34:37.547Z</time>
      </trkpt>
      <trkpt lat="46.51392" lon="-1.77047">
        <ele>11.941841</ele>
        <time>2022-05-08T23:34:39.502Z</time>
      </trkpt>
      <trkpt lat="46.5139" lon="-1.7705">
        <ele>11.941841</ele>
        <time>2022-05-08T23:34:40.288Z</time>
      </trkpt>
    </trkseg>
  </trk>
</gpx>